[[{"header":{"parameterUnit":"m.s-1","parameterCategory":1,"la1":30.6,"la2":28.766,"lo1":-90.7593,"lo2":-88.6598,"dx":0.0162,"dy":0.0183,"nx":116,"ny":114,"refTime":"2023-02-09T06:00:00:Z","depth":0,"parameterNumber":2,"parameterNumberName":"U-component_of_WINDS"},"data":[0.0,0.0,0.0,0.0,0.0,0.0,0.0,0.0,0.0,0.0,0.0,0.0,0.0,0.0,0.0,0.0,0.0,0.0,0.0,0.0,0.0,0.0,0.0,0.0,0.0,0.0,0.0,0.0,0.0,0.0,0.0,0.0,0.0,0.0,0.0,0.0,0.0,0.0,0.0,0.0,0.0,0.0,0.0,0.0,0.0,0.0,0.0,0.0,0.0,0.0,0.0,0.0,0.0,0.0,0.0,0.0,0.0,0.0,0.0,0.0,0.0,0.0,0.0,0.0,0.0,0.0,0.0,0.0,0.0,0.0,0.0,0.0,0.0,0.0,0.0,0.0,0.0,0.0,0.0,0.0,0.0,0.0,0.0,0.0,0.0,0.0,0.0,0.0,0.0,0.0,0.0,0.0,0.0,0.0,0.0,0.0,0.0,0.0,0.0,0.0,0.0,0.0,0.0,0.0,0.0,0.0,0.0,0.0,0.0,0.0,0.0,0.0,0.0,0.0,0.0,0.0,0.0,0.0,0.0,0.0,0.0,0.0,0.0,0.0,0.0,0.0,0.0,0.0,0.0,0.0,0.0,0.0,0.0,0.0,0.0,0.0,0.0,0.0,0.0,0.0,0.0,0.0,0.0,0.0,0.0,0.0,0.0,0.0,0.0,0.0,0.0,0.0,0.0,0.0,0.0,0.0,0.0,0.0,0.0,0.0,0.0,0.0,0.0,0.0,0.0,0.0,0.0,0.0,0.0,0.0,0.0,0.0,0.0,0.0,0.0,0.0,0.0,0.0,0.0,0.0,0.0,0.0,0.0,0.0,0.0,0.0,0.0,0.0,0.0,0.0,0.0,0.0,0.0,0.0,0.0,0.0,0.0,0.0,0.0,0.0,0.0,0.0,0.0,0.0,0.0,0.0,0.0,0.0,0.0,0.0,0.0,0.0,0.0,0.0,0.0,0.0,0.0,0.0,0.0,0.0,0.0,0.0,0.0,0.0,0.0,0.0,0.0,0.0,0.0,0.0,0.0,0.0,0.0,0.0,0.0,0.0,0.0,0.0,0.0,0.0,0.0,0.0,0.0,0.0,0.0,0.0,0.0,0.0,0.0,0.0,0.0,0.0,0.0,0.0,0.0,0.0,0.0,0.0,0.0,0.0,0.0,0.0,0.0,0.0,0.0,0.0,0.0,0.0,0.0,0.0,0.0,0.0,0.0,0.0,0.0,0.0,0.0,0.0,0.0,0.0,0.0,0.0,0.0,0.0,0.0,0.0,0.0,0.0,0.0,0.0,0.0,0.0,0.0,0.0,0.0,0.0,0.0,0.0,0.0,0.0,0.0,0.0,0.0,0.0,0.0,0.0,0.0,0.0,0.0,0.0,0.0,0.0,0.0,0.0,0.0,0.0,0.0,0.0,0.0,0.0,0.0,0.0,0.0,0.0,0.0,0.0,0.0,0.0,0.0,0.0,0.0,0.0,0.0,0.0,0.0,0.0,0.0,0.0,0.0,0.0,0.0,0.0,0.0,0.0,0.0,0.0,0.0,0.0,0.0,0.0,0.0,0.0,0.0,0.0,0.0,0.0,0.0,0.0,0.0,0.0,0.0,0.0,0.0,0.0,0.0,0.0,0.0,0.0,0.0,0.0,0.0,0.0,0.0,0.0,0.0,0.0,0.0,0.0,0.0,0.0,0.0,0.0,0.0,0.0,0.0,0.0,0.0,0.0,0.0,0.0,0.0,0.0,0.0,0.0,0.0,0.0,0.0,0.0,0.0,0.0,0.0,0.0,0.0,0.0,0.0,0.0,0.0,0.0,0.0,0.0,0.0,0.0,0.0,0.0,0.0,0.0,0.0,0.0,0.0,0.0,0.0,0.0,0.0,0.0,0.0,0.0,0.0,0.0,0.0,0.0,0.0,0.0,0.0,0.0,0.0,0.0,0.0,0.0,0.0,0.0,0.0,0.0,0.0,0.0,0.0,0.0,0.0,0.0,0.0,0.0,0.0,0.0,0.0,0.0,0.0,0.0,0.0,0.0,0.0,0.0,0.0,0.0,0.0,0.0,0.0,0.0,0.0,0.0,0.0,0.0,0.0,0.0,0.0,0.0,0.0,0.0,0.0,0.0,0.0,0.0,0.0,0.0,0.0,0.0,0.0,0.0,0.0,0.0,0.0,0.0,0.0,0.0,0.0,0.0,0.0,0.0,0.0,0.0,0.0,0.0,0.0,0.0,0.0,0.0,0.0,0.0,0.0,0.0,0.0,0.0,0.0,0.0,0.0,0.0,0.0,0.0,0.0,0.0,0.0,0.0,0.0,0.0,0.0,0.0,0.0,0.0,0.0,0.0,0.0,0.0,0.0,0.0,0.0,0.0,0.0,0.0,0.0,0.0,0.0,0.0,0.0,0.0,0.0,0.0,0.0,0.0,0.0,0.0,0.0,0.0,0.0,0.0,0.0,0.0,0.0,0.0,0.0,0.0,0.0,0.0,0.0,0.0,0.0,0.0,0.0,0.0,0.0,0.0,0.0,0.0,0.0,0.0,0.0,0.0,0.0,0.0,0.0,0.0,0.0,0.0,0.0,0.0,0.0,0.0,0.0,0.0,0.0,0.0,0.0,0.0,0.0,0.0,0.0,0.0,0.0,0.0,0.0,0.0,0.0,0.0,0.0,0.0,0.0,0.0,0.0,0.0,0.0,0.0,0.0,0.0,0.0,0.0,0.0,0.0,0.0,0.0,0.0,0.0,0.0,0.0,0.0,0.0,0.0,0.0,0.0,0.0,0.0,0.0,0.0,0.0,0.0,0.0,0.0,0.0,0.0,0.0,0.0,0.0,0.0,0.0,0.0,0.0,0.0,0.0,0.0,0.0,0.0,0.0,0.0,0.0,0.0,0.0,0.0,0.0,0.0,0.0,0.0,0.0,0.0,0.0,0.0,0.0,0.0,0.0,0.0,0.0,0.0,0.0,0.0,0.0,0.0,0.0,0.0,0.0,0.0,0.0,0.0,0.0,0.0,0.0,0.0,0.0,0.0,0.0,0.0,0.0,0.0,0.0,0.0,0.0,0.0,0.0,0.0,0.0,0.0,0.0,0.0,0.0,0.0,0.0,0.0,0.0,0.0,0.0,0.0,0.0,0.0,0.0,0.0,0.0,0.0,0.0,0.0,0.0,0.0,0.0,0.0,0.0,0.0,0.0,0.0,0.0,0.0,0.0,0.0,0.0,0.0,0.0,0.0,0.0,0.0,0.0,0.0,0.0,0.0,0.0,0.0,0.0,0.0,0.0,0.0,0.0,0.0,0.0,0.0,0.0,0.0,0.0,0.0,0.0,0.0,0.0,0.0,0.0,0.0,0.0,0.0,0.0,0.0,0.0,0.0,0.0,0.0,0.0,0.0,0.0,0.0,0.0,0.0,0.0,0.0,0.0,0.0,0.0,0.0,0.0,0.0,0.0,0.0,0.0,0.0,0.0,0.0,0.0,0.0,0.0,0.0,0.0,0.0,0.0,0.0,0.0,0.0,0.0,0.0,0.0,0.0,0.0,0.0,0.0,0.0,0.0,0.0,0.0,0.0,0.0,0.0,0.0,0.0,0.0,0.0,0.0,0.0,0.0,0.0,0.0,0.0,0.0,0.0,0.0,0.0,0.0,0.0,0.0,0.0,0.0,0.0,0.0,0.0,0.0,0.0,0.0,0.0,0.0,0.0,0.0,0.0,0.0,0.0,0.0,0.0,0.0,0.0,0.0,0.0,0.0,0.0,0.0,0.0,0.0,0.0,0.0,0.0,0.0,0.0,0.0,0.0,0.0,0.0,0.0,0.0,0.0,0.0,0.0,0.0,0.0,0.0,0.0,0.0,0.0,0.0,0.0,0.0,0.0,0.0,0.0,0.0,0.0,0.0,0.0,0.0,0.0,0.0,0.0,0.0,0.0,0.0,0.0,0.0,0.0,0.0,0.0,0.0,0.0,0.0,0.0,0.0,0.0,0.0,0.0,0.0,0.0,0.0,0.0,0.0,0.0,0.0,0.0,0.0,0.0,0.0,0.0,0.0,0.0,0.0,0.0,0.0,0.0,0.0,0.0,0.0,0.0,0.0,0.0,0.0,0.0,0.0,0.0,0.0,0.0,0.0,0.0,0.0,0.0,0.0,0.0,0.0,0.0,0.0,0.0,0.0,0.0,0.0,0.0,0.0,0.0,0.0,0.0,0.0,0.0,0.0,0.0,0.0,0.0,0.0,0.0,0.0,0.0,0.0,0.0,0.0,0.0,0.0,0.0,0.0,0.0,0.0,0.0,0.0,0.0,0.0,0.0,0.0,0.0,0.0,0.0,0.0,0.0,0.0,0.0,0.0,0.0,0.0,0.0,0.0,0.0,0.0,0.0,0.0,0.0,0.0,0.0,0.0,0.0,0.0,0.0,0.0,0.0,0.0,0.0,0.0,0.0,0.0,0.0,0.0,0.0,0.0,0.0,0.0,0.0,0.0,0.0,0.0,0.0,0.0,0.0,0.0,0.0,0.0,0.0,0.0,0.0,0.0,0.0,0.0,0.0,0.0,0.0,0.0,0.0,0.0,0.0,0.0,0.0,0.0,0.0,0.0,0.0,0.0,0.0,0.0,0.0,0.0,0.0,0.0,0.0,0.0,0.0,0.0,0.0,0.0,0.0,0.0,0.0,0.0,0.0,0.0,0.0,0.0,0.0,0.0,0.0,0.0,0.0,0.0,0.0,0.0,0.0,0.0,0.0,0.0,0.0,0.0,0.0,0.0,0.0,0.0,0.0,0.0,0.0,0.0,0.0,0.0,0.0,0.0,0.0,0.0,0.0,0.0,0.0,0.0,0.0,0.0,0.0,0.0,0.0,0.0,0.0,0.0,0.0,0.0,0.0,0.0,0.0,0.0,0.0,0.0,0.0,0.0,0.0,0.0,0.0,0.0,0.0,0.0,0.0,0.0,0.0,0.0,0.0,0.0,0.0,0.0,0.0,0.0,0.0,0.0,0.0,0.0,0.0,0.0,0.0,0.0,0.0,0.0,0.0,0.0,0.0,0.0,0.0,0.0,0.0,0.0,0.0,0.0,0.0,0.0,0.0,0.0,0.0,0.0,0.0,0.0,0.0,0.0,0.0,0.0,0.0,0.0,0.0,0.0,0.0,0.0,0.0,0.0,0.0,0.0,0.0,0.0,0.0,0.0,0.0,0.0,0.0,0.0,0.0,0.0,0.0,0.0,0.0,0.0,0.0,0.0,0.0,0.0,0.0,0.0,0.0,0.0,0.0,0.0,0.0,0.0,0.0,0.0,0.0,0.0,0.0,0.0,0.0,0.0,0.0,0.0,0.0,0.0,0.0,0.0,0.0,0.0,0.0,0.0,0.0,0.0,0.0,0.0,0.0,0.0,0.0,0.0,0.0,0.0,0.0,0.0,0.0,0.0,0.0,0.0,0.0,0.0,0.0,0.0,0.0,0.0,0.0,0.0,0.0,0.0,0.0,0.0,0.0,0.0,0.0,0.0,0.0,0.0,0.0,0.0,0.0,0.0,0.0,0.0,0.0,0.0,0.0,0.0,0.0,0.0,0.0,0.0,0.0,0.0,0.0,0.0,0.0,0.0,0.0,0.0,0.0,0.0,0.0,0.0,0.0,0.0,0.0,0.0,0.0,0.0,0.0,0.0,0.0,0.0,0.0,0.0,0.0,0.0,0.0,0.0,0.0,0.0,0.0,0.0,0.0,0.0,0.0,0.0,0.0,0.0,0.0,0.0,0.0,0.0,0.0,0.0,0.0,0.0,0.0,0.0,0.0,0.0,0.0,0.0,0.0,0.0,0.0,0.0,0.0,0.0,0.0,0.0,0.0,0.0,0.0,0.0,0.0,0.0,0.0,0.0,0.0,0.0,0.0,0.0,0.0,0.0,0.0,0.0,0.0,0.0,0.0,0.0,0.0,0.0,0.0,0.0,0.0,0.0,0.0,0.0,0.0,0.0,0.0,0.0,0.0,0.0,0.0,0.0,0.0,0.0,0.0,0.0,0.0,0.0,0.0,0.0,0.0,0.0,0.0,0.0,0.0,0.0,0.0,0.0,0.0,0.0,0.0,0.0,0.0,0.0,0.0,0.0,0.0,-5.5056,0.0,0.0,0.0,0.0,0.0,0.0,0.0,0.0,0.0,0.0,0.0,0.0,0.0,0.0,0.0,0.0,0.0,0.0,0.0,0.0,0.0,0.0,0.0,0.0,0.0,0.0,0.0,0.0,0.0,0.0,0.0,0.0,0.0,0.0,0.0,0.0,0.0,0.0,0.0,3.6947,3.6935,3.6383,3.7211,3.7462,3.7262,0.0,0.0,0.0,0.0,0.0,0.0,0.0,0.0,0.0,0.0,0.0,0.0,0.0,0.0,0.0,0.0,0.0,0.0,0.0,0.0,0.0,0.0,0.0,0.0,0.0,0.0,0.0,0.0,0.0,0.0,0.0,0.0,0.0,0.0,0.0,0.0,0.0,0.0,0.0,0.0,0.0,0.0,0.0,0.0,0.0,0.0,0.0,0.0,0.0,0.0,0.0,0.0,0.0,0.0,0.0,0.0,0.0,0.0,0.0,0.0,0.0,0.0,0.0,0.0,0.0,0.0,0.0,0.0,0.0,0.0,0.0,-5.6502,0.0,0.0,0.0,0.0,0.0,0.0,0.0,0.0,0.0,0.0,0.0,0.0,0.0,0.0,0.0,0.0,0.0,0.0,0.0,0.0,0.0,0.0,0.0,0.0,3.5575,3.6332,3.6168,0.0,0.0,0.0,0.0,0.0,0.0,0.0,0.0,3.5405,3.5624,3.6773,3.6438,3.6207,3.6232,3.6784,3.6784,3.6433,3.8015,0.0,0.0,0.0,0.0,0.0,0.0,0.0,0.0,0.0,0.0,0.0,0.0,0.0,0.0,0.0,0.0,0.0,0.0,0.0,0.0,0.0,0.0,0.0,0.0,0.0,0.0,0.0,0.0,0.0,0.0,0.0,0.0,0.0,0.0,0.0,0.0,0.0,0.0,0.0,0.0,0.0,0.0,0.0,0.0,0.0,0.0,0.0,0.0,0.0,0.0,0.0,0.0,0.0,0.0,0.0,0.0,0.0,0.0,0.0,0.0,0.0,0.0,0.0,-5.6181,-5.6748,-5.7373,-5.7519,-5.6859,-5.5647,-5.6602,-5.6731,-5.6668,-6.0799,0.0,0.0,0.0,0.0,0.0,0.0,0.0,0.0,0.0,0.0,0.0,0.0,0.0,0.0,0.0,0.0,0.0,0.0,0.0,0.0,0.0,3.4844,3.5089,3.6263,3.5379,3.5162,0.0,0.0,0.0,0.0,0.0,0.0,3.5226,3.6727,3.6776,3.5246,3.547,3.5655,3.5655,3.6207,3.6433,3.6408,3.7588,3.8391,3.8868,0.0,0.0,0.0,0.0,0.0,0.0,0.0,0.0,0.0,0.0,0.0,0.0,0.0,0.0,0.0,0.0,0.0,0.0,0.0,0.0,0.0,0.0,0.0,0.0,0.0,0.0,0.0,0.0,0.0,0.0,0.0,0.0,0.0,0.0,0.0,0.0,0.0,0.0,0.0,0.0,0.0,-3.9078,-4.1053,0.0,0.0,0.0,0.0,0.0,0.0,0.0,0.0,0.0,0.0,0.0,0.0,0.0,-5.6632,-5.6472,-5.5811,-5.5843,-5.6649,-5.5346,-5.4766,-5.4913,-5.5574,-5.5794,-5.5684,-5.7189,0.0,-5.6983,-5.7864,0.0,0.0,0.0,0.0,0.0,0.0,0.0,0.0,0.0,0.0,0.0,0.0,0.0,0.0,0.0,0.0,0.0,0.0,0.0,0.0,0.0,3.5169,3.5223,3.5812,3.5318,3.5318,3.5906,0.0,0.0,0.0,0.0,3.6173,3.5794,3.6347,3.6048,3.4817,3.5233,3.5378,3.5102,3.5956,3.6358,3.6408,3.7513,3.814,3.8391,3.774,0.0,0.0,0.0,0.0,0.0,0.0,0.0,0.0,0.0,0.0,0.0,0.0,0.0,0.0,0.0,0.0,0.0,0.0,0.0,0.0,0.0,0.0,0.0,0.0,0.0,0.0,0.0,0.0,0.0,0.0,0.0,0.0,0.0,0.0,0.0,0.0,0.0,0.0,0.0,-3.8392,-4.1151,-4.1766,-4.4196,-4.6381,0.0,0.0,0.0,0.0,0.0,0.0,0.0,0.0,0.0,-5.3964,-5.6289,-5.7013,-5.6102,-5.577,-5.5978,-5.6785,-5.6088,-5.6235,-5.7116,-5.7483,-5.7886,-5.8364,-5.9501,-5.9918,-5.9767,-5.989,-6.1007,-6.2694,0.0,0.0,0.0,0.0,-6.553,-6.5942,0.0,0.0,0.0,0.0,0.0,0.0,0.0,0.0,0.0,0.0,0.0,0.0,3.5796,3.577,3.5669,3.5669,3.5546,3.5554,3.5554,3.5931,0.0,0.0,3.6358,3.6433,3.6558,3.5906,3.5353,3.4926,3.5353,3.5403,3.5152,3.6257,3.686,3.7036,3.7864,3.8241,3.8241,3.8241,3.8467,3.8666,0.0,0.0,0.0,0.0,0.0,0.0,0.0,0.0,0.0,0.0,0.0,0.0,0.0,0.0,0.0,0.0,0.0,0.0,0.0,0.0,0.0,0.0,0.0,0.0,0.0,0.0,0.0,0.0,0.0,0.0,0.0,0.0,0.0,0.0,0.0,0.0,0.0,-3.9441,-4.1541,-4.2024,-4.3961,-4.601,0.0,0.0,0.0,0.0,0.0,0.0,-5.1093,-5.3204,-5.4419,-5.4526,-5.6588,-5.7116,-5.5904,-5.6088,-5.6492,-5.7116,-5.7116,-5.785,-5.9208,-5.9428,-5.9942,-6.075,-6.1713,-6.224,-6.2521,-6.2068,-6.223,-6.2796,-6.3427,-6.3962,-6.442,-6.4993,-6.5643,-6.6238,0.0,0.0,0.0,0.0,0.0,0.0,0.0,0.0,0.0,0.0,0.0,3.5136,3.6813,3.6436,3.6096,3.6271,3.5839,3.5554,3.5554,3.5579,3.5805,3.6332,3.6358,3.6609,3.7136,3.6081,3.5529,3.5504,3.5529,3.5805,3.6307,3.7412,3.8216,3.8743,3.8793,3.8818,3.8818,3.8818,3.8843,3.8741,3.6656,0.0,0.0,0.0,0.0,0.0,0.0,0.0,0.0,0.0,0.0,0.0,0.0,0.0,0.0,0.0,0.0,0.0,0.0,0.0,0.0,0.0,0.0,0.0,0.0,0.0,0.0,0.0,0.0,0.0,0.0,0.0,0.0,0.0,0.0,0.0,0.0,0.0,0.0,-4.0965,-4.1989,0.0,0.0,0.0,0.0,-4.8486,-4.9871,-5.1128,-5.2269,-5.3717,-5.4509,-5.4589,-5.6061,-5.6822,-5.6748,-5.7483,-5.7886,-5.7923,-5.7923,-5.84,-5.9245,-6.0015,-6.0786,-6.1606,-6.2909,-6.378,-6.4143,-6.2484,-6.2845,-6.4397,-6.3641,-6.4334,-6.5795,-6.5833,-6.5872,-6.5795,0.0,0.0,0.0,0.0,0.0,0.0,0.0,0.0,0.0,3.4625,3.4899,3.5719,3.7516,3.7531,3.7187,3.7008,3.6802,3.6238,3.5027,3.447,3.4338,3.4532,3.5187,3.5745,3.6132,3.4519,3.4127,3.5027,3.4862,3.5547,3.691,3.804,3.8868,3.9421,3.9772,4.0124,4.04,3.932,3.9069,3.9293,3.7239,3.5802,0.0,0.0,0.0,0.0,0.0,0.0,0.0,0.0,0.0,0.0,0.0,0.0,0.0,0.0,0.0,0.0,0.0,0.0,0.0,0.0,0.0,0.0,0.0,0.0,0.0,0.0,0.0,0.0,0.0,0.0,0.0,0.0,0.0,0.0,0.0,0.0,0.0,-4.2367,-4.3166,0.0,-4.8433,-4.7913,-4.8385,-5.0827,-5.1061,-5.1451,-5.2354,-5.3795,-5.4831,-5.5374,-5.6839,-5.7556,-5.7556,-5.785,-5.8253,-5.8767,-5.8767,-5.9465,-6.075,-6.1043,-6.1594,-6.2401,-6.2903,-6.3593,-6.4332,-6.3728,-6.3943,-6.4512,-6.3628,-6.3666,-6.4243,-6.4243,-6.4589,-6.5089,0.0,0.0,0.0,0.0,0.0,0.0,0.0,0.0,3.3972,3.4148,3.4822,3.6049,3.7899,3.7997,3.7948,3.7886,3.7217,3.6243,3.5093,3.4127,3.3669,3.3815,3.4504,3.4993,3.5211,3.3905,3.3623,3.449,3.4799,3.5569,3.7023,3.8491,3.9546,4.0275,4.0827,4.148,4.2108,4.1003,4.0425,4.012,3.8369,3.706,3.5714,0.0,0.0,0.0,0.0,0.0,0.0,0.0,0.0,0.0,0.0,0.0,0.0,0.0,0.0,0.0,0.0,0.0,0.0,0.0,0.0,0.0,0.0,0.0,0.0,0.0,0.0,0.0,0.0,0.0,0.0,0.0,0.0,0.0,0.0,0.0,-4.1853,-4.3544,-4.4436,-4.6111,-4.9305,-4.89,-4.9374,-5.1358,-5.1813,-5.231,-5.3079,-5.452,-5.5881,-5.6903,-5.792,-5.84,-5.84,-5.885,-5.9198,-5.9456,-5.9751,-6.06,-6.1855,-6.1654,-6.2034,-6.2805,-6.3168,-6.3766,-6.4445,-6.4769,-6.4955,-6.4974,-6.4397,-6.4166,-6.4205,-6.4474,-6.4936,-6.5474,0.0,0.0,0.0,0.0,0.0,0.0,0.0,3.3571,3.3721,3.3144,3.4384,3.6013,3.7896,3.7979,3.8227,3.8918,3.6891,3.5618,3.5479,3.441,3.3991,3.4412,3.4362,3.4461,3.471,3.4342,3.4166,3.419,3.523,3.5987,3.6692,3.8674,4.0195,4.1272,4.1932,4.2811,4.384,4.3865,4.2961,4.1447,4.0362,3.8896,3.7022,0.0,0.0,0.0,0.0,0.0,0.0,0.0,0.0,0.0,0.0,0.0,0.0,0.0,0.0,0.0,0.0,0.0,0.0,0.0,0.0,0.0,0.0,0.0,0.0,0.0,0.0,0.0,0.0,0.0,0.0,0.0,0.0,0.0,-4.0213,-4.0652,-4.1747,-4.4177,-4.5303,-4.6541,-4.8031,-4.8567,-4.926,-5.0202,-5.2276,-5.3917,-5.4682,-5.6115,-5.7651,-5.9161,-5.9245,-5.9245,-5.9245,-6.0543,-6.0804,-6.0058,-6.0841,-6.1661,-6.2401,-6.1882,-6.2071,-6.2855,-6.3934,-6.437,-6.4482,-6.5485,-6.5897,-6.5897,-6.5897,-6.5897,-6.5974,-6.6744,-6.7013,-6.6859,0.0,0.0,0.0,0.0,0.0,0.0,0.0,3.3897,3.4148,3.3194,3.4719,3.6121,3.6882,3.7942,3.8519,3.8354,3.7076,3.6123,3.5596,3.3546,3.3023,3.4314,3.3648,3.3553,3.4318,3.3314,3.2914,3.3175,3.3325,3.3962,3.5085,3.6277,3.8154,4.0338,4.087,4.2512,4.5045,4.5447,4.5598,4.5254,4.301,4.0392,3.7511,0.0,0.0,0.0,0.0,0.0,0.0,0.0,0.0,0.0,0.0,0.0,0.0,0.0,0.0,0.0,0.0,0.0,0.0,0.0,0.0,0.0,0.0,0.0,0.0,0.0,0.0,0.0,0.0,0.0,0.0,0.0,-3.5844,-3.7416,-3.9727,-4.1193,-4.274,-4.4837,-4.597,-4.7449,-4.9541,-5.0105,-5.1396,-5.4058,-5.424,-5.5378,-5.7909,-5.787,-5.845,-6.0004,-6.0089,-6.0089,-6.0089,-6.0203,-6.0762,-6.1736,-6.1321,-6.188,-6.3214,-6.273,-6.2585,-6.2855,-6.3543,-6.4019,-6.4444,-6.5067,-6.5542,-6.5897,-6.5897,-6.5897,-6.5859,-6.5436,-6.4897,-6.432,0.0,0.0,0.0,0.0,0.0,0.0,0.0,3.3822,3.4073,3.3104,3.4684,3.6051,3.673,3.7687,3.8162,3.7801,3.6645,3.5678,3.5244,3.3562,3.317,3.4481,3.3528,3.341,3.4142,3.3265,3.2663,3.2511,3.2823,3.3716,3.5176,3.6723,3.8883,4.1257,4.1396,4.2687,4.4718,4.4712,4.5079,4.5605,4.3836,4.169,3.9523,3.7097,3.4862,3.298,3.2936,3.0086,2.6358,2.6362,0.0,0.0,0.0,0.0,0.0,0.0,0.0,0.0,0.0,0.0,0.0,0.0,0.0,0.0,0.0,0.0,0.0,0.0,0.0,0.0,0.0,0.0,0.0,0.0,-3.7139,-3.8991,-4.1523,-4.2738,-4.4235,-4.6546,-4.8239,-4.9977,-5.1815,-5.2853,-5.4226,-5.6131,-5.643,-5.7391,-5.9186,-5.9139,-5.9625,-6.086,-6.0896,-6.0896,-6.0896,-6.1278,-6.1768,-6.2364,-6.2252,-6.2656,-6.3587,-6.3062,-6.2805,-6.2855,-6.3593,-6.4099,-6.4444,-6.5168,-6.5405,0.0,0.0,0.0,0.0,0.0,-6.3743,-6.3243,0.0,0.0,0.0,0.0,0.0,0.0,0.0,3.3596,3.369,3.275,3.4295,3.5724,3.6416,3.6743,3.699,3.7069,3.5489,3.4543,3.4564,3.3873,3.3926,3.4735,3.4165,3.3957,3.4205,3.3844,3.3203,3.2168,3.3028,3.4346,3.6005,3.825,4.0643,4.28,4.2568,4.298,4.364,4.2917,4.3219,4.409,4.3573,4.3017,4.2038,3.8729,3.6829,3.6042,3.6583,3.3046,2.8138,2.8015,0.0,0.0,0.0,0.0,0.0,0.0,0.0,0.0,0.0,0.0,0.0,0.0,0.0,0.0,0.0,0.0,0.0,0.0,0.0,0.0,0.0,0.0,0.0,0.0,-3.9485,-4.2167,-4.4723,-4.5434,-4.6486,-4.8914,-5.1262,-5.3032,-5.3987,-5.5688,-5.6893,-5.7155,-5.8388,-5.933,-5.9671,0.0,0.0,0.0,0.0,-6.1741,-6.1741,-6.2872,-6.3146,-6.2513,-6.3146,-6.3519,-6.3587,-6.3062,-6.2805,-6.2855,-6.3937,-6.437,-6.4482,-6.5485,-6.5397,-6.4666,-6.532,-6.5089,-6.4205,-6.3435,-6.3089,-6.2935,0.0,0.0,0.0,0.0,0.0,0.0,0.0,3.3922,3.3884,3.1883,3.3909,3.478,3.2752,3.376,3.473,3.5187,3.3665,3.2895,3.3345,3.3632,3.428,3.5261,3.5625,3.5379,3.4313,3.4302,3.3609,3.2237,3.2058,3.2926,3.4901,3.608,3.8574,4.1914,4.1623,4.2903,4.5243,4.4097,4.4246,4.5162,4.5475,4.374,4.0997,3.9815,3.7712,3.5549,3.5586,3.3448,3.0193,2.9215,2.7024,2.4329,2.2886,2.2111,0.0,0.0,0.0,0.0,0.0,0.0,0.0,0.0,0.0,0.0,0.0,0.0,0.0,0.0,0.0,0.0,0.0,0.0,0.0,-3.9218,-4.1754,-4.4311,-4.7166,-4.9763,-5.1102,-5.0545,-5.2444,-5.3912,-5.4063,-5.5228,-5.6744,-5.8677,-5.8509,-5.947,-6.1967,-6.1655,-6.1741,-6.2548,-6.2585,-6.2585,-6.2585,-6.2575,-6.2805,-6.337,0.0,0.0,-6.3587,-6.3062,-6.2805,-6.2855,-6.3937,-6.437,-6.4482,-6.5485,-6.5397,-6.4551,-6.4012,-6.3281,-6.2551,-6.2397,-6.1897,-6.1243,0.0,0.0,0.0,0.0,0.0,0.0,0.0,3.4096,3.3972,3.3034,3.4414,3.5082,3.3879,3.4287,3.4726,3.4726,3.3696,3.3294,3.3872,3.4424,3.5077,3.5906,3.7036,3.6763,3.4776,3.5268,3.444,3.2168,3.2168,3.3175,3.5134,3.704,3.9588,4.2613,4.1979,4.2967,4.4707,4.2441,4.2063,4.2941,4.3171,4.2435,4.1102,4.171,4.0371,3.7949,3.7949,3.5394,3.1812,3.1048,2.8167,2.4703,2.3808,2.302,2.1732,0.0,0.0,0.0,0.0,0.0,0.0,0.0,0.0,0.0,0.0,0.0,0.0,0.0,0.0,-2.706,-3.1828,0.0,-3.8888,-4.2413,-4.4357,-4.6894,-5.0624,-5.3248,-5.4277,-5.2944,-5.4146,-5.5379,-5.597,-5.684,-5.7943,-5.9109,-5.9621,-6.0552,-6.2093,-6.2603,-6.3025,-6.3429,-6.3466,-6.3466,-6.3466,-6.2841,-6.2761,-6.3215,-6.2724,-6.2983,-6.3844,-6.3137,-6.3062,-6.3479,-6.3823,-6.3913,-6.3764,-6.3915,-6.3743,-6.3243,-6.2397,-6.205,-6.205,-6.1589,-6.1166,-6.0781,0.0,0.0,0.0,0.0,0.0,0.0,0.0,0.0,3.4059,3.4199,3.4921,3.5502,3.5486,3.5302,3.5052,3.46,3.4148,3.4173,3.4826,3.5203,3.583,3.681,3.8241,3.8,3.5714,3.6407,3.5425,3.2656,3.291,3.4138,3.6226,3.8554,4.0944,4.3271,4.2545,4.272,4.3302,4.0651,3.9922,4.0664,4.0742,4.0937,4.1327,4.3024,4.2342,4.0644,4.0644,3.7246,3.2927,3.2626,2.9015,2.4543,2.4543,2.4008,2.2754,1.9127,1.7898,0.0,0.0,0.0,0.0,0.0,0.0,0.0,0.0,-1.6107,-1.6959,-2.4348,-2.7213,-2.9996,-3.4692,-3.8731,-4.2346,-4.5513,-4.7169,-4.9481,-5.3468,-5.5663,-5.6445,-5.5133,-5.6155,-5.7253,-5.8045,-5.8734,-5.9081,-5.9111,-6.0484,-6.1472,-6.182,-6.3288,-6.4163,-6.431,-6.431,-6.4237,-6.409,-6.3392,-6.2989,-6.2805,-6.2805,-6.3172,-6.3796,-6.3135,-6.3172,-6.3847,-6.361,-6.3306,-6.2965,-6.2333,-6.2089,-6.2012,-6.1127,-6.1243,-6.1743,-6.105,-6.0757,-6.0647,0.0,0.0,0.0,0.0,0.0,0.0,0.0,0.0,0.0,3.3366,3.4614,3.4951,3.3593,3.3834,3.4048,3.3997,3.3922,3.4349,3.5378,3.5052,3.5956,3.8467,3.9245,3.8959,3.7725,3.7456,3.6367,3.4414,3.4082,3.522,3.7566,3.8329,3.9866,4.1853,4.1538,4.1615,4.1997,4.0883,4.0664,4.1133,4.1504,4.1465,4.1211,4.1876,4.1621,4.1094,4.1094,3.7638,3.3044,3.3509,3.0205,2.5758,2.5758,2.5504,2.4547,2.1438,1.8314,1.5192,1.2277,1.0326,0.7821,0.252,-0.4407,-1.1143,0.0,-1.8325,-2.0388,-2.3142,-2.851,-3.3578,-3.6228,-4.073,-4.4861,-4.7405,-4.9529,-5.1599,-5.3832,-5.6185,-5.7253,-5.6335,-5.8309,-5.9422,-5.8964,-5.8937,-5.9068,-5.9113,-6.0023,-6.1141,-6.2558,-6.358,-6.442,-6.5154,-6.5191,-6.4824,-6.409,-6.398,-6.3576,-6.2805,-6.2805,-6.2879,-6.2952,-6.2842,-6.2879,-6.2928,-6.3102,-6.2965,-6.2628,-6.2247,-6.2089,-6.2012,-6.1127,-6.0858,-6.0935,-6.0819,-6.0533,-6.0161,0.0,0.0,0.0,0.0,0.0,0.0,0.0,0.0,0.0,0.0,3.5203,3.5755,3.5052,3.5203,3.5328,3.5328,3.4751,3.4977,3.6408,3.6282,3.7262,3.9722,4.0978,4.0668,3.8627,3.8618,3.7352,3.4707,3.4531,3.5277,3.6777,3.8005,3.9672,4.1431,4.1215,4.1749,4.2564,4.1092,4.0918,4.1562,4.1738,4.1699,4.1562,4.1738,4.1055,3.9868,3.8937,3.6129,0.0,3.1373,2.8688,2.5959,2.5959,2.5518,2.4442,2.1981,2.0379,1.7966,1.2172,1.0256,0.7832,-0.1142,-0.5503,-0.919,-1.5859,-1.7765,-1.9567,-2.4688,-2.9517,-3.39,-3.7421,-4.1322,-4.514,-4.8648,-4.9917,-5.1753,-5.5341,-5.6929,-5.7644,-5.7534,-5.8492,-5.8964,-5.8383,-5.7767,-5.7674,-5.8317,-5.9639,-6.0874,-6.2081,-6.3839,-6.5191,-6.5962,-6.5999,-6.5852,-6.5485,-6.4567,-6.3906,-6.3539,-6.3379,-6.3368,-6.3539,-6.3342,-6.2815,-6.2083,-6.2245,-6.1989,-6.143,-6.1364,-6.132,-6.132,-6.0935,-6.0622,-6.0391,-6.0391,-6.0283,-6.0074,0.0,0.0,0.0,0.0,0.0,0.0,0.0,0.0,0.0,0.0,3.5554,3.6207,3.6332,3.6358,3.6358,3.6358,3.5504,3.5579,3.7086,3.7186,3.8191,4.0425,4.1957,4.1662,3.9221,3.9712,3.8466,3.541,3.541,3.5859,3.6719,3.8037,3.9404,4.0905,4.1028,4.1706,4.2583,4.1416,4.1308,4.1992,4.2109,4.2012,4.1777,4.1543,4.0124,3.8116,3.7015,3.4724,3.1911,2.9524,2.7144,2.5384,2.5545,2.5211,2.4367,2.2606,2.1848,2.0002,1.2122,1.0216,0.7518,-0.4658,-0.7606,-0.9462,-1.6944,-1.8134,-1.9693,-2.6561,-3.0792,-3.4443,-3.808,-4.1757,-4.5514,-4.8841,-5.024,-5.2138,-5.6142,-5.6835,-5.7029,-5.7232,-5.6776,-5.6559,-5.6794,-5.6668,-5.6934,-5.7808,-5.9652,-6.1069,-6.1876,-6.4291,-6.5999,-6.6806,-6.6843,-6.6623,-6.6182,-6.5007,-6.42,-6.3723,-6.3511,-6.3501,-6.3723,-6.3252,-6.2392,-6.1238,-6.1422,-6.1014,-6.0292,-6.0659,-6.0781,-6.0781,-6.0781,-6.0508,-6.0103,-5.9946,-5.9823,-5.9696,0.0,0.0,0.0,0.0,0.0,0.0,0.0,0.0,0.0,0.0,0.0,0.0,0.0,3.6358,3.6358,3.6358,3.5855,3.6006,3.7111,3.7186,3.8191,4.0425,4.158,4.1499,4.0056,4.059,3.9773,3.7226,3.7226,3.7656,3.8496,3.8641,3.9131,4.0014,4.0273,4.0876,4.1327,4.1582,4.2012,4.2441,4.2871,4.2539,4.1699,4.0879,3.8803,3.6219,3.6454,3.3656,2.9639,2.8687,2.6387,2.3928,2.4502,2.485,2.4945,2.3814,2.2325,1.9646,1.2636,1.0326,0.6321,-0.8562,-1.2163,-1.3402,-1.9206,-2.0414,-2.209,-2.8392,-3.2647,-3.5929,-3.7645,-4.225,-4.6324,-4.8021,-5.0877,-5.3642,-5.562,-5.5411,-5.4992,-5.4729,-5.2723,-5.2068,0.0,-5.615,-5.7532,-5.7876,-6.0206,-6.1911,-6.2754,-6.5089,-6.6843,-6.7614,-6.765,-6.6916,-6.5375,-6.5301,-6.4457,-6.2842,-6.2842,-6.2842,-6.2805,-6.1998,-6.119,-6.043,-6.0561,-6.0184,-5.9496,-6.043,-6.0781,-6.0781,-6.0781,-6.0508,-6.0036,-5.9592,-5.9102,-5.8716,0.0,0.0,0.0,0.0,0.0,0.0,0.0,0.0,0.0,0.0,0.0,0.0,0.0,0.0,0.0,0.0,3.5855,3.6006,3.7111,3.7186,3.7593,3.8567,3.9867,3.9756,3.7946,3.8616,3.8333,3.6875,3.6875,3.7461,3.8574,3.8574,3.9199,4.0312,4.0469,4.0918,4.1601,4.1738,4.2051,4.2422,4.2285,4.2051,4.1641,4.0195,3.7587,3.4557,0.0,3.0243,2.7523,2.5164,2.3926,2.3474,2.346,2.3674,2.3403,2.0007,1.6768,1.363,1.1183,0.6951,0.1898,-0.3632,-0.8839,-1.3874,-1.8535,-1.9468,-2.1514,-2.8522,-3.1738,-3.388,-3.6163,-3.99,-4.3382,-4.5783,-4.8541,-5.1552,-5.4757,-5.5709,-5.5707,-5.4955,-5.4194,-5.3934,0.0,0.0,0.0,-5.7668,-5.9461,-6.1406,-6.3371,-6.5416,-6.688,-6.765,-6.7687,-6.743,-6.688,-6.6366,-6.5558,-6.4457,-6.3356,-6.2965,-6.3317,-6.3057,-6.2168,-6.0914,-6.1613,-6.1147,-5.9916,-6.0533,-6.0622,-6.0365,-6.0671,-6.0338,-5.9592,-5.9458,-5.9102,-5.8673,0.0,0.0,0.0,0.0,0.0,0.0,0.0,0.0,0.0,0.0,0.0,0.0,0.0,0.0,0.0,0.0,0.0,3.6132,3.6835,3.6649,3.67,3.7068,3.8076,3.7766,3.6241,3.7066,3.702,3.5976,3.5976,3.6543,3.7656,3.7656,3.8437,3.9844,3.998,4.0625,4.1582,4.1582,4.1738,4.1914,4.1172,4.0376,3.9261,3.741,3.4495,0.0,2.8705,2.6796,2.5056,2.2998,2.2752,2.3113,2.2806,2.2277,2.0996,1.7464,1.3866,1.0751,1.0531,0.5358,-0.0566,-0.2633,-0.8258,-1.4182,-1.8125,-1.8956,-2.0905,-2.7614,-2.951,-3.0705,-3.3493,-3.6457,-3.9627,-4.3381,-4.6283,-4.9606,-5.4168,-5.4568,-5.4485,-5.4689,-5.3989,-5.3583,-5.4008,-5.2534,0.0,-5.7229,-5.9633,-6.1687,-6.3435,-6.567,-6.7283,-6.8091,-6.7834,-6.7687,-6.7687,-6.688,-6.5962,-6.4861,-6.3466,-6.311,-6.3593,-6.2997,-6.2225,-6.1424,-6.1619,-6.1095,-6.0132,-6.0622,-6.0508,-6.0132,-6.0456,-6.0103,-5.9389,-5.9212,-5.8951,-5.8632,0.0,0.0,0.0,0.0,0.0,0.0,0.0,0.0,0.0,0.0,0.0,0.0,0.0,0.0,0.0,0.0,0.0,0.0,3.6358,3.5722,3.5413,3.5788,3.6002,3.5817,3.5008,3.5953,3.5951,3.4668,3.4668,3.5117,3.5996,3.5996,3.6875,3.8457,3.8867,3.9746,4.0937,4.0937,4.0937,4.0666,3.957,3.753,3.5121,3.3011,2.9986,2.6435,2.5181,2.3737,2.2418,2.2418,2.2592,2.2766,2.2485,2.046,1.7707,1.6114,1.3541,1.1163,1.0822,0.559,-0.0893,-0.5507,-1.0068,-1.4449,-1.8122,-1.8912,-2.0114,-2.5569,-2.623,-2.6775,-2.9669,-3.2327,-3.579,-4.0782,-4.4221,-4.8142,-5.3798,-5.2533,-5.1769,-5.3934,-5.2194,-5.1459,-5.3008,-5.3006,0.0,-5.6757,0.0,-6.2762,-6.2931,-6.6017,-6.8091,-6.8898,-6.8164,-6.776,-6.776,-6.688,-6.5668,-6.4127,-6.3246,-6.311,-6.3556,-6.1991,-6.1537,-6.1876,-6.0753,-6.0208,-6.0161,-6.0597,-6.0482,-6.0074,-6.0074,-5.9792,-5.9319,-5.8874,-5.8713,-5.8632,0.0,0.0,0.0,0.0,0.0,0.0,0.0,0.0,0.0,0.0,0.0,0.0,0.0,0.0,0.0,0.0,0.0,0.0,3.6358,3.6173,3.5211,3.332,3.4229,3.3892,3.2036,3.3214,3.3961,3.4238,3.4238,3.4687,3.5547,3.5547,3.5957,3.668,3.6777,3.7207,3.7812,3.7812,3.7057,3.6118,3.6997,3.5433,3.2624,3.2248,3.0004,2.6771,2.5381,2.3923,2.2418,2.2418,2.2418,2.2508,2.2731,1.9906,1.5941,1.3136,1.1917,1.1234,1.1149,0.7599,0.2295,-0.4907,-1.0051,-1.4091,-1.6457,-1.6886,-1.7702,-2.1298,-2.2565,-2.3666,-2.5927,-2.9906,-3.4508,-3.9443,-4.4091,-4.8672,-5.3458,-5.3979,-5.4316,-5.5464,-5.5083,-5.5061,-5.5761,-5.6754,-5.7867,0.0,-6.0669,-6.2357,-6.4326,-6.7085,-6.8678,-6.8898,-6.8715,-6.8605,-6.8605,-6.6623,-6.5411,-6.4971,-6.3503,-6.311,-6.3593,-6.3566,-6.316,-6.2427,-6.2459,-6.1774,-6.0622,-6.0365,-5.9977,-5.9559,-5.9559,-5.9284,-5.8874,-5.8716,-5.8713,-5.8632,0.0,0.0,0.0,0.0,0.0,0.0,0.0,0.0,0.0,0.0,0.0,0.0,0.0,0.0,0.0,0.0,0.0,0.0,0.0,3.5858,3.4557,3.2431,3.2805,3.2196,3.0427,3.1387,3.2285,3.2949,3.2773,3.3125,3.3984,3.3789,3.4121,3.4883,3.5078,3.5508,3.6113,3.6113,3.5002,0.0,0.0,3.1926,2.8802,2.8677,2.7051,2.4833,2.418,2.3342,2.2566,2.2217,2.2138,2.2058,2.0743,1.8562,1.5663,1.2219,1.1173,1.1279,1.0981,0.9584,0.578,-0.4248,-0.9942,-1.3732,-1.5401,-1.5675,-1.6084,-1.82,-1.941,-2.0828,-2.3154,-2.7962,-3.3276,-3.8492,-4.3369,-4.8068,-5.279,-5.3492,-5.4316,-5.6301,-5.6619,-5.6956,-5.7707,-5.9133,-6.0182,-6.0588,-6.1674,-6.3228,-6.5424,-6.7701,-6.9082,-6.9412,-6.9082,-6.8752,-6.8385,-6.6696,-6.5668,-6.5301,-6.4205,-6.3788,-6.3937,-6.4103,-6.3905,-6.3455,0.0,-6.2243,-6.1296,-6.0464,-5.9823,-5.9389,-5.9176,-5.8951,-5.8673,-5.8461,-5.8508,-5.8632,0.0,0.0,0.0,0.0,0.0,0.0,0.0,0.0,0.0,0.0,0.0,0.0,0.0,0.0,0.0,0.0,0.0,0.0,0.0,0.0,3.4068,3.2632,3.2144,3.1257,2.9885,3.0545,3.1074,3.1426,3.1074,3.1269,3.1992,3.1601,3.2031,3.3105,3.3476,3.4082,3.4785,3.4785,3.3614,3.1702,3.0701,2.8145,2.5166,0.0,2.3392,2.2418,2.2418,2.2526,2.2619,2.1949,2.1771,2.117,1.8118,1.6708,1.5471,1.2344,1.0871,1.0452,1.0753,1.1253,0.8773,-0.369,-0.9913,-1.3241,-1.4541,-1.4629,-1.4523,-1.541,-1.6631,-1.8288,-2.0974,-2.6244,-3.1961,-3.7593,-4.2195,-4.6748,-5.1846,-5.1996,-5.2972,-5.6825,-5.7265,-5.7813,-5.9287,-6.0757,-6.167,-6.1873,-6.3415,-6.4822,-6.5955,-6.7883,-6.9229,-6.9926,-6.9265,-6.8495,-6.7687,-6.688,-6.6109,-6.5301,-6.489,-6.4593,-6.4407,-6.404,-6.4144,-6.4512,-6.3051,-6.2257,-6.1901,-6.0685,-5.9836,-5.9248,-5.8796,-5.8591,-5.8549,-5.8142,-5.8238,-5.8549,0.0,0.0,0.0,0.0,0.0,0.0,0.0,0.0,0.0,0.0,0.0,0.0,0.0,0.0,0.0,0.0,0.0,0.0,0.0,0.0,0.0,3.4068,3.3501,3.2641,3.1257,3.0983,3.0918,3.0996,3.0918,3.0976,3.1113,3.1035,3.1113,3.1328,3.1406,3.1523,3.168,3.168,3.0622,2.904,2.9288,2.7395,2.4635,2.48,0.0,0.0,2.2418,2.2257,2.1857,2.1958,2.0472,1.827,1.6985,1.4664,1.2496,1.2257,0.9542,0.7183,1.0447,1.1867,0.9224,-0.3564,-0.9741,-1.2599,-1.2581,-1.2344,-1.1803,-1.1408,-1.343,-1.62,-1.911,-2.474,-3.0831,-3.635,-4.053,-4.4927,-4.9999,-5.0613,-5.2317,-5.7005,-5.7634,-5.8801,-6.1548,-6.2618,-6.3632,0.0,-6.6063,-6.6274,-6.5247,-6.7593,-6.8972,-6.9119,-6.8972,-6.8495,-6.7687,-6.688,-6.6109,-6.5301,-6.4559,-6.427,-6.437,-6.433,-6.4432,-6.4589,-6.4282,0.0,-6.1449,-6.0861,-5.9888,-5.8756,-5.8326,-5.8142,-5.8097,-5.8042,-5.8088,-5.8097,0.0,0.0,0.0,0.0,0.0,0.0,0.0,0.0,0.0,0.0,0.0,0.0,0.0,0.0,0.0,0.0,0.0,0.0,0.0,0.0,0.0,0.0,0.0,0.0,3.2049,3.1311,3.0996,3.1211,0.0,3.0996,3.1211,3.0996,3.0898,3.0898,3.0898,3.0898,3.0898,3.0898,2.9747,2.7997,2.8175,2.6068,2.2694,0.0,0.0,0.0,2.2338,2.2359,2.2011,2.0078,1.7296,1.4529,1.4373,1.3436,1.2115,1.0873,0.677,0.2967,0.4952,0.2082,-0.2268,-0.5859,-0.9569,-1.2416,-1.1878,-1.1423,-1.1135,-1.1404,-1.3286,-1.6057,-1.9836,-2.5138,-3.0253,-3.4705,-3.8414,-4.256,-4.7589,-4.8661,-5.0971,-5.6182,-5.7176,-5.8486,-6.1201,-6.2515,-6.3567,-6.4431,-6.6167,-6.6843,-6.6108,-6.6946,-6.774,-6.8226,-6.7825,-6.7631,-6.7687,-6.732,-6.6733,-6.5925,-6.5804,-6.568,-6.5615,-6.5459,-6.5422,-6.5446,-6.4134,0.0,-6.1548,-6.0227,-5.9287,-5.8673,-5.815,-5.7997,-5.7997,-5.7997,-5.7997,-5.795,0.0,0.0,0.0,0.0,0.0,0.0,0.0,0.0,0.0,0.0,0.0,0.0,0.0,0.0,0.0,0.0,0.0,0.0,0.0,0.0,0.0,0.0,0.0,0.0,0.0,0.0,0.0,3.182,3.1152,0.0,0.0,0.0,0.0,0.0,3.0898,3.0898,3.0898,3.0898,2.9846,0.0,0.0,2.6311,0.0,0.0,0.0,0.0,0.0,2.2285,2.2046,1.9264,1.571,1.2814,1.3484,1.3854,1.3385,1.044,0.644,0.2547,0.0526,-0.6951,-1.328,-0.9252,-1.0715,-1.2876,-1.1864,-1.1448,-1.1504,-1.2407,-1.425,-1.688,-2.1205,-2.5769,-2.9904,-3.2994,-3.6235,-4.0012,-4.4952,-4.6583,-4.9498,-5.5502,-5.6528,-5.8022,-6.1183,-6.2273,-6.3212,-6.416,-6.5607,-6.665,-6.6895,-6.6286,-6.6251,-6.7024,-6.6632,-6.6736,-6.7433,-6.7633,-6.7283,-6.6476,-6.6877,-6.6859,-6.652,-6.6286,-6.6178,-6.6178,-6.3991,0.0,0.0,-6.0041,-5.9101,-5.8796,-5.8332,-5.8142,-5.8142,-5.8042,-5.7904,-5.7679,0.0,0.0,0.0,0.0,0.0,0.0,0.0,0.0,0.0,0.0,0.0,0.0,0.0,0.0,0.0,0.0,0.0,0.0,0.0,0.0,0.0,0.0,0.0,0.0,0.0,0.0,0.0,3.2913,3.1576,0.0,0.0,0.0,0.0,0.0,0.0,3.0898,3.0898,3.0898,0.0,0.0,0.0,0.0,0.0,0.0,0.0,0.0,0.0,2.1248,2.1309,2.1468,1.9082,1.6096,1.7296,1.7243,1.6181,1.3778,1.2932,1.1096,0.2305,-0.6988,-1.4196,-1.3333,-1.4346,-1.4788,-1.2402,-1.2474,-1.3085,-1.2952,-1.5299,-1.8409,-2.1773,-2.5891,-2.9411,-3.1695,-3.3959,-3.7271,-4.2286,-4.4562,-4.8545,-5.5859,-5.6333,-5.8228,-6.3732,-6.3415,-6.3809,-6.6323,-6.5474,-6.5225,-6.6142,-6.5499,-6.5171,-6.5237,-6.6002,-6.6464,-6.6523,-6.7286,-6.7283,-6.6512,-6.6528,-6.6267,-6.5689,-6.5653,-6.5775,-6.5884,-6.4847,0.0,0.0,-6.153,-6.0443,-5.9284,-5.8796,-5.8632,-5.8591,-5.8186,-5.7583,-5.6964,0.0,0.0,0.0,0.0,0.0,0.0,0.0,0.0,0.0,0.0,0.0,0.0,0.0,0.0,0.0,0.0,0.0,0.0,0.0,0.0,0.0,0.0,0.0,0.0,0.0,0.0,3.4403,3.4403,3.2985,0.0,0.0,0.0,0.0,0.0,0.0,3.0898,3.0898,3.0898,0.0,0.0,0.0,0.0,0.0,0.0,0.0,0.0,0.0,0.0,2.1089,2.1358,2.0492,1.9185,1.8619,1.8655,1.8114,1.5302,1.4209,1.242,0.5946,-0.2665,-1.1266,-1.6958,-1.6811,-1.5387,-1.5588,-1.5211,-1.5022,-1.5993,-1.789,-2.0429,-2.3603,-2.6325,-2.8971,-3.1366,-3.3028,-3.5526,-4.0207,-4.2355,-4.6038,-5.3161,-5.4112,-5.6526,-6.2297,-6.2842,-6.3909,-6.6627,-6.5831,-6.5413,-6.5868,-6.4324,-6.3719,-6.4218,-6.5101,-6.5842,-6.6404,-6.723,-6.754,-6.721,-6.721,-6.7025,-6.663,-6.6397,-6.6105,-6.565,-6.4067,0.0,0.0,-6.0619,-5.9549,-5.8549,-5.8673,-5.8508,-5.8194,-5.7594,-5.7116,-5.6757,0.0,0.0,0.0,0.0,0.0,0.0,0.0,0.0,0.0,0.0,0.0,0.0,0.0,0.0,0.0,0.0,0.0,0.0,0.0,0.0,0.0,0.0,0.0,0.0,0.0,0.0,3.5945,3.5945,3.4515,3.3529,0.0,0.0,3.148,3.0898,0.0,0.0,0.0,0.0,0.0,0.0,0.0,0.0,0.0,0.0,0.0,0.0,0.0,0.0,0.0,0.0,0.0,2.0759,1.9148,1.9029,1.8902,1.6444,1.5318,1.3605,0.8565,0.0526,-0.8546,-1.7023,-1.713,-1.5455,-1.6768,-1.6392,-1.6435,-1.8584,-2.0407,-2.2471,-2.5572,-2.7417,-2.9241,-3.1615,-3.2881,-3.4919,-3.8894,-4.1544,-4.5165,-5.0573,-5.2398,-5.5336,-6.0877,-6.2941,-6.4753,-6.666,-6.6102,-6.5696,-6.5696,-6.3802,-6.2999,-6.3583,-6.4532,-6.5361,-6.5966,-6.7174,-6.7687,-6.7687,-6.7687,-6.7428,-6.6909,-6.6673,-6.6099,-6.5162,-6.3346,0.0,0.0,-6.0068,-5.9139,-5.8418,-5.8632,-5.8614,-5.8473,-5.7543,-5.7081,-5.6761,0.0,0.0,0.0,0.0,0.0,0.0,0.0,0.0,0.0,0.0,0.0,0.0,0.0,0.0,0.0,0.0,0.0,0.0,0.0,0.0,0.0,0.0,0.0,0.0,0.0,0.0,0.0,3.7477,3.6054,3.4515,3.3077,3.3544,3.2768,3.0898,0.0,0.0,0.0,0.0,0.0,0.0,0.0,0.0,0.0,0.0,0.0,0.0,0.0,0.0,0.0,0.0,0.0,0.0,0.0,1.8512,1.8335,1.7144,1.7321,1.6394,0.9004,0.1206,-0.6393,-1.2759,-1.4795,-1.504,-1.501,-1.5365,-1.6797,-2.0206,-2.2281,-2.4361,-2.7776,-2.9408,-3.0631,-3.2142,-3.3668,-3.5641,-3.8291,-4.2992,-4.6881,-4.8982,-5.1608,-5.5274,-6.0307,-6.4405,-6.6812,-6.6812,-6.6102,0.0,-6.5696,-6.4309,-6.3497,-6.3497,-6.4497,-6.4999,-6.4999,-6.6816,-6.7687,-6.7687,-6.7687,-6.7133,-6.6007,-6.6015,-6.5427,-6.4332,0.0,0.0,0.0,-6.057,-5.9823,-5.9319,-5.8874,-5.9197,-5.9738,-5.8455,-5.7512,-5.6905,0.0,0.0,0.0,0.0,0.0,0.0,0.0,0.0,0.0,0.0,0.0,0.0,0.0,0.0,0.0,0.0,0.0,0.0,0.0,0.0,0.0,0.0,0.0,0.0,0.0,0.0,0.0,0.0,3.7477,3.6054,3.4515,3.2692,3.1526,3.0898,3.0898,3.0898,0.0,0.0,0.0,0.0,0.0,0.0,0.0,0.0,0.0,0.0,0.0,0.0,0.0,0.0,0.0,0.0,0.0,0.0,0.0,1.5538,1.5689,1.587,1.2603,0.3365,-0.6516,-1.169,-1.4702,-1.6644,-1.8286,-1.9025,-2.0043,-2.2284,-2.4117,-2.5813,-2.8033,-2.9653,-3.1106,-3.2642,-3.4454,-3.6477,-3.8893,-4.3294,-4.7465,-5.0785,-5.6683,-6.1422,0.0,0.0,-6.6812,-6.6812,-6.6576,-6.644,-6.644,-6.5053,-6.4038,-6.3531,-6.4497,-6.4999,-6.4999,-6.6816,-6.7687,-6.7687,-6.7687,-6.6912,-6.5533,-6.5821,-6.521,0.0,0.0,0.0,0.0,-6.0141,-5.9139,-5.8461,-5.8632,-5.8363,-5.7704,-5.6743,-5.6258,-5.6001,0.0,0.0,0.0,0.0,0.0,0.0,0.0,0.0,0.0,0.0,0.0,0.0,0.0,0.0,0.0,0.0,0.0,0.0,0.0,0.0,0.0,0.0,0.0,0.0,0.0,0.0,0.0,0.0,0.0,0.0,3.5288,3.2992,3.1613,3.0898,3.0898,3.0898,0.0,0.0,0.0,0.0,0.0,0.0,2.7252,0.0,0.0,0.0,0.0,0.0,0.0,0.0,0.0,0.0,0.0,0.0,0.0,0.0,1.0419,0.9677,0.879,0.2906,-0.467,-1.1824,-1.4678,-1.6545,-1.9345,-2.0567,-2.1909,-2.4715,-2.6644,-2.8217,-2.9925,-3.1476,-3.2644,-3.3077,-3.5352,-3.7575,-3.9193,-4.4125,-4.9391,-5.4151,-5.9664,0.0,0.0,-6.6034,-6.6812,-6.6812,-6.6812,-6.6812,-6.6812,-6.5392,-6.441,-6.3937,-6.4286,-6.4716,-6.4999,-6.6525,-6.7393,-6.7687,-6.7393,-6.6549,-6.5301,-6.5263,-6.4567,0.0,0.0,0.0,0.0,-6.0112,-5.9305,-5.8841,-5.8252,-5.7946,-5.7673,-5.6551,-5.6152,-5.6141,0.0,0.0,0.0,0.0,0.0,0.0,0.0,0.0,0.0,0.0,0.0,0.0,0.0,0.0,0.0,0.0,0.0,0.0,0.0,0.0,0.0,0.0,0.0,0.0,0.0,0.0,0.0,3.9697,3.9697,3.8243,3.5398,0.0,3.2784,3.084,3.0879,3.0918,3.0528,2.3897,2.1103,2.1575,2.7661,2.6523,0.0,0.0,0.0,0.0,0.0,0.0,0.0,0.0,0.0,0.0,0.0,0.0,0.0,0.0,0.0,0.0,0.0,-0.0446,-0.2302,-1.2789,-1.4906,-1.5343,-1.855,-2.0347,0.0,-2.714,-2.9325,-3.0895,-3.2602,-3.4181,-3.4825,-3.3304,-3.6167,-3.8692,-3.9397,-4.5561,-5.2186,-5.827,-6.0736,0.0,-6.3256,-6.5377,-6.6745,-6.6812,-6.6711,-6.6677,-6.6745,-6.5324,-6.4512,-6.4444,-6.3973,-6.4084,-6.4928,-6.5981,-6.688,-6.7614,-6.6916,-6.6145,-6.5264,-6.453,-6.3686,0.0,0.0,0.0,0.0,-6.0388,-6.0034,-6.0018,-5.7891,-5.7906,-5.8951,-5.7394,-5.6829,-5.6974,0.0,0.0,0.0,0.0,0.0,0.0,0.0,0.0,0.0,0.0,0.0,0.0,0.0,0.0,0.0,0.0,0.0,0.0,0.0,0.0,0.0,0.0,0.0,0.0,0.0,0.0,0.0,3.9697,3.9697,3.8792,3.6918,3.4843,0.0,0.0,3.0839,3.0936,3.0426,2.392,2.106,2.1204,2.1821,2.168,0.0,0.0,0.0,0.0,2.1155,2.0195,0.0,0.0,0.0,0.0,0.0,0.0,0.0,0.0,-0.6965,0.0,-1.1829,0.0,-1.1221,-1.3763,-1.6037,-1.7686,0.0,-2.0975,-2.3653,-2.6056,-2.7758,-2.9474,-3.1073,-3.3423,-3.467,-3.3261,-3.6554,-3.9601,-4.0681,-4.7559,-5.4052,-5.8432,-6.1181,-6.2646,-6.2264,-6.4505,-6.6203,-6.6779,-6.5764,-6.5358,-6.5933,-6.458,-6.3497,-6.2922,-6.2892,-6.3271,-6.4049,-6.567,-6.6586,-6.6769,-6.721,-6.6659,-6.5301,-6.5118,-6.4237,0.0,0.0,0.0,-6.0639,-6.0378,-5.9603,-5.8601,-5.8661,-5.8146,-5.7332,-5.6987,-5.6812,-5.6913,0.0,0.0,0.0,0.0,0.0,0.0,0.0,0.0,0.0,0.0,0.0,0.0,0.0,0.0,0.0,0.0,0.0,0.0,0.0,0.0,0.0,0.0,0.0,0.0,0.0,0.0,0.0,0.0,0.0,3.8921,0.0,0.0,0.0,0.0,3.0915,3.0917,3.0426,2.394,2.0766,2.0372,2.0211,0.0,0.0,0.0,0.0,0.0,2.0157,1.9291,0.0,1.8007,1.6326,1.4077,0.0,0.0,0.0,0.0,-1.3626,0.0,-1.6236,-1.5793,-1.5773,-1.6114,-1.7378,-1.8768,-1.9546,-2.2298,-2.513,-2.6644,-2.8928,-3.0878,-3.1747,-3.4031,-3.5404,-3.414,-3.7388,-4.1497,-4.5531,-5.0336,-5.5113,-5.9564,-6.1643,-6.287,0.0,-6.4439,-6.5493,-6.6237,-6.5256,-6.4783,-6.5155,-6.414,-6.3159,-6.2415,-6.2544,-6.2811,-6.33,-6.4654,-6.5778,-6.6512,-6.6182,-6.5778,-6.5264,-6.4494,-6.3686,0.0,0.0,0.0,-6.0885,-6.0149,-5.9538,-5.9042,-5.8374,-5.779,-5.7313,-5.6984,-5.7019,-5.7408,0.0,0.0,0.0,0.0,0.0,0.0,0.0,0.0,0.0,0.0,0.0,0.0,0.0,0.0,0.0,0.0,0.0,0.0,0.0,0.0,0.0,0.0,0.0,0.0,0.0,0.0,0.0,0.0,0.0,0.0,0.0,0.0,3.3763,0.0,3.0954,3.0937,3.042,2.3731,2.0389,1.9794,2.0704,0.0,0.0,0.0,0.0,0.0,0.0,0.0,0.0,1.5231,1.4086,1.2881,0.875,0.0,0.0,0.0,0.0,0.0,-1.7228,-1.8136,-1.8618,-1.9127,-1.9472,-2.0118,-2.1797,-2.4501,-2.7022,-2.8027,-3.0664,-3.2851,-3.3077,-3.5318,-3.673,-3.5818,-3.9399,-4.4499,-5.1086,-5.3597,-5.6195,-6.0446,-6.19,0.0,-6.4057,-6.4287,-6.4749,-6.5459,-6.4749,-6.4309,-6.4444,-6.3734,-6.2956,-6.2076,-6.2405,-6.2493,-6.2344,-6.3511,-6.4787,-6.6109,-6.5007,-6.4677,-6.5081,-6.3796,-6.3062,-6.2768,0.0,0.0,-6.1471,-5.9994,-5.9691,-6.0008,-5.8,-5.7586,-5.8116,-5.7566,-5.7722,-5.8355,0.0,0.0,0.0,0.0,0.0,0.0,0.0,0.0,0.0,0.0,0.0,0.0,0.0,0.0,0.0,0.0,0.0,0.0,0.0,0.0,0.0,0.0,0.0,0.0,0.0,0.0,0.0,0.0,0.0,0.0,3.9258,3.6619,3.3711,3.0897,3.0859,3.0957,3.042,2.2916,2.0174,2.0792,2.0997,0.0,0.0,0.0,0.0,0.0,0.0,0.0,0.0,1.5429,1.3643,0.9029,-0.349,0.0,0.0,0.0,0.0,0.0,-1.8173,-2.0436,-2.2659,-2.2566,-2.3535,-2.5076,-2.6782,-2.86,-2.9615,-2.861,-2.9865,-3.1652,-3.2851,-3.6186,-3.8686,-3.8679,-4.4429,-4.9833,-5.2645,0.0,-5.8696,-5.784,0.0,-6.2822,-6.0687,-6.2427,-6.3971,-6.4715,-6.3497,-6.299,-6.3666,-6.2956,-6.1907,-6.0486,-6.1847,-6.1997,-6.0786,-6.3003,-6.42,-6.4457,-6.5595,-6.5485,-6.431,-6.4714,-6.4163,-6.2805,0.0,-6.2218,-6.1508,-6.0663,-5.9973,-5.9348,-5.9062,-5.8894,-5.8919,-5.9493,-5.9795,-6.0095,0.0,0.0,0.0,0.0,0.0,0.0,0.0,0.0,0.0,0.0,0.0,0.0,0.0,0.0,0.0,0.0,0.0,0.0,0.0,0.0,0.0,0.0,0.0,0.0,0.0,0.0,0.0,0.0,0.0,3.9697,3.9594,3.6727,3.3754,3.0898,3.0898,3.084,3.0702,2.7175,2.3885,2.1067,0.0,0.0,0.0,0.0,0.0,0.0,0.0,0.0,0.0,0.0,1.0385,0.8231,-0.6191,0.0,0.0,0.0,0.0,0.0,-1.9571,-2.1699,-2.4024,-2.5512,-2.6474,-2.741,-2.87,-3.0937,-3.2567,-3.1912,-3.3744,-3.554,-3.6209,-3.8778,-4.1786,-4.4412,-4.875,-5.2752,-5.5367,-5.6769,-5.8101,0.0,0.0,-6.1683,-6.133,-6.2245,-6.3226,-6.3971,-6.299,0.0,-6.2888,-6.2212,-6.1264,-6.0148,-6.0941,-6.1043,-6.0432,-6.1986,-6.3209,-6.409,-6.4383,-6.4347,-6.409,-6.4016,-6.3539,-6.2805,0.0,-6.1469,-6.0347,-5.9957,-5.9371,-5.8638,-5.9018,-5.9418,-5.9833,-6.1085,-6.1809,-6.2527,0.0,0.0,0.0,0.0,0.0,0.0,0.0,0.0,0.0,0.0,0.0,0.0,0.0,0.0,0.0,0.0,0.0,0.0,0.0,0.0,0.0,0.0,0.0,0.0,0.0,0.0,3.9697,3.9697,3.9697,3.9515,3.8915,3.6441,3.369,3.0879,3.0917,3.0917,3.0762,2.9269,2.5676,2.1147,0.0,0.0,0.0,0.0,0.0,0.0,0.0,0.0,0.0,0.0,0.0,0.0,0.0,0.0,0.0,-1.6848,-1.7798,-1.8896,-2.0589,-2.2812,-2.5189,-2.741,-2.8392,-2.9212,-3.0764,-3.344,-3.554,-3.5654,-3.745,-3.9116,-3.9728,-4.1881,-4.494,-4.9262,-5.2293,-5.5092,-5.7702,-5.778,-5.8551,-6.1501,-6.126,-6.1391,-6.2529,-6.2508,-6.2618,-6.3193,-6.2719,0.0,-6.2144,-6.1603,-6.0757,-5.9607,-6.007,-6.0158,-5.9866,-6.0861,-6.2144,-6.3796,-6.3319,-6.3246,-6.3503,-6.3025,-6.2695,-6.2475,-6.1482,-6.0508,-5.9547,-5.9158,-5.8733,-5.8425,-5.9159,-6.0019,-6.0967,-6.2197,-6.3379,-6.4778,0.0,0.0,0.0,0.0,0.0,0.0,0.0,0.0,0.0,0.0,0.0,0.0,0.0,0.0,0.0,0.0,0.0,0.0,0.0,0.0,0.0,0.0,0.0,0.0,0.0,3.9697,3.9697,3.9697,3.9697,3.8753,3.6928,3.5762,3.3677,3.0879,3.0892,3.0932,3.049,2.4379,2.1526,2.1147,2.1159,0.0,0.0,0.0,0.0,0.0,0.0,0.0,0.0,0.0,0.0,0.0,0.0,0.0,-1.4585,-1.5684,-1.7216,-1.8896,-2.0589,-2.4454,-2.7783,-2.7526,-2.8909,-3.1301,-3.4862,-3.6887,-3.8132,-3.8609,-3.8455,-3.9055,-4.1563,-4.4761,-4.792,-5.0679,-5.4291,-5.7366,-5.8798,0.0,-6.31,-6.2673,-6.2966,-6.3012,-6.2505,-6.2448,-6.2415,-6.2482,-6.2415,0.0,-6.1434,-6.1332,-6.0283,-5.8118,-5.9513,-5.9663,-5.8273,-5.9771,-6.13,-6.2915,-6.3649,-6.3209,-6.1777,-6.2511,-6.2401,-6.1581,-6.0114,-5.9835,-6.0305,-5.8859,-5.8615,-5.9277,-6.0116,-6.1256,-6.2534,-6.2573,-6.4009,-6.6203,0.0,0.0,0.0,0.0,0.0,0.0,0.0,0.0,0.0,0.0,0.0,0.0,0.0,0.0,0.0,0.0,0.0,0.0,0.0,0.0,0.0,0.0,0.0,3.7864,3.8642,3.8994,3.9521,4.0199,4.0364,3.867,3.5553,3.7242,0.0,3.0912,3.0888,3.029,2.8918,2.264,2.0844,2.2112,2.0889,1.9627,0.0,0.0,0.0,0.0,0.0,0.0,0.0,0.0,0.119,-1.0812,-1.1732,-1.3979,-1.6436,-1.7238,-1.8768,-2.0195,-2.0982,-2.3885,-2.673,-2.6594,-2.9367,-3.3119,-3.6672,-3.9741,-4.211,-4.2683,-4.4273,-4.5711,-4.6317,-4.824,-5.052,-5.2688,-5.5047,-5.7129,-5.8913,-5.9726,-6.0633,-6.1928,-6.1501,-6.1193,-6.166,-6.1264,-6.096,-6.096,-6.096,0.0,-6.0554,-5.9674,-5.8795,-5.7915,-5.8049,-5.8107,-5.8096,-5.9103,-6.0236,-6.13,-6.163,-6.1484,-6.086,-6.119,-6.1153,-6.0823,-6.0249,-5.9605,-5.8969,-5.8879,-5.902,-5.947,-6.1204,-6.2197,-6.2803,-6.377,-6.5054,-6.6612,0.0,0.0,0.0,0.0,0.0,0.0,0.0,0.0,0.0,0.0,0.0,0.0,0.0,0.0,0.0,0.0,0.0,0.0,0.0,0.0,0.0,0.0,0.0,3.7186,3.7739,3.8316,3.9145,4.0249,4.0575,3.8793,3.4999,0.0,3.6544,3.0873,3.029,2.9447,2.8014,2.2713,2.17,2.3286,2.0976,1.893,0.0,0.0,0.0,0.0,0.0,0.0,0.0,0.0,-0.1698,-0.9769,-1.39,-1.6053,-1.7185,-1.8267,-2.0333,-2.2267,-2.1811,-2.468,-2.7712,-2.7169,-3.0469,-3.4668,-3.7786,-4.16,-4.4881,-4.5997,-4.8066,-4.9523,-4.889,-4.9897,-5.1439,-5.2995,-5.473,-5.6556,-5.8535,-5.8397,-5.8966,-6.1139,-6.039,-6.0011,-6.0849,-6.0419,-6.0114,-6.0114,-6.0114,0.0,0.0,-5.8558,-5.7679,-5.7205,-5.6934,-5.7034,-5.7352,-5.8304,-5.9098,-5.9648,-5.9648,-5.9795,-6.0015,-6.0015,-6.0015,-6.0015,-5.953,-5.8856,-5.8103,-5.8645,-5.9345,-6.0171,-6.1479,-6.2273,-6.293,-6.4224,-6.5497,-6.6707,0.0,0.0,0.0,0.0,0.0,0.0,0.0,0.0,0.0,0.0,0.0,0.0,0.0,0.0,0.0,0.0,0.0,0.0,0.0,0.0,0.0,0.0,0.0,3.6609,3.7161,3.7713,3.8567,3.9697,4.0401,3.8919,3.5351,3.8237,3.6455,3.084,2.9069,2.8314,2.8103,2.4465,2.3636,2.4662,2.1392,1.9063,1.7361,0.0,0.0,0.0,0.0,0.0,0.0,0.0,-0.7816,-0.6427,-1.2193,-1.49,-1.6302,-1.7988,-2.1589,-2.4579,-2.3293,-2.7401,-3.1588,-2.9695,-3.2301,-3.5976,-3.8564,-4.2265,-4.582,-4.8322,-4.8836,-4.8792,-4.8355,-4.9345,-5.0359,-5.1109,-5.3443,-5.5862,-5.7793,-5.8371,-5.9073,-6.0384,-6.0224,-6.008,-6.008,-6.008,-6.008,-6.008,-6.008,0.0,0.0,-5.8287,-5.7205,-5.5784,-5.6446,-5.6538,-5.5724,-5.7266,-5.7997,-5.7997,-5.7997,-5.8437,-5.9208,-5.9208,-5.9208,-5.9087,-5.7579,-5.7345,-5.8119,-5.8119,-5.951,-6.1508,-6.0719,-6.1386,-6.2888,-6.3691,-6.5039,-6.6589,0.0,0.0,0.0,0.0,0.0,0.0,0.0,0.0,0.0,0.0,0.0,0.0,0.0,0.0,0.0,0.0,0.0,0.0,0.0,0.0,0.0,0.0,0.0,0.0,0.0,0.0,3.803,3.8209,3.8067,3.668,0.0,3.3633,3.2601,3.0833,2.9067,2.8573,2.8607,2.4294,2.307,2.3796,1.965,1.6912,1.5308,0.0,0.0,0.0,0.0,0.0,0.0,0.0,0.0,0.0,-1.5286,-1.784,-1.9599,-2.0182,-2.2821,-2.5512,-2.5101,-2.7598,-3.0678,-3.1513,-3.4274,-3.7476,-3.9972,-4.1986,-4.4437,-4.8788,-4.9324,-4.905,-4.9379,-4.9386,-4.9764,-5.0981,-5.2276,-5.3488,-5.451,-5.5409,-5.6451,-5.7657,-5.797,-5.8397,-5.9261,-5.8863,-5.8558,-5.8558,-5.8558,0.0,0.0,-5.7036,-5.6156,-5.5716,-5.5889,-5.5936,-5.5724,-5.7266,-5.7997,-5.7997,-5.7997,-5.8107,-5.8364,-5.8364,-5.8364,-5.8327,-5.7883,-5.7788,-5.8081,-5.8628,-5.9274,-5.9968,-6.092,-6.1556,-6.2144,-6.3555,-6.4375,-6.4977,0.0,0.0,0.0,0.0,0.0,0.0,0.0,0.0,0.0,0.0,4.0284,0.0,0.0,0.0,0.0,0.0,0.0,0.0,0.0,0.0,0.0,0.0,0.0,0.0,0.0,3.7459,3.7784,0.0,0.0,0.0,3.2408,3.1407,3.1289,3.1812,3.0449,2.9715,2.9303,2.5656,2.4154,2.3569,1.87,1.6176,1.5403,0.0,0.0,0.0,0.0,0.0,0.0,0.0,0.0,0.0,-1.6631,-1.8435,-2.008,-2.2423,-2.4432,-2.6299,-2.7097,-2.9106,-3.1537,-3.3289,-3.5046,-3.7121,-3.996,-4.278,-4.6169,-5.0729,-5.0388,-4.9651,-5.065,-5.0106,-4.9897,-5.0981,-5.1768,-5.2426,-5.3084,-5.436,-5.5411,-5.6198,-5.6741,-5.7306,-5.8045,-5.7712,-5.7442,-5.7442,-5.7442,0.0,0.0,-5.6055,-5.5277,-5.5277,-5.523,-5.5121,-5.4805,-5.6644,-5.7255,-5.6682,-5.7574,-5.7813,-5.7519,-5.785,-5.7997,-5.7997,-5.7997,-5.7997,-5.8033,-5.851,-5.8914,-5.9355,-6.0639,-6.13,-6.1777,-6.3466,-6.409,-6.4192,0.0,0.0,0.0,0.0,0.0,0.0,0.0,0.0,0.0,0.0,3.998,0.0,0.0,0.0,0.0,0.0,0.0,0.0,0.0,0.0,0.0,0.0,0.0,0.0,0.0,0.0,0.0,0.0,0.0,0.0,3.0849,3.1074,3.1959,3.3313,3.2455,3.1328,3.0081,2.7858,2.5863,2.391,1.8601,1.6563,1.642,1.4801,0.0,0.0,0.0,0.0,0.0,0.0,0.0,0.0,-1.6588,-1.7553,-1.8903,-2.4086,-2.598,-2.6884,-2.8836,-3.1317,-3.3617,-3.494,-3.5201,-3.6024,-3.9228,-4.4256,-4.919,-5.2452,-5.1213,-5.0096,-5.172,-5.0926,-5.0206,-5.096,-5.1528,-5.2127,-5.2918,-5.4376,-5.5357,-5.5441,-5.6183,-5.6697,-5.6697,-5.6697,-5.6697,-5.6697,-5.6697,0.0,-5.6697,-5.5344,-5.46,-5.46,-5.4544,-5.4156,-5.3498,-5.5615,-5.5974,-5.4616,-5.6765,-5.7409,-5.6712,-5.7593,-5.7997,-5.7997,-5.8042,-5.8042,-5.7997,-5.8042,-5.8483,-5.9171,-5.9979,-6.0786,-6.1667,-6.3282,-6.3906,-6.3957,0.0,0.0,0.0,0.0,0.0,0.0,0.0,0.0,0.0,0.0,0.0,0.0,0.0,0.0,0.0,0.0,0.0,0.0,0.0,0.0,0.0,0.0,0.0,0.0,0.0,0.0,0.0,0.0,0.0,3.63,3.0963,3.2206,3.3105,3.3292,3.182,3.1344,3.1466,2.7875,2.5642,2.4351,2.0711,1.7602,1.4739,1.1921,1.039,0.0,0.0,0.0,0.0,0.0,0.0,0.0,-1.6226,-1.8469,-2.0539,-2.1796,-2.5299,-2.8897,-2.8804,-3.1864,-3.5306,-3.6208,-3.7903,-3.9635,-4.1272,-4.315,-4.5088,-4.6873,-4.7521,-4.8267,-5.0253,-4.9427,-4.8698,-4.955,-4.9793,-5.0276,-5.123,-5.2335,-5.3472,-5.426,-5.5302,-5.5953,-5.5953,-5.5953,-5.5953,-5.5953,0.0,0.0,-5.5953,-5.5074,-5.46,-5.46,-5.4029,-5.3636,-5.3463,-5.4545,-5.4941,0.0,-5.5633,-5.6014,-5.5904,-5.7336,-5.7997,-5.8042,-5.8375,-5.8369,-5.8042,-5.8375,-5.84,-5.8327,-5.9134,-5.9942,-6.0786,-6.1777,-6.2548,-6.3079,0.0,0.0,0.0,0.0,0.0,0.0,0.0,0.0,0.0,0.0,0.0,0.0,0.0,0.0,0.0,0.0,0.0,0.0,0.0,0.0,0.0,0.0,0.0,0.0,0.0,0.0,0.0,0.0,0.0,3.2659,2.9741,3.1397,3.225,3.2175,3.2197,3.1936,3.1486,3.0157,2.775,2.4499,2.1761,1.9479,1.7143,1.1773,0.7841,0.3951,-0.4435,0.0,0.0,0.0,0.0,0.0,0.0,0.0,-2.108,-2.108,-2.5374,-2.9986,-2.8757,-3.1464,-3.4993,-3.6137,-3.775,-3.9251,-3.9815,-4.0308,-4.1183,-4.3103,-4.5524,-4.7738,-4.9426,-4.9182,-4.8757,-4.9224,-4.9672,-5.0227,-5.0684,-5.2235,-5.3421,-5.3954,-5.4711,-5.5175,-5.5175,-5.5175,-5.5175,-5.5175,0.0,-5.5175,-5.5175,-5.4465,-5.4059,-5.4059,-5.3335,-5.2803,-5.2426,-5.347,-5.3647,-5.2931,-5.4729,-5.5574,-5.5611,-5.6455,-5.6956,-5.718,-5.7847,-5.8077,-5.8114,-5.8764,-5.8756,-5.8443,-5.9213,-5.9624,-5.9979,-6.1153,-6.1615,-6.1785,0.0,0.0,0.0,0.0,0.0,0.0,0.0,0.0,0.0,0.0,0.0,0.0,0.0,0.0,0.0,0.0,0.0,0.0,0.0,0.0,0.0,0.0,0.0,0.0,0.0,0.0,0.0,0.0,3.0969,2.8321,2.8385,3.0078,3.0858,3.0956,3.2535,3.2374,3.1023,3.2435,2.9431,2.3664,2.1589,2.0146,1.8398,1.0904,0.4677,-0.0369,-0.3687,-0.7025,-1.0155,-1.263,0.0,0.0,0.0,0.0,-2.1369,-2.2465,-2.6603,-3.0571,-2.9105,-3.1148,-3.42,-3.5938,-3.706,-3.7757,-3.7661,-3.7709,-3.8417,-4.0867,-4.422,-4.716,-4.8716,-4.8925,-4.8925,-4.8925,-4.9804,-5.0514,-5.0652,-5.2409,-5.37,-5.3923,-5.4213,-5.4397,-5.4397,-5.4397,-5.4328,-5.4157,0.0,-5.4087,-5.3844,-5.3274,-5.2905,-5.2771,-5.2,-5.1329,-5.0755,-5.208,-5.2218,-5.1138,-5.3899,-5.5214,-5.5264,-5.5264,-5.5628,-5.6253,-5.7117,-5.7714,-5.8148,-5.8967,-5.9063,-5.8788,-5.9417,-5.9486,-5.9391,-6.086,-6.1062,-6.0937,0.0,0.0,0.0,0.0,0.0,0.0,0.0,0.0,0.0,0.0,4.2071,0.0,0.0,0.0,0.0,0.0,0.0,0.0,0.0,0.0,0.0,0.0,0.0,0.0,0.0,0.0,0.0,0.0,3.0965,2.8291,2.8379,3.0067,3.0857,3.0928,3.1892,3.1812,3.0869,3.1152,2.6876,2.0026,1.9707,1.6342,1.0606,0.3899,0.0732,-0.0485,-0.3674,-0.7025,-1.0155,-1.2369,-1.1824,0.0,0.0,0.0,-2.223,-2.7922,-3.0206,-3.0819,-3.067,-3.2163,-3.4393,-3.7044,-3.8191,-3.8616,-3.8016,-3.829,-3.927,-4.1272,-4.2868,-4.4789,-4.7081,-4.7578,-4.7578,-4.7578,-4.8401,-4.9415,-5.0295,-5.1447,-5.2539,-5.3481,-5.3619,-5.3653,-5.3653,-5.3653,-5.3245,-5.2302,-5.2302,-5.1908,-5.1016,-5.0843,-5.0564,-4.995,-4.924,-4.8887,-4.906,-4.977,-5.05,-5.1086,-5.2727,-5.3695,-5.4055,-5.4055,-5.4837,-5.6254,-5.7181,-5.7763,-5.8144,-5.8646,-5.8816,-5.8713,-5.8825,-5.9011,-5.9318,-6.0236,-6.0921,-6.1689,0.0,0.0,0.0,0.0,0.0,0.0,0.0,0.0,0.0,0.0,0.0,4.2451,0.0,0.0,0.0,0.0,0.0,0.0,0.0,0.0,0.0,0.0,0.0,0.0,0.0,0.0,0.0,0.0,2.9456,2.8311,2.8301,2.9055,2.9414,2.9427,2.9892,3.0392,3.0636,2.6325,2.2452,1.9098,1.5099,1.182,0.8623,0.2404,-0.2299,-0.5686,-0.7079,-0.8581,-0.993,-1.0913,-1.0536,-1.1102,-1.8129,0.0,0.0,0.0,-2.8002,-3.0743,-2.9734,-3.0751,-3.27,-3.452,-3.5443,-3.586,-3.5278,-3.6146,-3.7442,-3.871,-4.1032,-4.3475,-4.5743,-4.6172,-4.6341,-4.6863,-4.8164,-4.9483,-5.0464,-5.147,-5.2268,-5.274,-5.2001,-5.1393,-5.1393,-5.0946,-5.049,-4.9953,-4.9953,-4.9733,-4.9288,-4.9288,-4.9128,-4.8881,-4.8134,-4.7858,-4.8067,-4.8703,-4.9679,-5.0941,-5.2017,-5.2739,-5.3125,-5.3859,-5.4698,-5.5643,-5.6568,-5.7156,-5.7565,-5.8745,-5.8851,-5.8427,-5.8878,-5.8855,-5.8694,-5.9942,-6.0322,-6.0674,0.0,0.0,0.0,0.0,0.0,0.0,0.0,0.0,0.0,0.0,0.0,0.0,0.0,0.0,0.0,0.0,0.0,0.0,0.0,0.0,0.0,0.0,0.0,0.0,0.0,0.0,0.0,2.8269,2.8261,2.8305,2.8301,2.8346,2.7474,2.6087,2.6065,2.6787,2.7555,2.1825,1.8313,1.6226,1.1062,0.8028,0.6198,0.175,-0.3065,-0.7498,-0.9168,-1.0808,-1.2046,-1.0354,-1.0861,-1.3233,-1.9221,-2.1122,0.0,0.0,0.0,-3.0084,-2.7822,-2.908,-3.1274,-3.2498,-3.3401,-3.4012,-3.3867,-3.5041,-3.6525,-3.7449,-4.0151,-4.2876,-4.4899,-4.5475,-4.5951,-4.692,-4.8402,-4.9645,-5.0112,-5.1057,-5.1564,-5.1362,-5.0215,-4.9436,-4.9436,-4.8763,-4.8253,-4.8063,-4.8063,-4.7913,-4.7612,-4.758,-4.7517,-4.7328,-4.6665,-4.6478,-4.6977,-4.8012,-4.9323,-5.0802,-5.1735,-5.2343,-5.2779,-5.4075,-5.4848,-5.5275,-5.5925,-5.6496,-5.7088,-5.8588,-5.8765,-5.8185,-5.905,-5.8984,-5.8474,-5.9869,-6.0259,-6.059,0.0,0.0,0.0,0.0,0.0,0.0,0.0,0.0,0.0,0.0,0.0,0.0,0.0,0.0,0.0,0.0,0.0,0.0,0.0,0.0,0.0,0.0,0.0,0.0,0.0,0.0,3.3719,2.8281,2.8278,2.8262,2.8301,2.8358,2.5318,1.9892,1.9818,1.9883,1.9998,1.9618,1.5605,0.9394,0.9099,0.5503,0.0438,0.011,-0.0222,-0.1351,-0.7575,-1.3663,-1.8015,-1.1825,-1.3864,-1.9148,-2.0645,-2.1159,-2.1053,0.0,0.0,0.0,-2.511,-2.7419,-3.1402,-3.3232,-3.4231,-3.4988,-3.6038,-3.7042,-3.8282,-3.9523,-4.1389,-4.3386,-4.4939,-4.5974,-4.692,-4.7882,-4.8972,-4.936,-4.857,-4.929,-4.9571,-4.8683,-4.8505,-4.8473,-4.8473,-4.84,-4.7988,-4.7029,-4.6952,-4.6511,-4.5522,-4.544,-4.5169,-4.4539,-4.3878,-4.4051,-4.5213,-4.758,-4.9446,-5.0802,-5.1973,-5.2813,-5.3201,-5.4496,-5.5262,-5.5682,-5.572,-5.6242,-5.7049,-5.7973,-5.8268,-5.8185,-5.905,-5.9281,-5.9245,-6.0089,-6.1325,-6.2865,0.0,0.0,0.0,0.0,0.0,0.0,0.0,0.0,0.0,0.0,0.0,0.0,0.0,0.0,0.0,0.0,0.0,0.0,0.0,0.0,0.0,0.0,0.0,0.0,0.0,3.2946,3.0242,2.8321,2.8298,2.8301,2.8301,2.8267,2.5078,1.9389,1.9456,1.7146,1.327,1.3202,0.9401,0.3179,0.3201,-0.0109,-0.4774,-0.1306,-0.4728,-1.1126,-0.9673,-1.0938,-1.3498,-1.5387,-1.8019,-2.0536,-2.0999,-2.1053,-2.1011,-2.0264,-2.4134,-2.8465,-2.7106,-2.799,-2.9259,-2.9372,-2.9971,-3.0686,-3.1096,-3.4173,-3.796,-4.1387,-4.3664,-4.5135,-4.5381,-4.5927,-4.6693,-4.7647,-4.7967,-4.8258,-4.8502,-4.8329,-4.8045,-4.7758,-4.6719,-4.6096,-4.6096,-4.5494,-4.4691,-4.3545,-4.3493,-4.3001,-4.1853,-4.1454,-4.1475,-4.193,-4.1892,-4.3145,-4.5681,-4.676,-4.7904,-4.9224,-5.0972,-5.2023,-5.2507,-5.4286,-5.5326,-5.5703,-5.5703,-5.5857,-5.6242,-5.7391,-5.7634,-5.7435,-5.854,-5.9069,-5.9318,-6.0126,-6.141,-6.3062,0.0,0.0,0.0,0.0,0.0,0.0,0.0,0.0,0.0,0.0,0.0,0.0,0.0,0.0,4.2693,0.0,0.0,0.0,0.0,0.0,0.0,0.0,0.0,0.0,0.0,3.0104,2.8277,2.8311,2.827,2.8349,2.8251,2.8314,2.5093,1.936,1.9435,1.5848,0.968,0.7448,0.4026,-0.0,-0.0,-0.3239,-0.7762,-0.5938,-0.9096,-1.3878,-1.017,-1.0467,-1.3499,-2.0831,-2.2266,-2.151,-2.3743,-2.2601,-2.04,-1.9604,-2.365,-2.8314,-2.83,-2.833,-2.8134,-2.7574,-2.7865,-2.8144,-2.7563,-3.2088,-3.7705,-4.2308,-4.4819,-4.619,-4.6025,-4.6442,-4.688,-4.727,-4.6979,-4.6799,-4.7104,-4.6384,-4.5674,-4.5342,-4.4304,-4.3639,-4.3639,-4.2689,-4.1821,-4.1035,0.0,0.0,-3.9363,-3.9313,-3.98,-4.0949,-4.1965,-4.3588,-4.577,-4.6411,-4.7263,-4.8306,-5.0259,-5.1474,-5.2054,-5.4013,-5.5216,-5.5703,-5.5703,-5.5703,-5.5797,-5.7238,-5.7481,-5.7062,-5.869,-5.9436,-5.9758,-6.0823,-6.2254,-6.3833,0.0,0.0,0.0,0.0,0.0,0.0,0.0,0.0,0.0,0.0,0.0,0.0,0.0,0.0,0.0,0.0,0.0,0.0,0.0,0.0,0.0,0.0,0.0,0.0,0.0,2.833,2.8311,2.8301,2.8301,2.8337,2.8271,2.8291,2.5092,1.9391,1.9348,1.5772,0.9367,0.2917,0.0116,-0.0227,-0.0107,-0.3321,-0.8749,-1.3984,-1.2763,-0.8459,-0.9022,-1.2927,-1.922,-2.794,-2.6596,-2.2429,-2.86,-2.539,-1.9364,-1.9357,-2.3677,-2.829,0.0,0.0,0.0,-2.8301,-2.8281,-2.7871,-2.6168,-3.1281,-3.7599,-4.2281,-4.4818,-4.6282,-4.6726,-4.7369,-4.7597,-4.6853,-4.5991,-4.5144,-4.4228,-4.3371,-4.2406,-4.1535,-4.1384,-4.1384,-4.1384,-4.0373,-3.9794,-3.9715,-3.8721,-3.8145,-3.8145,-3.9178,-4.0377,-4.1643,-4.399,-4.5171,-4.5233,-4.6702,-4.7752,-4.8343,-5.0076,-5.1269,-5.2084,-5.3743,-5.4972,-5.5703,-5.5703,-5.5703,-5.5857,-5.7566,-5.7745,-5.7133,-5.9583,-6.0472,-6.0603,-6.2181,-6.3833,-6.5411,0.0,0.0,0.0,0.0,0.0,0.0,0.0,0.0,0.0,0.0,0.0,0.0,4.4812,4.3927,4.282,0.0,0.0,0.0,0.0,0.0,0.0,0.0,0.0,0.0,0.0,2.8307,0.0,0.0,0.0,0.0,0.0,0.0,0.0,1.8144,1.8138,1.4751,0.903,0.7198,0.148,-0.607,-0.1731,-0.5505,-1.3953,-1.7238,-1.7489,-1.6214,-1.6445,-1.9491,-2.4081,-2.779,-2.7804,-2.5891,-2.3403,-2.109,-1.9372,-1.9415,-2.3677,-2.829,-2.8349,0.0,0.0,0.0,0.0,0.0,0.0,0.0,-3.5745,-4.2019,-4.3975,-4.5058,-4.6487,-4.6547,-4.5866,-4.4471,-4.4362,-4.4361,-4.4125,-4.2736,-4.173,-4.146,-4.1384,-4.1126,-4.0295,-3.9952,-3.9126,0.0,-3.7138,-3.6967,-3.6796,-3.8717,-4.0444,-4.1688,-4.3529,-4.502,-4.6055,-4.7537,-4.8587,-4.9224,-5.1191,-5.2348,-5.2923,-5.4291,-5.5231,-5.5703,-5.5703,-5.6049,-5.6681,-5.7111,-5.7138,-5.7027,-5.826,-5.9411,-6.0529,-6.1557,-6.3356,-6.5411,0.0,0.0,0.0,0.0,0.0,0.0,0.0,0.0,0.0,0.0,0.0,0.0,4.4128,4.3615,4.2799,0.0,0.0,0.0,0.0,0.0,0.0,0.0,0.0,0.0,0.0,0.0,0.0,0.0,0.0,0.0,0.0,0.0,0.0,1.7609,1.7592,1.4361,0.8893,0.868,0.0335,-1.2028,-0.6085,-0.8877,-1.6898,-1.983,-2.1428,-2.208,-2.2047,-2.3652,-2.5934,-2.7676,-2.8281,-2.7271,-2.1309,-1.9426,-1.9374,-1.936,-2.3595,-2.8358,-2.831,-2.827,-2.8259,-2.8259,0.0,0.0,-3.118,-3.3164,-3.6577,0.0,-4.5403,-4.5459,-4.6286,-4.5729,-4.4723,-4.3482,-4.2556,-4.2191,-4.2627,-4.1434,-4.0576,-4.0576,-4.0143,-3.966,-3.9015,-3.7947,-3.7013,-3.6439,-3.5752,-3.6004,-3.7421,-3.9476,-4.1292,-4.2687,-4.4313,-4.5699,-4.6896,-4.8012,-4.88,-4.9249,-5.0885,-5.1936,-5.2594,-5.3926,-5.4868,-5.5446,-5.5621,-5.6203,-5.7027,-5.713,-5.7262,-5.7551,-5.9017,-5.9923,-6.0566,-6.2071,-6.3759,-6.5411,0.0,0.0,0.0,0.0,0.0,0.0,0.0,0.0,0.0,0.0,0.0,4.3329,4.3329,4.3329,4.2754,0.0,0.0,0.0,0.0,0.0,0.0,0.0,0.0,0.0,0.0,0.0,0.0,0.0,0.0,0.0,0.0,0.0,0.0,0.0,0.0,1.379,0.8825,0.838,-0.1095,-1.5341,-1.1456,-1.2615,-1.7028,-2.0877,-2.3705,-2.573,-2.5665,-2.5685,-2.5885,-2.7481,-2.7994,-2.6971,-2.12,-1.9375,-1.9569,-2.0186,-2.4098,-2.8308,-2.8291,-2.8259,-2.8401,-2.9019,-2.9229,0.0,-3.6319,-3.7417,-3.9371,0.0,-4.7581,-4.6442,-4.5958,-4.5032,-4.4052,-4.299,-4.0769,-3.9556,-4.0523,-3.9748,-3.909,-3.9192,-3.8235,-3.7501,-3.7396,-3.5264,-3.4525,-3.594,-3.5162,-3.5955,-3.9234,-4.0981,-4.2626,-4.427,-4.568,-4.6813,-4.7568,-4.8268,-4.8697,-4.8841,-4.9945,-5.0941,-5.1761,-5.3239,-5.4329,-5.5134,-5.5531,-5.6242,-5.7181,-5.7545,-5.781,-5.8336,-6.0677,-6.1102,-6.0676,-6.3062,-6.4457,-6.5301,0.0,0.0,0.0,0.0,0.0,0.0,0.0,0.0,0.0,0.0,0.0,4.3329,4.3329,4.3329,4.3153,0.0,0.0,0.0,0.0,0.0,0.0,0.0,0.0,0.0,0.0,0.0,0.0,0.0,0.0,0.0,0.0,0.0,0.0,0.0,0.0,1.0,0.8911,0.8783,0.4016,-0.416,-1.2521,-1.381,-1.1052,-1.549,-2.0757,-2.5732,-2.5664,-2.5701,-2.5775,-2.6078,-2.6263,-2.5448,-2.0863,-1.9368,-2.0338,-2.518,-2.7378,-2.8291,-2.8288,-2.8252,-2.9318,-3.3763,-3.4831,0.0,-4.3627,-4.3473,-4.2854,0.0,-4.6294,-4.5624,-4.4753,-4.4512,-4.3425,-4.0393,-3.9817,-3.9956,-4.0615,-3.8473,-3.7175,-3.7994,-3.675,-3.5521,-3.4631,-3.4403,-3.4547,-3.5245,-3.7652,-3.9719,-4.1146,-4.2359,-4.3664,-4.5198,-4.61,-4.693,-4.7603,-4.899,-4.9614,-4.969,-5.1095,-5.2017,-5.2606,-5.3778,-5.4638,-5.5134,-5.5531,-5.6588,-5.805,-5.8135,-5.8148,-5.8226,-5.97,-6.0314,-6.0639,-6.2401,-6.3613,-6.453,0.0,0.0,0.0,0.0,0.0,0.0,0.0,0.0,0.0,0.0,0.0,4.331,4.3269,4.3339,4.3301,4.3313,0.0,0.0,0.0,0.0,0.0,0.0,0.0,0.0,0.0,0.0,0.0,0.0,0.0,0.0,0.0,0.0,0.0,0.0,1.0248,0.8886,0.8876,0.8859,0.3688,-0.4926,-1.0922,-1.3265,-1.3739,-1.789,-2.2031,-2.5614,-2.4716,-2.4985,-2.5714,-2.5701,-2.5686,-2.5321,-2.3212,-2.1108,-2.0437,-2.5555,-2.7587,-2.8278,-2.829,-2.8344,-2.9891,-3.6445,-3.9956,0.0,0.0,-4.6301,-4.5628,-4.6993,-4.6234,-4.5221,-4.4949,-4.3848,-4.2153,-3.9556,-3.8501,-3.8167,-3.8399,-3.7374,-3.6619,-3.6578,-3.5443,-3.4441,-3.4116,-3.4272,-3.5215,-3.7181,-4.0142,-4.2044,-4.2483,-4.3689,-4.4878,-4.5915,-4.6735,-4.7432,-4.8134,-4.8942,-4.9393,-4.9422,-5.054,-5.1372,-5.1979,-5.3347,-5.4237,-5.4857,-5.5907,-5.7088,-5.8319,-5.8742,-5.8987,-5.9203,-6.0379,-6.0804,-6.095,-6.2279,-6.3613,-6.4824,0.0,0.0,0.0,0.0,0.0,0.0,0.0,0.0,0.0,0.0,4.3419,4.3319,4.3271,4.3278,4.3313,4.3328,4.251,0.0,0.0,0.0,0.0,0.0,0.0,3.3889,0.0,0.0,0.0,0.0,0.0,0.0,0.0,0.0,0.0,0.0,0.7677,0.5339,0.2252,0.2281,-0.29,-1.1141,-1.1716,-1.4033,-1.7566,-2.054,-2.2574,-2.3727,-2.3224,-2.397,-2.5192,-2.5198,-2.5465,-2.5541,-2.4485,-2.1812,-1.9879,-2.4356,-2.6974,-2.8316,-2.8271,-2.8341,0.0,0.0,0.0,-4.7347,0.0,0.0,0.0,-4.789,0.0,0.0,0.0,0.0,0.0,0.0,0.0,0.0,0.0,-3.6035,0.0,-3.5182,-3.4231,-3.3806,-3.4066,-3.4854,-3.6652,-3.991,-4.2219,-4.3562,-4.3562,-4.4804,-4.58,-4.6365,-4.7223,-4.795,-4.865,-4.8812,-4.8905,-4.9018,-4.9664,-5.039,-5.1189,-5.2867,-5.4046,-5.485,-5.6524,-5.7742,-5.8588,-5.9134,-5.9766,-6.0425,-6.1417,-6.1503,-6.123,-6.2376,-6.3686,-6.4861,4.4822,4.5275,0.0,0.0,0.0,0.0,0.0,0.0,0.0,4.4349,4.3688,4.3307,4.3332,4.3337,4.3335,4.3277,3.9573,0.0,3.6102,0.0,0.0,0.0,0.0,0.0,2.8431,0.0,0.0,0.0,0.0,0.0,0.0,0.0,0.0,0.0,0.3374,-0.7522,-2.1742,-2.1746,-2.0719,-1.9345,-2.1705,-1.9987,0.0,-1.6518,-1.6747,-1.7462,-2.1572,-2.3271,-2.3447,0.0,-2.4463,-2.4881,0.0,-1.8144,-1.8861,-2.4127,-2.6956,-2.8316,-2.834,0.0,0.0,0.0,-4.3587,0.0,-4.727,0.0,-4.631,-4.6775,0.0,0.0,0.0,0.0,0.0,0.0,0.0,0.0,-3.2918,-3.3538,-3.4195,-3.3992,-3.3489,-3.3093,-3.3169,-3.6716,-3.9847,-4.1808,-4.348,-4.444,-4.444,-4.5108,-4.58,-4.6365,-4.7212,-4.8015,-4.8685,-4.8896,-4.8978,-4.9018,-4.9664,-5.039,-5.1189,-5.3497,-5.4943,-5.5643,-5.7404,-5.8627,-5.9335,-5.8999,-5.9789,-6.1195,-6.1644,-6.1503,-6.123,-6.2376,-6.2915,-6.3382,4.4587,4.4823,0.0,0.0,0.0,0.0,0.0,0.0,0.0,0.0,4.4379,4.4124,4.3373,4.0887,3.8792,3.7518,3.9087,3.8086,0.0,0.0,0.0,0.0,0.0,3.124,0.0,0.0,0.0,0.0,2.0605,0.0,0.0,0.0,0.0,0.0,0.1082,0.0,-2.426,-2.5234,-2.4868,0.0,0.0,-2.2215,0.0,-2.1164,-2.0888,-2.0337,-2.2344,-2.307,-2.3104,0.0,-2.4909,0.0,0.0,0.0,0.0,-2.657,-2.7727,-2.929,0.0,0.0,0.0,0.0,0.0,0.0,-4.7066,0.0,-4.6267,0.0,0.0,0.0,0.0,0.0,0.0,0.0,-3.5325,0.0,0.0,0.0,-3.3013,0.0,0.0,0.0,-3.6633,-3.943,-4.1852,-4.3471,-4.4215,-4.4587,-4.4587,-4.5494,-4.6161,-4.6365,-4.7588,-4.8432,-4.8685,-4.8884,-4.9018,-4.9018,-4.9759,-5.0633,-5.1899,-5.3807,-5.5324,-5.6512,-5.8247,-5.9473,-6.0258,-6.0245,-6.0951,-6.2071,-6.2071,-6.1973,-6.1862,-6.2523,-6.3135,-6.3787,4.4891,4.506,4.5602,0.0,0.0,0.0,0.0,0.0,0.0,0.0,0.0,0.0,4.3949,3.9936,3.6687,3.5061,3.8725,3.8173,0.0,0.0,3.637,3.6438,3.186,2.9023,0.0,0.0,0.0,0.0,0.0,0.0,0.0,0.0,0.0,0.0,0.0,-0.9376,-2.1253,0.0,-2.4876,-2.4622,-2.3671,-2.2921,-2.2478,-2.2796,-2.3038,-2.2889,-2.1535,-2.1946,-2.3085,-2.311,-2.511,0.0,-2.2051,-2.5126,-3.0565,0.0,0.0,0.0,-3.8341,0.0,0.0,0.0,0.0,0.0,0.0,0.0,0.0,0.0,0.0,0.0,0.0,0.0,0.0,0.0,0.0,-3.4366,0.0,-3.2616,0.0,0.0,0.0,0.0,0.0,-4.1484,-4.2841,-4.4159,-4.4248,-4.4248,-4.4248,-4.561,-4.6424,-4.6442,-4.7929,-4.8741,-4.8748,-4.9135,-4.9289,-4.9323,-5.0033,-5.1167,-5.2626,-5.4298,-5.5872,-5.7347,-5.9128,-6.0272,-6.0955,-6.1065,-6.1397,-6.1878,-6.1788,-6.1661,-6.1592,-6.2487,-6.3356,-6.4265,4.5669,4.6244,4.6955,0.0,0.0,0.0,0.0,0.0,0.0,0.0,0.0,0.0,0.0,0.0,0.0,3.9535,0.0,3.5618,3.3123,0.0,3.6354,3.6378,3.127,2.833,0.0,0.0,0.0,0.0,0.0,0.0,0.0,0.0,0.0,0.0,-0.6084,-1.1406,-1.6304,-2.1197,-2.2763,-2.2263,-2.3376,-2.2553,-2.0429,0.0,-1.9031,-2.2517,-1.7763,0.0,0.0,-2.3149,-2.4346,0.0,0.0,0.0,0.0,0.0,0.0,0.0,0.0,0.0,0.0,-4.3598,0.0,0.0,0.0,0.0,-4.6142,0.0,0.0,0.0,0.0,0.0,0.0,0.0,0.0,0.0,0.0,0.0,0.0,0.0,0.0,0.0,0.0,-4.2118,-4.2526,-4.3382,-4.347,-4.347,-4.347,-4.5297,-4.6477,-4.6621,-4.7959,-4.8731,-4.8799,-4.9623,-5.0067,-5.0067,-5.0811,-5.1959,-5.3406,-5.5145,-5.6766,-5.8249,-6.0008,-6.0968,-6.1264,-6.0808,-6.0407,-6.0136,-6.0336,-5.9988,-5.9692,-6.198,-6.3356,-6.4265,4.6312,4.7022,4.7631,4.7868,4.7579,0.0,0.0,4.4708,0.0,0.0,4.4899,0.0,0.0,4.5496,4.3966,0.0,0.0,3.8313,3.7518,3.5405,0.0,3.8445,3.0911,2.716,0.0,0.0,0.0,0.0,0.0,0.0,0.0,0.0,0.0,0.0,0.0,-1.1677,0.0,0.0,0.0,0.0,0.0,-2.1586,-1.9827,0.0,-1.6839,-1.8132,-1.7279,-1.9645,0.0,-2.4408,-2.7352,-3.0697,-3.1251,-3.5862,-4.0656,-3.8859,-3.9641,0.0,0.0,0.0,-4.1504,-4.3249,0.0,0.0,0.0,0.0,0.0,0.0,0.0,0.0,0.0,0.0,0.0,0.0,0.0,0.0,0.0,0.0,0.0,0.0,0.0,0.0,0.0,0.0,0.0,-4.3348,-4.3403,-4.3403,-4.3403,-4.4924,-4.6047,-4.6603,-4.7525,-4.8003,-4.786,-4.8684,-4.9094,-4.9194,-5.0391,-5.2111,-5.4276,-5.5934,-5.7542,-5.908,-6.0277,-6.1006,-6.1264,-6.0302,-5.9924,-5.992,-5.8944,-5.8394,-5.8507,-6.1034,-6.2486,-6.3693,4.6718,4.7597,4.8308,4.8308,0.0,0.0,0.0,0.0,0.0,0.0,4.6726,0.0,4.7956,0.0,4.5847,0.0,4.169,4.0514,3.9725,3.6319,0.0,3.2551,2.8113,2.5486,0.0,0.0,0.0,0.0,0.0,0.3734,0.0,0.0,0.0,0.0,0.0,-1.0746,-1.4027,-1.6905,-1.8808,0.0,0.0,-2.06,0.0,0.0,-1.6572,-1.613,0.0,-2.1516,-2.4461,-2.7312,-3.0487,-3.3137,-3.313,-3.7153,-4.1313,-3.8086,-3.8627,-4.0035,-3.924,-4.0006,0.0,-4.2885,-4.4004,0.0,-4.5764,0.0,-4.4825,0.0,0.0,0.0,0.0,0.0,0.0,0.0,0.0,0.0,0.0,-3.544,0.0,0.0,0.0,0.0,0.0,-4.213,-4.2468,-4.2976,-4.3031,-4.3031,0.0,0.0,-4.5874,-4.6674,-4.703,-4.7282,-4.7479,-4.8164,-4.8678,-4.9088,-5.0537,-5.2535,-5.5056,-5.6479,-5.7951,-5.9424,-6.0189,-6.0742,-6.1007,-5.9769,-5.9014,-5.861,-5.7561,-5.6713,-5.6498,-5.969,-6.2027,-6.4116,0.0,4.8003,0.0,0.0,4.7373,0.0,0.0,0.0,4.71,0.0,4.9945,5.1673,4.9766,4.7615,4.542,4.3334,4.3034,4.2091,4.0006,3.7405,0.0,0.0,2.3419,2.3469,1.937,0.0,1.5724,0.0,0.0,0.0,0.0,0.0,0.0,0.0,-0.8906,0.0,-0.8806,-1.3489,-1.5524,-1.5994,-1.8456,-1.9405,-1.9513,-1.9588,-1.8138,-1.6806,-2.1331,-2.4355,-2.6791,-3.1472,-3.3071,-3.3143,-3.3107,-3.5817,-3.8361,-3.4435,-3.6741,-4.0124,-3.7977,-4.0199,-4.296,-4.2505,0.0,0.0,0.0,0.0,-4.4287,0.0,0.0,0.0,0.0,0.0,0.0,0.0,0.0,0.0,0.0,0.0,0.0,0.0,0.0,0.0,-4.2078,-4.2146,-4.2267,-4.2286,-4.232,-4.232,0.0,0.0,-4.5863,-4.6718,-4.6312,-4.6557,-4.7373,-4.7838,-4.8619,-4.9641,-5.1125,-5.3112,-5.5617,-5.6576,-5.7877,-5.9386,-5.9809,-6.0241,-6.0377,-5.9139,-5.7676,-5.6249,-5.6163,-5.5137,-5.4148,-5.8273,-6.2053,-6.5382,4.753,4.8376,4.8386,0.0,4.6064,4.5602,0.0,0.0,0.0,0.0,5.0262,5.2052,5.3579,4.9241,4.6007,4.5546,4.3959,0.0,0.0,0.0,0.0,2.8042,2.3452,2.0125,1.8154,1.3364,0.8159,0.2534,0.0,0.0,-0.0,0.0,0.0,0.0,0.0,-0.875,-0.8515,-0.954,-1.2681,-1.7072,-1.7825,-1.883,-1.9843,0.0,-2.1081,-2.155,-2.1405,-2.564,-3.1407,-3.2656,-3.3071,-3.3082,-3.3081,-3.3843,-3.4821,-3.5304,-3.7016,-3.8531,-3.7483,-3.8851,-4.0706,-4.1558,-4.282,-4.3958,0.0,0.0,0.0,0.0,0.0,0.0,0.0,0.0,0.0,0.0,0.0,0.0,0.0,0.0,0.0,-3.9175,0.0,0.0,-4.2925,-4.1894,-4.1559,-4.2267,-4.2828,-4.2895,-4.232,0.0,0.0,-4.5744,-4.4685,-4.4297,-4.4788,-4.503,-4.5703,-4.6893,-4.9006,-5.1287,-5.3729,-5.546,-5.7056,-5.8518,-5.8935,-5.9025,-5.8719,-5.6744,-5.5145,-5.3855,-5.2689,-5.3783,-5.6292,-5.8858,-6.1599,-6.4391,4.7767,0.0,0.0,4.53,0.0,0.0,4.4489,4.5963,0.0,4.8716,5.0508,0.0,5.4905,5.2226,4.873,4.5145,4.3751,0.0,4.3026,0.0,0.0,3.0901,2.3472,1.909,1.8433,0.9225,0.2999,-0.0,-0.0,0.0,-0.0,0.0,0.0,0.0,0.0,-0.8845,-0.8673,-0.9043,-1.2053,-1.6852,-1.7463,-1.852,0.0,-2.1373,-2.3105,-2.4642,-2.3652,-2.7522,-3.3133,-3.3134,-3.3096,-3.3104,-3.3056,-3.3688,-3.4533,-3.4759,-3.6333,-3.777,-3.6927,-3.8325,-4.0139,-4.0871,-4.1755,-4.2581,-4.294,-4.303,-4.2821,0.0,0.0,0.0,0.0,0.0,0.0,0.0,0.0,0.0,0.0,0.0,0.0,0.0,-4.0516,0.0,-4.3108,-4.2512,-4.2212,-4.274,-4.3166,-4.3234,0.0,0.0,0.0,-4.4594,-4.3882,-4.3441,-4.3459,-4.4227,-4.5161,-4.6346,-4.8748,-5.097,-5.3082,-5.4804,-5.6418,-5.7901,-5.811,-5.8128,-5.7802,-5.5526,-5.388,-5.2649,-5.1174,-5.3128,-5.6927,-5.8051,-6.0917,-6.4533,0.0,0.0,0.0,0.0,0.0,0.0,0.0,4.677,0.0,4.8476,0.0,5.2705,5.4377,5.3984,5.0734,4.3639,0.0,4.2849,4.2588,3.52,3.0458,2.9469,2.2191,1.8084,1.8181,0.6242,-0.0,-0.0,-0.0,-0.0,-0.0,0.0,0.0,0.0,0.0,0.0,0.0,-0.9469,-1.1954,-1.5356,-1.6578,-1.7995,-1.9538,-2.172,-2.417,-2.6506,-2.682,-2.963,-3.3068,-3.3054,-3.3114,-3.3114,-3.3089,-3.4199,-3.5216,-3.3428,-3.4901,-3.7053,-3.6309,-3.794,-3.9921,-4.0337,-4.0756,-4.1175,-4.1354,-4.1324,-4.1235,-4.1145,-4.0875,-3.9876,0.0,0.0,0.0,0.0,0.0,0.0,0.0,0.0,0.0,0.0,0.0,0.0,0.0,0.0,-4.3283,-4.3382,-4.3504,0.0,0.0,0.0,0.0,-4.3504,-4.3428,-4.3229,-4.2912,0.0,-4.5514,-4.6603,-4.9047,-5.113,-5.2779,-5.4421,-5.6008,-5.7452,-5.737,-5.7408,-5.7277,-5.484,-5.3146,-5.1932,-5.0795,-5.2905,-5.6713,-5.6937,-6.0333,-6.4964,0.0,0.0,0.0,0.0,0.0,4.6929,4.6941,4.8536,4.9763,4.9883,4.9839,5.0298,5.1384,4.7722,4.4594,4.3148,4.305,0.0,0.0,0.0,0.0,2.1686,1.5045,1.1487,1.1438,0.3899,-0.0,-0.0,-0.0,-0.0,-0.0,0.0,0.0,0.0,0.0,0.0,-0.488,-0.5877,0.0,-1.2694,-1.3625,-1.5817,-1.8616,-1.973,-2.2765,-2.6761,-2.8545,-3.0898,-3.3122,-3.3096,-3.3096,-3.307,-3.3079,-3.2735,-3.2148,-3.1838,-3.2723,-3.4116,-3.5201,-3.6127,-3.7317,-3.9831,-4.0068,-4.0038,-4.1145,-4.0965,-4.0427,-3.9858,-3.7982,-3.6403,-3.6322,0.0,0.0,0.0,0.0,0.0,0.0,0.0,0.0,0.0,0.0,-4.3027,0.0,0.0,0.0,-4.3327,-4.4012,0.0,0.0,0.0,0.0,0.0,-4.2294,0.0,0.0,0.0,-4.3658,-4.488,-4.8105,-5.0175,-5.1346,-5.3976,-5.586,-5.6993,-5.664,-5.6556,-5.6356,-5.3263,-5.1121,-4.9957,-5.0519,-5.2856,-5.6059,-5.7686,-6.0768,-6.422,0.0,0.0,0.0,0.0,0.0,0.0,0.0,4.9912,5.0511,4.9823,4.9692,4.9449,4.8991,4.5361,4.2986,4.3008,4.1948,3.9489,3.5402,2.8786,2.1799,1.4785,1.1508,0.8166,0.4787,0.1587,-0.0,-0.0,-0.0,-0.0,0.0,0.0,0.0,-0.0111,0.0,-0.4863,0.0,0.0,0.0,-1.2102,-1.4785,-1.7047,-1.9134,-2.0692,-2.2752,-2.5153,-2.8578,-3.0486,-3.136,-3.1367,-3.1386,-3.1361,-3.1342,-3.1392,-3.1336,-3.0767,-3.1752,-3.3301,-3.4547,-3.5458,-3.6431,-3.8389,-3.8601,-3.8542,-3.917,-3.908,-3.8609,-3.7824,-3.6605,-3.5667,-3.5438,-3.5926,0.0,0.0,0.0,0.0,0.0,0.0,-4.0786,0.0,0.0,0.0,0.0,0.0,0.0,0.0,0.0,-4.5018,0.0,0.0,0.0,0.0,0.0,0.0,0.0,0.0,0.0,-4.4467,-4.7774,-4.9763,-5.0639,-5.3133,-5.4786,-5.5655,-5.5889,-5.5785,-5.5283,-5.2741,-5.0877,-4.9738,-5.1205,-5.3793,-5.6822,-5.8597,-6.1913,-6.5655,0.0,4.8431,0.0,0.0,4.9015,0.0,4.9975,5.072,5.081,4.9613,4.9764,4.9494,4.8276,4.4657,4.2259,4.2276,4.0764,3.7045,3.0772,2.3472,1.6562,1.0066,0.8473,0.5314,0.0117,-0.0,-0.0,-0.0,-0.0,-0.0,0.0,0.0,0.0,0.0,0.0,0.0,0.0,0.0,-1.1993,-1.2183,-1.4991,-1.7128,-1.9027,-2.1959,-2.3701,-2.5005,-2.856,-2.9777,-2.9777,-2.9801,-2.9812,-2.9837,-2.9805,-3.035,-3.0904,-3.0089,-3.0968,-3.2592,-3.3868,-3.4702,-3.5639,-3.704,-3.7315,-3.7255,-3.7375,-3.7148,-3.6684,-3.5925,-3.5468,-3.4929,-3.4177,-3.4304,0.0,0.0,0.0,0.0,0.0,0.0,-4.0964,0.0,0.0,0.0,-4.2813,0.0,0.0,0.0,0.0,-4.6066,-4.442,-4.4814,-4.3984,0.0,0.0,-4.231,-4.129,0.0,-4.4644,-4.4467,-4.7725,-4.9785,-5.0701,-5.2717,-5.4223,-5.5147,-5.5548,-5.5066,-5.3939,-5.2527,-5.1262,-5.0579,-5.2427,-5.5005,-5.8027,-6.0079,-6.3574,-6.7185,0.0,0.0,0.0,0.0,0.0,0.0,4.9584,5.0421,5.096,5.0242,4.9998,5.0129,5.0719,4.4348,3.9981,3.996,3.9839,3.657,2.9043,2.2824,1.6553,1.0128,0.4154,0.059,-0.0,-0.0,-0.0,-0.0,-0.0,-0.0,-0.0,-0.0,0.0,0.0,0.0,0.0,0.0,-0.8343,-0.9838,-1.1736,-0.9716,-1.1865,-1.6693,-2.1349,-2.563,-2.92,-2.9665,-2.9845,-2.9804,-2.9777,-2.9802,-2.9774,-2.9836,-2.9841,-2.9927,-2.9861,-2.9895,-3.0625,-3.3009,-3.3318,-3.3607,-3.6665,-3.6985,-3.6716,-3.7285,-3.6281,-3.5189,-3.5119,-3.3661,-3.2251,-3.1818,-3.2872,-3.4336,0.0,0.0,0.0,0.0,0.0,-4.0353,-3.9083,0.0,0.0,-4.2205,-4.545,0.0,0.0,-4.6752,-4.6024,-4.4198,-4.4733,-4.4485,-4.309,0.0,-4.3784,-4.3199,-4.5108,-4.5577,-4.4467,-4.7725,-5.0237,-5.1951,-5.3704,-5.5486,-5.7094,-5.6116,-5.4337,-5.2103,-5.1993,-5.2042,-5.2429,-5.4389,-5.6525,-5.9071,-6.3005,-6.5653,-6.7654,0.0,0.0,0.0,0.0,0.0,0.0,0.0,5.1229,5.093,5.0152,5.0359,5.052,5.0144,4.5971,4.2251,3.9904,3.1529,2.6929,2.821,2.2735,1.6559,1.0104,0.6919,0.3654,0.0113,-0.0,-0.0,0.0,0.0,0.1829,0.5381,0.5308,0.0,0.0,0.0,-0.4953,-0.7971,-0.8052,-0.8561,-0.9753,-1.1838,-1.5677,-2.04,-2.2323,-2.4198,-2.6118,-2.8845,-2.9805,-2.9351,-2.6668,-2.7552,-2.9791,-2.977,-2.982,-2.9791,-2.977,-2.9827,-3.0113,-3.1755,-3.2355,-3.3058,-3.4882,-3.5629,-3.5806,-3.5448,-3.4864,-3.4111,-3.2952,-3.1611,-3.0777,-3.1029,-3.1813,-3.2731,0.0,0.0,0.0,0.0,0.0,0.0,-3.8822,0.0,-4.3229,-4.2718,0.0,0.0,0.0,0.0,-4.6551,-4.487,-4.5223,0.0,-4.3329,0.0,-4.3892,-4.2873,-4.4038,-4.4351,-4.3891,-4.678,-4.9148,-5.1094,-5.3514,-5.5461,-5.6927,-5.5591,-5.4393,-5.3308,-5.3483,-5.3822,-5.4497,-5.6798,-5.9373,-6.2126,-6.5238,-6.8129,-7.0796,5.6359,0.0,5.3404,0.0,5.2997,5.0958,5.1922,5.1618,5.099,5.0361,5.084,5.0585,4.8923,4.6405,4.2791,3.7559,2.6517,2.1308,2.4913,2.1249,1.6086,0.9822,0.9154,0.0,0.0111,-0.0,-0.0,-0.0,-0.0,0.2132,0.628,0.6315,0.0,0.0,-0.0,-0.3025,-0.7979,-0.8028,-0.887,-1.0669,-1.4334,-1.8728,-2.3066,-2.3134,-2.3143,-2.3547,-2.6691,-2.7833,-2.7332,-2.4198,-2.5213,-2.7847,-2.7814,-2.8785,-2.9806,-2.9795,-2.9802,-2.9985,-3.0589,-3.1721,-3.2735,-3.3463,-3.4341,-3.4773,-3.3808,-3.3394,-3.2735,-3.1119,-3.0292,-3.0002,-3.0767,-3.1123,-3.1605,-3.2226,0.0,0.0,0.0,-3.7316,0.0,-3.8448,-4.0931,-4.2815,-4.3105,-4.5169,0.0,0.0,0.0,0.0,0.0,0.0,0.0,0.0,0.0,0.0,0.0,-4.3464,-4.3752,-4.3752,-4.6159,-4.8561,-5.113,-5.4445,-5.6528,-5.7482,-5.621,-5.5372,-5.5025,-5.5181,-5.5854,-5.7022,-5.9616,-6.242,-6.5371,-6.7932,-7.0667,-7.3237,5.8558,5.893,5.8418,5.7022,5.7793,5.6927,5.1999,5.1229,5.1229,5.1199,5.1199,5.0236,4.7641,4.5015,4.0156,3.1699,2.7289,2.2987,1.8026,1.7616,1.5063,0.0,0.0,0.6097,0.0109,-0.0,-0.0,-0.0,0.0,0.0,0.0104,0.0,0.0105,-0.0,-0.0,-0.2959,-0.7979,-0.8028,-1.1016,-1.5738,-1.5803,-1.8728,-2.3104,-2.3055,-2.3083,-2.3128,-2.3148,-2.32,-2.3165,-2.3145,-2.3119,-2.3173,-2.3185,-2.6206,-2.9776,-2.9776,-2.9845,-2.9756,-2.9804,-3.1189,-3.2593,-3.2593,-3.3325,-3.3739,-3.2806,-3.1901,-3.097,-3.0011,-2.9804,-3.0002,-3.0767,-3.1123,-3.1274,-3.0667,0.0,0.0,0.0,-3.4752,0.0,-3.7537,-4.0201,-4.2332,-4.3202,-4.4767,0.0,0.0,0.0,0.0,0.0,0.0,0.0,-4.6232,-4.5579,0.0,-4.4263,-4.429,-4.429,-4.429,-4.6046,-4.881,-5.2686,-5.7161,-5.918,-5.9222,-5.8445,-5.76,-5.6857,-5.6879,-5.8116,-6.0303,-6.2792,-6.553,-6.8414,-7.1484,-7.3181,-7.415,6.096,6.0216,5.953,6.0456,5.6694,5.307,5.1476,5.1229,5.1229,5.1229,5.1229,4.8872,4.2762,4.3751,4.1693,0.0,2.8105,2.3118,0.0,1.6563,1.3566,0.9131,0.892,0.7864,0.5469,0.1906,-0.0,-0.0,0.0,0.0,0.0,-0.0,-0.0,-0.0,-0.0,-0.3025,-0.7979,-0.8028,-1.1016,-1.5751,-1.5765,-1.8764,-2.3123,-2.3051,-2.3115,-2.3055,-2.3055,-2.3083,-2.309,-2.309,-2.3063,-2.3083,-2.3088,-2.4096,-2.5828,-2.8895,-2.9802,-2.9831,-2.9834,-3.0235,-3.0871,-3.1456,-3.2307,-3.2806,-3.1901,-3.0921,-3.0139,-2.9856,-2.9184,-2.8771,-2.9154,-2.9066,-2.8971,-2.8948,-2.9376,0.0,-3.1086,0.0,-3.6081,-3.7329,-4.0601,-4.2655,-4.2427,-4.4315,0.0,0.0,0.0,0.0,0.0,0.0,0.0,0.0,-4.5566,0.0,-4.3038,-4.3339,-4.403,-4.5023,-4.626,-4.9797,-5.5295,-5.7976,-5.9495,-6.0012,-5.987,-5.9767,-5.9859,-5.9889,-6.1114,-6.328,-6.5811,-6.8254,-7.0611,-7.2729,-7.4303,-7.5562,6.2212,6.14,6.0627,6.0935,5.6726,5.2794,5.1383,5.1229,5.1229,5.1229,5.1229,4.8989,4.3164,4.3051,0.0,3.42,2.881,2.4321,2.0793,1.6979,1.3467,1.0163,0.932,0.8696,0.8295,0.287,0.0,-0.0,-0.0,-0.0,-0.0,-0.0,-0.0,-0.0,-0.0,-0.301,-0.7979,-0.7957,-1.1044,-1.5765,-1.5778,-1.7639,-2.0514,-2.2385,-2.3133,-2.3086,-2.3076,-2.3144,-2.3144,-2.3144,-2.3144,-2.3047,-2.3108,-2.4304,-2.6177,-2.8992,-2.9827,-2.9804,-2.9804,-2.9808,-2.9902,-3.0517,-3.1389,-3.1829,-3.0895,-3.0369,-2.9924,-2.9505,-2.9068,-2.841,-2.7753,-2.7875,-2.7922,-2.7331,-2.8055,-2.9058,-3.0117,0.0,-3.5382,0.0,0.0,0.0,0.0,-4.3911,-4.4071,0.0,0.0,0.0,0.0,0.0,0.0,-4.5039,-4.5307,0.0,-4.3019,-4.2866,-4.3753,-4.563,-4.819,-5.2289,-5.7774,-5.9415,-6.0839,-6.2278,-6.2165,-6.2303,-6.2613,-6.2859,-6.4206,-6.6362,-6.8563,-7.075,-7.2799,-7.4183,-7.5311,-7.6237,6.2381,6.2347,6.1559,0.0,5.7721,0.0,5.1813,5.1229,5.1229,5.1229,5.1229,5.0253,4.7825,4.2858,3.7976,3.353,0.0,0.0,0.0,1.8592,1.427,1.1943,0.993,0.8953,0.8858,0.3417,0.0424,-0.0,-0.0,-0.0,-0.0,-0.0,-0.0,-0.0,-0.0,-0.301,-0.7985,-0.7997,-1.0788,-1.5337,-1.5668,-1.5779,-1.6258,-2.0887,-2.2815,-2.3102,-2.3066,-2.3057,-2.3144,-2.3144,-2.3125,-2.3075,-2.3099,-2.6184,-2.9755,-2.977,-2.9795,-2.9831,-2.9779,-2.9808,-2.9779,-2.9833,-3.0495,-3.0895,-3.0011,-3.0127,-3.0183,-2.9056,-2.913,-2.8717,-2.664,-2.7363,-2.7822,-2.5953,-2.7679,-2.9103,-2.8656,0.0,-3.5241,0.0,0.0,0.0,0.0,-4.3331,-4.2716,0.0,0.0,0.0,0.0,0.0,-4.4533,-4.5909,-4.4773,-4.4072,-4.4072,-4.2977,-4.3675,-4.6384,-5.1313,-5.5765,-5.9974,-6.1143,-6.301,-6.5316,-6.5106,-6.5054,-6.5067,-6.5649,-6.7157,-6.9311,-7.0882,-7.2831,-7.4822,-7.5668,-7.6147,-7.6338,0.0,0.0,6.1582,6.1547,5.8828,5.5443,5.1783,5.1229,5.1229,5.1229,5.1229,5.0986,5.0312,4.3913,3.8613,3.6018,3.1437,2.7191,2.3787,1.8714,1.4614,1.1935,0.9983,0.89,0.8858,0.7483,0.4519,-0.0,-0.0,-0.0,-0.0,-0.0,-0.0,-0.0,-0.0,-0.3015,-0.7985,-0.8011,-0.8674,-1.0164,-1.4232,-1.5832,-1.5967,-1.7057,-1.9877,-2.3121,-2.3063,-2.3105,-2.3144,-2.3144,-2.3142,-2.3103,-2.3102,-2.6169,-2.977,-2.9795,-2.9834,-2.9757,-2.9756,-2.9808,-2.9779,-2.9833,-3.0011,-3.0062,-2.9856,-2.9524,-2.9138,-2.8892,-2.7753,-2.6815,-2.6634,-2.6249,-2.5913,-2.574,-2.6566,-2.7635,-2.8522,-3.162,0.0,0.0,-3.9667,-4.1395,-4.0974,-4.1218,-4.101,0.0,0.0,0.0,0.0,-4.1622,-4.2027,-4.3283,-4.3777,-4.4072,-4.4177,-4.3887,-4.5418,-4.9051,-5.2153,-5.5765,-5.9974,-6.1706,-6.3572,-6.5338,-6.586,-6.6202,-6.64,-6.7237,-6.8666,-7.0633,-7.2323,-7.3697,-7.4822,-7.5668,-7.6147,-7.6415,6.2956,6.2336,6.1953,6.2346,6.0702,5.7901,5.364,5.1968,5.1648,5.2875,5.3025,5.2576,5.1349,4.4348,3.9253,3.8227,3.2099,2.6995,2.4139,1.9111,1.5289,1.2898,1.0342,0.8866,0.8737,0.8879,0.7271,0.4027,0.1307,-0.0,-0.0,-0.0,-0.0,-0.0,-0.0,-0.1609,-0.4526,-0.6924,-0.8004,-0.847,-1.3711,-1.58,-1.5832,-1.5832,-1.7445,-2.003,-2.2274,-2.3075,-2.3144,-2.3144,-2.3083,-2.3422,-2.5518,-2.7836,-2.9782,-2.9827,-2.9834,-2.9834,-2.9806,-2.9834,-2.9758,-2.9806,-2.9443,-2.9101,-2.9267,-2.8869,-2.8264,-2.7892,-2.7298,-2.663,-2.6337,-2.5734,-2.5449,-2.5703,-2.6445,-2.7487,-2.8432,-3.172,0.0,-3.6458,-3.8855,-4.0351,-4.0338,-4.0198,-3.9943,-3.9692,-3.9688,0.0,-4.1113,-4.109,-4.1544,-4.2729,-4.3126,-4.3568,-4.4177,-4.5898,-4.8019,-5.0662,-5.3446,-5.7089,-6.127,-6.2287,-6.4112,-6.6455,-6.7395,-6.7815,-6.8032,-6.8973,-7.0439,-7.2168,-7.3129,-7.4245,-7.5351,-7.5941,-7.625,-7.6514,6.37,6.2965,6.2425,6.2411,6.2402,6.0806,5.597,5.331,5.2636,5.488,5.5179,5.4192,5.1498,4.3895,3.9216,3.9634,3.2406,2.6739,2.448,1.9832,1.6468,1.4859,1.1285,0.9161,0.8622,0.8866,0.885,0.889,0.296,-0.0,-0.0,-0.0,-0.0,-0.0,-0.0,-0.0,-0.0302,-0.4826,-0.7229,-0.84,-1.3269,-1.5177,-1.5255,-1.5886,-1.6146,-1.6752,-2.141,-2.3075,-2.3144,-2.3144,-2.313,-2.3885,-2.8374,-2.9829,-2.9811,-2.9802,-2.9804,-2.9804,-2.9804,-2.9574,-2.9291,-2.9419,-2.8633,-2.7951,-2.8469,-2.8163,-2.7568,-2.6894,-2.7077,-2.6935,-2.5917,-2.5742,-2.5742,-2.5917,-2.6968,-2.7979,-2.8724,0.0,-3.482,-3.6145,-3.7539,-3.8831,-4.0051,-3.9337,-3.9033,-3.9825,-3.9897,-3.9974,-3.9985,-4.0478,-4.1458,-4.3045,-4.2648,-4.3012,-4.4433,-4.8188,-5.0571,-5.1693,-5.4905,-5.8753,-6.3002,-6.3128,-6.4878,-6.7941,-6.8788,-6.9231,-6.9393,-7.0362,-7.1842,-7.3514,-7.3514,-7.4437,-7.5841,-7.6181,-7.6361,-7.6455,6.3869,6.3091,6.2415,6.2425,6.2347,6.074,5.594,5.4875,5.473,5.5149,5.5179,5.4192,5.1498,4.2086,3.699,3.943,3.354,2.8032,2.4187,2.08,1.8751,1.8078,1.378,1.0626,0.8927,0.8899,0.8954,0.887,0.2916,-0.0,-0.0,-0.0,-0.0,-0.0,-0.0,-0.0,-0.0101,-0.0903,-0.3807,-0.8258,-1.1296,-1.2467,-1.2931,-1.656,-1.7872,-1.836,-2.186,-2.3075,-2.3144,-2.3144,-2.3077,-2.3846,-2.8386,-2.9819,-2.9777,-2.9804,-2.9804,-2.9804,-2.9804,-2.8445,-2.7182,-2.7814,-2.7231,-2.6741,-2.7606,-2.7503,-2.7162,-2.7041,-2.6479,-2.5917,-2.5742,-2.5742,-2.6014,-2.7125,-2.7985,-2.8858,-2.9916,0.0,-3.3966,-3.4179,-3.6058,-3.729,-3.703,-3.7696,-3.7505,-3.6039,-3.6305,-3.6739,-3.7266,-3.7363,-3.9038,-4.2466,-4.2865,-4.3916,-4.5846,-4.9163,-5.134,-5.2444,-5.5879,-5.9702,-6.3818,-6.4506,-6.6214,-6.8733,-6.8654,-6.8847,-6.9353,-6.9992,-7.1528,-7.3514,-7.3514,-7.4091,-7.5005,-7.5948,-7.5954,-7.5638,6.4749,6.4715,6.4275,6.2651,6.2381,6.1683,5.941,5.8122,5.7304,5.7304,5.6077,5.4192,5.1498,4.0309,3.3501,3.488,3.2219,2.7888,2.1846,2.0183,1.926,1.9166,1.6696,1.338,0.9008,0.8769,0.8716,0.8736,0.6027,0.3168,-0.0,-0.0,-0.0,-0.0,-0.0,-0.0,-0.0,-0.0,-0.3107,-0.8279,-1.0895,-1.195,-1.2328,-1.6466,-1.8627,-1.9786,-2.1284,-2.2372,-2.3144,-2.3144,-2.3071,-2.3657,-2.6993,-2.7988,-2.7947,-2.7566,-2.7965,-2.8694,-2.8846,-2.7749,-2.6563,-2.6943,-2.6395,-2.598,-2.6649,-2.6185,-2.5769,-2.629,-2.6033,-2.5819,-2.6094,-2.6463,-2.7017,-2.7819,-2.9098,0.0,0.0,-3.325,-3.4835,-3.5125,-3.6342,-3.6983,-3.6727,-3.7221,-3.7273,-3.6652,-3.7115,-3.7755,-3.8295,-3.8991,-4.0108,-4.1887,-4.3813,-4.5504,-4.7046,-5.0252,-5.2813,-5.4792,-5.8171,-6.1771,-6.533,-6.5695,-6.6946,-6.8916,-6.894,-6.9064,-6.9353,-7.0162,-7.1718,-7.3437,-7.2976,-7.3591,-7.4763,-7.5506,-7.5572,-7.5456,6.5358,6.5493,6.5053,6.2787,6.2956,6.304,6.1863,6.0152,5.9099,5.9099,5.6825,5.4212,5.1498,4.0304,3.2399,3.0991,3.0878,2.7786,2.0223,1.9797,1.965,1.9412,1.7915,1.452,0.9091,0.883,0.8709,0.8613,0.8755,0.6132,0.104,0.0306,-0.0,-0.0,-0.0,-0.0,-0.0101,-0.1305,-0.4218,-0.8285,-1.11,-1.2242,-1.2791,-1.6612,-1.9212,-2.0922,-2.1194,-2.2064,-2.3144,-2.3144,-2.3083,-2.3483,-2.5487,-2.614,-2.6206,-2.5744,-2.6363,-2.7186,-2.7579,-2.6953,-2.6174,-2.6201,-2.5636,-2.5153,-2.5462,-2.5098,-2.502,-2.6035,-2.617,-2.6226,-2.7043,-2.7606,-2.8211,-2.9128,0.0,0.0,0.0,-3.4174,-3.5487,-3.5931,-3.6389,-3.6779,-3.691,-3.7159,-3.749,-3.7717,-3.8311,-3.8985,-3.9303,-4.0696,-4.1934,-4.2949,-4.511,-4.6985,-4.8632,-5.1651,-5.4382,-5.6877,-6.0601,-6.3907,-6.668,-6.6895,-6.781,-6.9173,-6.9252,-6.9426,-6.9657,-7.054,-7.1937,-7.3399,-7.2552,-7.3147,-7.4578,-7.5094,-7.534,-7.5569,6.4952,6.3599,6.2651,6.2415,6.4647,6.484,6.0053,5.9165,5.9099,5.9099,5.6825,5.4167,5.1481,4.3935,3.6851,3.1401,3.0917,2.8045,2.146,2.1004,2.0534,1.9455,1.5203,1.1701,0.9245,0.9198,0.9123,0.9123,0.8737,0.7029,0.4126,0.1333,-0.0,-0.0,-0.0,-0.0,-0.0303,-0.5345,-0.7679,-0.8285,-1.1727,-1.3329,-1.4076,-1.7872,-2.0133,-2.1409,-2.2492,-2.3038,-2.3144,-2.3144,-2.3083,-2.3273,-2.4534,-2.5166,-2.5617,-2.6229,-2.603,-2.576,-2.6423,-2.5797,-2.4977,-2.5419,-2.4775,-2.3951,-2.3419,-2.4553,-2.6048,-2.7783,-2.7498,-2.7359,-2.8885,-2.9,-2.9721,-3.216,0.0,0.0,-3.4379,-3.465,-3.4765,-3.4791,-3.5294,-3.5823,-3.642,-3.7383,-3.7642,-3.6805,-3.7785,-3.8359,-3.8407,-4.0145,-4.299,-4.6833,-4.6627,-4.7939,-5.1152,-5.3405,-5.5627,-5.7658,-6.2538,-6.5804,-6.7608,-6.8361,-6.9174,-7.0,-6.9514,-6.9765,-7.0529,-7.0808,-7.1937,-7.3399,-7.2552,-7.288,-7.3992,-7.495,-7.5413,-7.5723,6.4884,6.3396,6.2381,6.2381,6.3328,6.2913,5.9622,5.9099,5.9099,5.9099,5.2386,4.7298,4.6166,4.1274,3.6092,3.1317,3.0918,2.8068,2.1477,2.1036,1.8822,1.3712,1.1769,1.0347,0.9399,0.9279,0.911,0.9022,0.8689,0.7089,0.4171,0.1324,-0.0,-0.0,-0.0,-0.0,-0.0303,-0.5751,-0.7992,-0.8285,-1.1208,-1.2169,-1.2384,-1.752,-2.0099,-2.1141,-2.2561,-2.3144,-2.295,-2.1975,-2.1813,-2.1951,-2.1585,-2.1994,-2.2775,-2.3987,-2.4162,-2.4035,-2.4283,-2.4047,-2.3791,-2.3969,-2.3698,-2.3372,-2.3202,-2.5244,-2.75,-2.8208,-2.8061,-2.849,-3.0759,-3.0658,-3.089,-3.2936,0.0,-3.4255,-3.5086,-3.5228,-3.5353,-3.5705,-3.6232,-3.6634,-3.686,-3.7889,-3.8566,-3.8551,-3.929,-4.0152,-4.1381,-4.3755,-4.6622,-5.0065,-4.9637,-5.0484,-5.2813,-5.4792,-5.742,-6.0768,-6.3588,-6.6415,-6.9064,-6.8875,-6.9445,-7.0583,-7.0255,-7.0495,-7.1178,-7.2088,-7.2899,-7.3427,-7.2674,-7.2993,-7.3878,-7.447,-7.5061,-7.5768,6.4783,6.3396,6.2381,6.2381,6.3159,6.2682,5.9591,5.8411,5.8171,5.9009,5.0793,4.4461,4.3178,3.8202,3.3874,3.1122,3.0898,2.8433,2.2491,2.1502,1.8191,1.1542,1.0357,1.006,1.0629,0.9722,0.9178,0.9076,0.8865,0.7551,0.5318,0.174,-0.0,-0.0,-0.0,-0.0,-0.0202,-0.3924,-0.6453,-0.8179,-0.9968,-1.0826,-1.1667,-1.7305,-2.0314,-2.1606,-2.2687,-2.3096,-2.289,-2.1392,-2.0762,-2.0451,-1.9962,-2.0323,-2.1037,-2.1731,-2.2537,-2.31,-2.3074,-2.3499,-2.3808,-2.3218,-2.315,-2.3253,-2.3797,-2.6203,-2.8329,-2.8324,-2.8336,-2.9204,-3.2205,-3.2004,-3.2042,-3.4054,-3.4898,-3.5429,-3.5981,-3.6056,-3.6445,-3.733,-3.7833,-3.8236,-3.8869,-3.9622,-4.04,-4.1152,-4.1492,-4.2604,-4.4965,-4.7334,-4.9698,-5.2153,-5.2305,-5.3008,-5.4369,-5.5802,-5.8436,-6.2041,-6.4036,-6.6421,-6.9089,-6.9093,-6.9763,-7.0856,-7.093,-7.1445,-7.2227,-7.2869,-7.3245,-7.3427,-7.2778,-7.3064,-7.3933,-7.4519,-7.5305,-7.6224,6.4478,6.3396,6.2415,6.2381,6.485,6.4992,5.9834,5.6855,5.6137,5.874,5.321,4.7485,4.3429,3.5781,3.0977,3.0962,3.0895,2.9039,2.4648,2.2348,1.9112,1.4881,1.1492,1.0867,1.2982,1.059,0.9381,0.9381,0.9092,0.8703,0.8335,0.2719,-0.0,-0.0,-0.0,-0.0,-0.0,-0.0,-0.311,-0.7979,-0.8028,-0.9509,-1.2395,-1.752,-2.0995,-2.3102,-2.3135,-2.3124,-2.2872,-2.1697,-2.0205,-1.9099,-2.0038,-2.0819,-2.0994,-1.9837,-2.1229,-2.3093,-2.3148,-2.4392,-2.5307,-2.356,-2.3088,-2.3533,-2.5264,-2.7031,-2.8347,-2.8377,-2.8301,-2.9404,-3.3039,-3.2937,-3.3231,-3.5953,-3.6452,-3.6653,-3.7207,-3.7283,-3.7942,-3.9675,-3.9918,-4.0629,-4.2537,-4.2713,-4.3211,-4.4429,-4.4238,-4.5581,-4.87,-5.0285,-5.18,-5.3204,-5.4293,-5.5225,-5.5999,-5.665,-5.8268,-6.0858,-6.3768,-6.5929,-6.7336,-6.9125,-7.0229,-7.0826,-7.1499,-7.2583,-7.3827,-7.2677,-7.2745,-7.3427,-7.2778,-7.31,-7.4133,-7.5209,-7.6267,-7.7187,6.3159,6.2047,6.148,6.2278,6.1854,6.0299,5.6925,5.5688,5.5478,5.6256,5.212,4.7568,4.3475,4.0832,3.7146,3.1371,3.0937,2.9368,2.5781,2.2704,2.0531,1.9246,1.4819,1.2585,1.2664,1.0644,0.949,0.9381,0.9069,0.7786,0.5739,0.5656,0.36,-0.0,-0.0,-0.0,-0.0,-0.0,-0.3115,-0.7979,-0.8034,-0.8505,-0.9759,-1.4969,-1.9447,-2.3138,-2.3138,-2.2538,-2.145,-1.8938,-1.8357,-1.8476,-1.8021,-1.7598,-1.8272,-2.2567,-2.4373,-2.4908,-2.4967,-2.5349,-2.5575,-2.5059,-2.4928,-2.5042,-2.5597,-2.7031,-2.9394,-3.3198,-3.1949,-3.1266,-3.4956,-3.526,-3.5688,-3.7893,-3.899,-3.9725,-4.0291,-4.0399,-4.0638,-4.1169,-4.1579,-4.2285,-4.3238,-4.3681,-4.465,-4.6311,-4.8042,-4.938,-5.036,-5.2238,-5.3674,-5.4581,-5.54,-5.6143,-5.6779,-5.7246,-5.8839,-6.1418,-6.2282,-6.4051,-6.6418,-6.7548,-6.8733,-7.0073,-7.1883,-7.3113,-7.3906,-7.3914,-7.3783,-7.3493,-7.353,-7.3737,-7.4146,-7.5355,-7.6404,-7.7305,6.2618,6.1363,6.058,6.1051,5.957,5.7782,5.6196,5.5508,5.5179,5.5179,5.2099,4.8137,4.3533,4.2957,3.9753,3.158,3.0935,2.953,2.6227,2.2951,2.0983,2.0956,1.6775,1.4062,1.3591,1.0951,0.9564,0.9469,0.9084,0.7365,0.4546,0.4702,0.314,-0.0,-0.0,-0.0,-0.0,-0.0,-0.1908,-0.5222,-0.9363,-1.1085,-1.1461,-1.4583,-1.8859,-2.2889,-2.0864,-2.0074,-1.959,-1.7682,-1.7524,-1.8037,-1.7332,-1.6773,-1.775,-2.389,-2.5722,-2.5723,-2.5703,-2.5722,-2.5717,-2.5717,-2.5684,-2.5916,-2.6594,-2.837,-3.0713,-3.3695,-3.2819,-3.251,-3.5673,-3.6343,-3.7194,-3.9425,-4.0603,-4.1412,-4.2021,-4.2131,-4.2397,-4.3104,-4.3786,-4.4478,-4.5402,-4.626,-4.7287,-4.8658,-5.1193,-5.2544,-5.2261,-5.42,-5.5538,-5.5927,-5.6316,-5.6705,-5.7094,-5.7614,-5.8824,-6.0945,-6.1206,-6.2799,-6.5595,-6.7095,-6.865,-7.022,-7.252,-7.3833,-7.4364,-7.4259,-7.3937,-7.3493,-7.3527,-7.3703,-7.4146,-7.5415,-7.6445,-7.7305,6.2651,6.1136,5.9831,5.9227,5.8008,5.7124,5.7064,5.5854,5.4976,5.4976,5.274,4.9116,4.4156,4.3237,3.9712,3.1696,3.0968,2.953,2.6227,2.3212,2.1245,2.0681,1.7506,1.5535,1.5186,1.1559,0.9612,0.9591,0.9116,0.7409,0.445,0.165,0.0537,0.0727,0.0208,-0.0,-0.0,-0.0,-0.0,-0.09,-1.1541,-1.583,-1.5998,-1.5873,-1.8612,-2.183,-1.756,-1.6622,-1.7655,-1.7622,-1.7571,-1.7647,-1.7936,-1.797,-1.8994,-2.4134,-2.5714,-2.572,-2.5679,-2.5722,-2.5742,-2.5684,-2.572,-2.6145,-2.7903,-3.0461,-3.2272,-3.1516,-3.2046,-3.3423,-3.5784,-3.6944,-3.8246,-4.0611,-4.1647,-4.2412,-4.3054,-4.3138,-4.3758,-4.5508,-4.6177,-4.707,-4.8417,-4.9793,-5.0721,-5.1266,-5.3727,-5.4908,-5.4149,-5.6048,-5.7124,-5.7184,-5.7184,-5.7288,-5.7363,-5.7825,-5.8592,-5.9777,-6.0596,-6.2293,-6.4793,-6.7412,-6.9361,-7.077,-7.3222,-7.4588,-7.4976,-7.3991,-7.363,-7.357,-7.3082,-7.3391,-7.4262,-7.5447,-7.6445,-7.7305,6.2448,6.139,6.0198,5.9176,5.8237,5.7423,5.6735,5.4475,5.2963,5.3413,5.1887,4.9968,4.7947,4.4915,4.0069,3.2554,3.129,2.953,2.6227,2.531,2.358,2.0668,1.8495,1.7032,1.6376,1.2059,0.9659,0.9429,0.9395,0.7669,0.4491,0.382,0.4504,0.6034,0.186,-0.0,-0.0,-0.0,-0.0,-0.09,-1.1541,-1.6393,-1.7189,-1.6704,-1.6829,-1.7343,-1.7258,-1.7337,-1.7612,-1.7563,-1.7607,-1.8016,-2.0178,-2.083,-2.1464,-2.472,-2.5657,-2.566,-2.5683,-2.5684,-2.5703,-2.566,-2.5648,-2.6111,-2.7943,-3.1111,-3.3708,-3.3902,-3.4588,-3.5652,-3.7294,-3.9249,-4.105,-4.2122,-4.3973,-4.5577,-4.6226,-4.6344,-4.6668,-4.7585,-4.7793,-4.8596,-5.0421,-5.2276,-5.3405,-5.3525,-5.4529,-5.5347,-5.5664,-5.6631,-5.7334,-5.7872,-5.7902,-5.8368,-5.9307,-5.8437,-5.8592,-5.9868,-6.1066,-6.2459,-6.4069,-6.7247,-6.8904,-6.9431,-7.2806,-7.4379,-7.4472,-7.444,-7.4437,-7.435,-7.3812,-7.4144,-7.5067,-7.5506,-7.6316,-7.7305,6.2516,6.1008,5.9812,5.9791,5.7948,5.6615,5.6765,5.4399,5.2295,5.1291,5.0934,4.9549,4.6494,4.4249,3.9974,3.2236,3.1152,2.9785,2.7314,2.5885,2.4084,2.1661,1.9157,1.7584,1.6885,1.325,1.0711,0.9591,0.9476,0.8475,0.6669,0.5222,0.5891,0.8342,0.5413,0.3992,0.3621,0.1133,-0.144,-0.4428,-1.1529,-1.5532,-1.7177,-1.6697,-1.6454,-1.624,-1.6623,-1.7141,-1.7617,-1.7647,-1.7582,-1.8135,-2.082,-2.1354,-2.1615,-2.4783,-2.5225,-2.4932,-2.5838,-2.5917,-2.5739,-2.5667,-2.6904,-2.8152,-2.8324,-3.1305,-3.4051,-3.4005,-3.5592,-3.7344,-3.8651,-4.0182,-4.1583,-4.2444,-4.3947,-4.5312,-4.6314,-4.6697,-4.7229,-4.8148,-4.8835,-5.0002,-5.1947,-5.3414,-5.4341,-5.464,-5.5299,-5.5807,-5.6166,-5.6765,-5.7244,-5.7633,-5.7633,-5.82,-5.9433,-5.9475,-6.0096,-6.1271,-6.1689,-6.3004,-6.5039,-6.7617,-6.9032,-6.9559,-7.2559,-7.4026,-7.4304,-7.4323,-7.4221,-7.4081,-7.386,-7.4148,-7.4742,-7.5365,-7.654,-7.789,6.299,6.0778,5.9457,6.0703,5.8066,5.6047,5.7124,5.4807,5.2117,5.0037,4.9885,4.8347,4.4053,4.203,3.825,3.1445,3.0937,3.0138,2.839,2.6061,2.4096,2.2811,1.9837,1.801,1.7433,1.5266,1.2835,1.0265,0.9794,0.9435,0.9169,0.6492,0.6574,0.8927,0.8669,0.8366,0.7706,0.233,-0.3176,-0.8428,-1.1634,-1.4424,-1.6806,-1.6544,-1.6623,-1.6756,-1.6291,-1.6782,-1.7582,-1.7582,-1.7582,-1.8122,-2.0877,-2.1274,-2.1415,-2.4709,-2.4932,-2.4479,-2.599,-2.6168,-2.5944,-2.5759,-2.8331,-3.068,-2.9741,-3.2115,-3.436,-3.3902,-3.6242,-3.8589,-3.9615,-4.0368,-4.1266,-4.2194,-4.2983,-4.3882,-4.4932,-4.5659,-4.6489,-4.7641,-4.9304,-5.1125,-5.3174,-5.3982,-5.461,-5.5149,-5.5688,-5.6047,-5.6166,-5.6645,-5.6974,-5.7094,-5.7182,-5.778,-5.9016,-6.0388,-6.1714,-6.3042,-6.2665,-6.3869,-6.644,-6.8102,-6.9318,-7.0239,-7.2318,-7.3634,-7.4261,-7.3992,-7.3915,-7.3927,-7.3751,-7.3976,-7.4561,-7.5538,-7.6896,-7.8281,6.4208,6.2256,6.0735,6.1534,5.9549,5.7782,5.7962,5.4898,5.2321,5.1484,4.8784,4.661,4.5905,3.7893,3.2053,3.1049,3.0858,2.9982,2.7807,2.6523,2.4923,2.3142,2.1064,1.9624,1.915,1.8695,1.6503,1.2351,1.0547,0.9648,0.9408,0.8635,0.8488,0.894,0.89,0.8662,0.8011,0.2424,-0.3376,-0.9082,-1.2038,-1.4953,-1.7448,-1.7065,-1.7145,-1.7515,-1.7397,-1.7437,-1.7582,-1.7582,-1.7582,-1.8094,-2.0877,-2.208,-2.3077,-2.5115,-2.5819,-2.599,-2.5852,-2.6261,-2.6602,-2.5853,-2.8349,-3.155,-3.381,-3.542,-3.6367,-3.6341,-3.7971,-3.9574,-3.9651,-4.0663,-4.1584,-4.1683,-4.2683,-4.3598,-4.3693,-4.422,-4.4872,-4.5623,-4.8823,-5.1842,-5.3883,-5.467,-5.5089,-5.5179,-5.5269,-5.5568,-5.6137,-5.6256,-5.6526,-5.7064,-5.7617,-5.8429,-5.9627,-6.0357,-6.1776,-6.3717,-6.4357,-6.5309,-6.644,-6.8122,-6.9301,-7.0202,-7.1724,-7.311,-7.4261,-7.3992,-7.4604,-7.5515,-7.4109,-7.4624,-7.6313,-7.6809,-7.7148,-7.7383,6.4546,6.2224,6.0544,6.1662,5.9518,5.7693,5.8052,5.4877,5.2287,5.1735,4.8616,4.6312,4.634,3.7549,3.1459,3.0907,3.0897,3.0509,2.9456,2.8152,2.6422,2.4499,2.281,2.1185,1.9732,1.9546,1.8381,1.6402,1.2023,0.9752,0.9573,0.9334,0.9091,0.895,0.8994,0.8899,0.8471,0.4242,-0.1955,-0.9131,-1.2084,-1.4999,-1.7543,-1.7384,-1.7462,-1.7582,-1.7582,-1.7582,-1.7582,-1.7582,-1.8583,-2.0135,-2.1886,-2.2963,-2.405,-2.5867,-2.6582,-2.6676,-2.6628,-2.6852,-2.7027,-2.7093,-2.9004,-3.1629,-3.4642,-3.5608,-3.611,-3.6682,-3.8319,-3.9697,-3.9697,-4.0185,-4.0567,-4.0567,-4.1019,-4.1723,-4.2708,-4.3444,-4.4884,-4.7687,-5.0569,-5.2645,-5.3593,-5.4251,-5.4491,-5.4102,-5.4431,-5.476,-5.5059,-5.5418,-5.6124,-5.7037,-5.732,-5.8557,-6.0985,-6.1264,-6.2718,-6.5242,-6.5721,-6.6061,-6.6498,-6.8147,-6.9082,-6.9486,-7.0548,-7.1565,-7.2454,-7.2687,-7.3267,-7.4095,-7.4158,-7.5182,-7.6663,-7.7052,-7.7187,-7.7187]},{"header":{"parameterUnit":"m.s-1","parameterCategory":1,"la1":30.6,"la2":28.766,"lo1":-90.7593,"lo2":-88.6598,"dx":0.0162,"dy":0.0183,"nx":116,"ny":114,"refTime":"2023-02-09T06:00:00:Z","depth":0,"parameterNumber":3,"parameterNumberName":"V-component_of_WINDS"},"data":[0.0,0.0,0.0,0.0,0.0,0.0,0.0,0.0,0.0,0.0,0.0,0.0,0.0,0.0,0.0,0.0,0.0,0.0,0.0,0.0,0.0,0.0,0.0,0.0,0.0,0.0,0.0,0.0,0.0,0.0,0.0,0.0,0.0,0.0,0.0,0.0,0.0,0.0,0.0,0.0,0.0,0.0,0.0,0.0,0.0,0.0,0.0,0.0,0.0,0.0,0.0,0.0,0.0,0.0,0.0,0.0,0.0,0.0,0.0,0.0,0.0,0.0,0.0,0.0,0.0,0.0,0.0,0.0,0.0,0.0,0.0,0.0,0.0,0.0,0.0,0.0,0.0,0.0,0.0,0.0,0.0,0.0,0.0,0.0,0.0,0.0,0.0,0.0,0.0,0.0,0.0,0.0,0.0,0.0,0.0,0.0,0.0,0.0,0.0,0.0,0.0,0.0,0.0,0.0,0.0,0.0,0.0,0.0,0.0,0.0,0.0,0.0,0.0,0.0,0.0,0.0,0.0,0.0,0.0,0.0,0.0,0.0,0.0,0.0,0.0,0.0,0.0,0.0,0.0,0.0,0.0,0.0,0.0,0.0,0.0,0.0,0.0,0.0,0.0,0.0,0.0,0.0,0.0,0.0,0.0,0.0,0.0,0.0,0.0,0.0,0.0,0.0,0.0,0.0,0.0,0.0,0.0,0.0,0.0,0.0,0.0,0.0,0.0,0.0,0.0,0.0,0.0,0.0,0.0,0.0,0.0,0.0,0.0,0.0,0.0,0.0,0.0,0.0,0.0,0.0,0.0,0.0,0.0,0.0,0.0,0.0,0.0,0.0,0.0,0.0,0.0,0.0,0.0,0.0,0.0,0.0,0.0,0.0,0.0,0.0,0.0,0.0,0.0,0.0,0.0,0.0,0.0,0.0,0.0,0.0,0.0,0.0,0.0,0.0,0.0,0.0,0.0,0.0,0.0,0.0,0.0,0.0,0.0,0.0,0.0,0.0,0.0,0.0,0.0,0.0,0.0,0.0,0.0,0.0,0.0,0.0,0.0,0.0,0.0,0.0,0.0,0.0,0.0,0.0,0.0,0.0,0.0,0.0,0.0,0.0,0.0,0.0,0.0,0.0,0.0,0.0,0.0,0.0,0.0,0.0,0.0,0.0,0.0,0.0,0.0,0.0,0.0,0.0,0.0,0.0,0.0,0.0,0.0,0.0,0.0,0.0,0.0,0.0,0.0,0.0,0.0,0.0,0.0,0.0,0.0,0.0,0.0,0.0,0.0,0.0,0.0,0.0,0.0,0.0,0.0,0.0,0.0,0.0,0.0,0.0,0.0,0.0,0.0,0.0,0.0,0.0,0.0,0.0,0.0,0.0,0.0,0.0,0.0,0.0,0.0,0.0,0.0,0.0,0.0,0.0,0.0,0.0,0.0,0.0,0.0,0.0,0.0,0.0,0.0,0.0,0.0,0.0,0.0,0.0,0.0,0.0,0.0,0.0,0.0,0.0,0.0,0.0,0.0,0.0,0.0,0.0,0.0,0.0,0.0,0.0,0.0,0.0,0.0,0.0,0.0,0.0,0.0,0.0,0.0,0.0,0.0,0.0,0.0,0.0,0.0,0.0,0.0,0.0,0.0,0.0,0.0,0.0,0.0,0.0,0.0,0.0,0.0,0.0,0.0,0.0,0.0,0.0,0.0,0.0,0.0,0.0,0.0,0.0,0.0,0.0,0.0,0.0,0.0,0.0,0.0,0.0,0.0,0.0,0.0,0.0,0.0,0.0,0.0,0.0,0.0,0.0,0.0,0.0,0.0,0.0,0.0,0.0,0.0,0.0,0.0,0.0,0.0,0.0,0.0,0.0,0.0,0.0,0.0,0.0,0.0,0.0,0.0,0.0,0.0,0.0,0.0,0.0,0.0,0.0,0.0,0.0,0.0,0.0,0.0,0.0,0.0,0.0,0.0,0.0,0.0,0.0,0.0,0.0,0.0,0.0,0.0,0.0,0.0,0.0,0.0,0.0,0.0,0.0,0.0,0.0,0.0,0.0,0.0,0.0,0.0,0.0,0.0,0.0,0.0,0.0,0.0,0.0,0.0,0.0,0.0,0.0,0.0,0.0,0.0,0.0,0.0,0.0,0.0,0.0,0.0,0.0,0.0,0.0,0.0,0.0,0.0,0.0,0.0,0.0,0.0,0.0,0.0,0.0,0.0,0.0,0.0,0.0,0.0,0.0,0.0,0.0,0.0,0.0,0.0,0.0,0.0,0.0,0.0,0.0,0.0,0.0,0.0,0.0,0.0,0.0,0.0,0.0,0.0,0.0,0.0,0.0,0.0,0.0,0.0,0.0,0.0,0.0,0.0,0.0,0.0,0.0,0.0,0.0,0.0,0.0,0.0,0.0,0.0,0.0,0.0,0.0,0.0,0.0,0.0,0.0,0.0,0.0,0.0,0.0,0.0,0.0,0.0,0.0,0.0,0.0,0.0,0.0,0.0,0.0,0.0,0.0,0.0,0.0,0.0,0.0,0.0,0.0,0.0,0.0,0.0,0.0,0.0,0.0,0.0,0.0,0.0,0.0,0.0,0.0,0.0,0.0,0.0,0.0,0.0,0.0,0.0,0.0,0.0,0.0,0.0,0.0,0.0,0.0,0.0,0.0,0.0,0.0,0.0,0.0,0.0,0.0,0.0,0.0,0.0,0.0,0.0,0.0,0.0,0.0,0.0,0.0,0.0,0.0,0.0,0.0,0.0,0.0,0.0,0.0,0.0,0.0,0.0,0.0,0.0,0.0,0.0,0.0,0.0,0.0,0.0,0.0,0.0,0.0,0.0,0.0,0.0,0.0,0.0,0.0,0.0,0.0,0.0,0.0,0.0,0.0,0.0,0.0,0.0,0.0,0.0,0.0,0.0,0.0,0.0,0.0,0.0,0.0,0.0,0.0,0.0,0.0,0.0,0.0,0.0,0.0,0.0,0.0,0.0,0.0,0.0,0.0,0.0,0.0,0.0,0.0,0.0,0.0,0.0,0.0,0.0,0.0,0.0,0.0,0.0,0.0,0.0,0.0,0.0,0.0,0.0,0.0,0.0,0.0,0.0,0.0,0.0,0.0,0.0,0.0,0.0,0.0,0.0,0.0,0.0,0.0,0.0,0.0,0.0,0.0,0.0,0.0,0.0,0.0,0.0,0.0,0.0,0.0,0.0,0.0,0.0,0.0,0.0,0.0,0.0,0.0,0.0,0.0,0.0,0.0,0.0,0.0,0.0,0.0,0.0,0.0,0.0,0.0,0.0,0.0,0.0,0.0,0.0,0.0,0.0,0.0,0.0,0.0,0.0,0.0,0.0,0.0,0.0,0.0,0.0,0.0,0.0,0.0,0.0,0.0,0.0,0.0,0.0,0.0,0.0,0.0,0.0,0.0,0.0,0.0,0.0,0.0,0.0,0.0,0.0,0.0,0.0,0.0,0.0,0.0,0.0,0.0,0.0,0.0,0.0,0.0,0.0,0.0,0.0,0.0,0.0,0.0,0.0,0.0,0.0,0.0,0.0,0.0,0.0,0.0,0.0,0.0,0.0,0.0,0.0,0.0,0.0,0.0,0.0,0.0,0.0,0.0,0.0,0.0,0.0,0.0,0.0,0.0,0.0,0.0,0.0,0.0,0.0,0.0,0.0,0.0,0.0,0.0,0.0,0.0,0.0,0.0,0.0,0.0,0.0,0.0,0.0,0.0,0.0,0.0,0.0,0.0,0.0,0.0,0.0,0.0,0.0,0.0,0.0,0.0,0.0,0.0,0.0,0.0,0.0,0.0,0.0,0.0,0.0,0.0,0.0,0.0,0.0,0.0,0.0,0.0,0.0,0.0,0.0,0.0,0.0,0.0,0.0,0.0,0.0,0.0,0.0,0.0,0.0,0.0,0.0,0.0,0.0,0.0,0.0,0.0,0.0,0.0,0.0,0.0,0.0,0.0,0.0,0.0,0.0,0.0,0.0,0.0,0.0,0.0,0.0,0.0,0.0,0.0,0.0,0.0,0.0,0.0,0.0,0.0,0.0,0.0,0.0,0.0,0.0,0.0,0.0,0.0,0.0,0.0,0.0,0.0,0.0,0.0,0.0,0.0,0.0,0.0,0.0,0.0,0.0,0.0,0.0,0.0,0.0,0.0,0.0,0.0,0.0,0.0,0.0,0.0,0.0,0.0,0.0,0.0,0.0,0.0,0.0,0.0,0.0,0.0,0.0,0.0,0.0,0.0,0.0,0.0,0.0,0.0,0.0,0.0,0.0,0.0,0.0,0.0,0.0,0.0,0.0,0.0,0.0,0.0,0.0,0.0,0.0,0.0,0.0,0.0,0.0,0.0,0.0,0.0,0.0,0.0,0.0,0.0,0.0,0.0,0.0,0.0,0.0,0.0,0.0,0.0,0.0,0.0,0.0,0.0,0.0,0.0,0.0,0.0,0.0,0.0,0.0,0.0,0.0,0.0,0.0,0.0,0.0,0.0,0.0,0.0,0.0,0.0,0.0,0.0,0.0,0.0,0.0,0.0,0.0,0.0,0.0,0.0,0.0,0.0,0.0,0.0,0.0,0.0,0.0,0.0,0.0,0.0,0.0,0.0,0.0,0.0,0.0,0.0,0.0,0.0,0.0,0.0,0.0,0.0,0.0,0.0,0.0,0.0,0.0,0.0,0.0,0.0,0.0,0.0,0.0,0.0,0.0,0.0,0.0,0.0,0.0,0.0,0.0,0.0,0.0,0.0,0.0,0.0,0.0,0.0,0.0,0.0,0.0,0.0,0.0,0.0,0.0,0.0,0.0,0.0,0.0,0.0,0.0,0.0,0.0,0.0,0.0,0.0,0.0,0.0,0.0,0.0,0.0,0.0,0.0,0.0,0.0,0.0,0.0,0.0,0.0,0.0,0.0,0.0,0.0,0.0,0.0,0.0,0.0,0.0,0.0,0.0,0.0,0.0,0.0,0.0,0.0,0.0,0.0,0.0,0.0,0.0,0.0,0.0,0.0,0.0,0.0,0.0,0.0,0.0,0.0,0.0,0.0,0.0,0.0,0.0,0.0,0.0,0.0,0.0,0.0,0.0,0.0,0.0,0.0,0.0,0.0,0.0,0.0,0.0,0.0,0.0,0.0,0.0,0.0,0.0,0.0,0.0,0.0,0.0,0.0,0.0,0.0,0.0,0.0,0.0,0.0,0.0,0.0,0.0,0.0,0.0,0.0,0.0,0.0,0.0,0.0,0.0,0.0,0.0,0.0,0.0,0.0,0.0,0.0,0.0,0.0,0.0,0.0,0.0,0.0,0.0,0.0,0.0,0.0,0.0,0.0,0.0,0.0,0.0,0.0,0.0,0.0,0.0,0.0,0.0,0.0,0.0,0.0,0.0,0.0,0.0,0.0,0.0,0.0,0.0,0.0,0.0,0.0,0.0,0.0,0.0,0.0,0.0,0.0,0.0,0.0,0.0,0.0,0.0,0.0,0.0,0.0,0.0,0.0,0.0,0.0,0.0,0.0,0.0,0.0,0.0,0.0,0.0,0.0,0.0,0.0,0.0,0.0,0.0,0.0,0.0,0.0,0.0,0.0,0.0,0.0,0.0,0.0,0.0,0.0,0.0,0.0,0.0,0.0,0.0,0.0,0.0,0.0,0.0,0.0,0.0,0.0,0.0,0.0,0.0,0.0,0.0,0.0,0.0,0.0,0.0,0.0,0.0,0.0,0.0,0.0,0.0,0.0,0.0,0.0,0.0,0.0,0.0,0.0,0.0,0.0,0.0,0.0,0.0,0.0,0.0,0.0,0.0,0.0,0.0,0.0,0.0,0.0,0.0,0.0,0.0,0.0,0.0,0.0,0.0,0.0,0.0,0.0,0.0,0.0,0.0,0.0,0.0,0.0,0.0,0.0,0.0,0.0,0.0,0.0,0.0,0.0,0.0,0.0,0.0,0.0,0.0,0.0,0.0,0.0,0.0,0.0,0.0,0.0,0.0,0.0,0.0,0.0,0.0,0.0,0.0,0.0,0.0,0.0,0.0,0.0,0.0,0.0,0.0,0.0,0.0,0.0,0.0,0.0,0.0,0.0,0.0,0.0,0.0,0.0,0.0,-2.3654,0.0,0.0,0.0,0.0,0.0,0.0,0.0,0.0,0.0,0.0,0.0,0.0,0.0,0.0,0.0,0.0,0.0,0.0,0.0,0.0,0.0,0.0,0.0,0.0,0.0,0.0,0.0,0.0,0.0,0.0,0.0,0.0,0.0,0.0,0.0,0.0,0.0,0.0,0.0,-4.482,-4.4018,-4.3359,-4.4347,-4.4646,-4.4407,0.0,0.0,0.0,0.0,0.0,0.0,0.0,0.0,0.0,0.0,0.0,0.0,0.0,0.0,0.0,0.0,0.0,0.0,0.0,0.0,0.0,0.0,0.0,0.0,0.0,0.0,0.0,0.0,0.0,0.0,0.0,0.0,0.0,0.0,0.0,0.0,0.0,0.0,0.0,0.0,0.0,0.0,0.0,0.0,0.0,0.0,0.0,0.0,0.0,0.0,0.0,0.0,0.0,0.0,0.0,0.0,0.0,0.0,0.0,0.0,0.0,0.0,0.0,0.0,0.0,0.0,0.0,0.0,0.0,0.0,0.0,-2.0985,0.0,0.0,0.0,0.0,0.0,0.0,0.0,0.0,0.0,0.0,0.0,0.0,0.0,0.0,0.0,0.0,0.0,0.0,0.0,0.0,0.0,0.0,0.0,0.0,-4.2965,-4.3299,-4.3488,0.0,0.0,0.0,0.0,0.0,0.0,0.0,0.0,-4.4511,-4.4786,-4.4609,-4.3618,-4.315,-4.318,-4.3838,-4.3838,-4.3419,-4.5304,0.0,0.0,0.0,0.0,0.0,0.0,0.0,0.0,0.0,0.0,0.0,0.0,0.0,0.0,0.0,0.0,0.0,0.0,0.0,0.0,0.0,0.0,0.0,0.0,0.0,0.0,0.0,0.0,0.0,0.0,0.0,0.0,0.0,0.0,0.0,0.0,0.0,0.0,0.0,0.0,0.0,0.0,0.0,0.0,0.0,0.0,0.0,0.0,0.0,0.0,0.0,0.0,0.0,0.0,0.0,0.0,0.0,0.0,0.0,0.0,0.0,0.0,0.0,-2.1285,-2.0655,-2.0882,-2.0935,-2.0695,-2.0254,-2.0601,-1.9534,-1.746,-1.917,0.0,0.0,0.0,0.0,0.0,0.0,0.0,0.0,0.0,0.0,0.0,0.0,0.0,0.0,0.0,0.0,0.0,0.0,0.0,0.0,0.0,-4.3609,-4.4113,-4.3409,-4.4082,-4.4205,0.0,0.0,0.0,0.0,0.0,0.0,-4.5495,-4.5354,-4.5414,-4.5727,-4.3607,-4.2491,-4.2491,-4.315,-4.3419,-4.3389,-4.4796,-4.5753,-4.6322,0.0,0.0,0.0,0.0,0.0,0.0,0.0,0.0,0.0,0.0,0.0,0.0,0.0,0.0,0.0,0.0,0.0,0.0,0.0,0.0,0.0,0.0,0.0,0.0,0.0,0.0,0.0,0.0,0.0,0.0,0.0,0.0,0.0,0.0,0.0,0.0,0.0,0.0,0.0,0.0,0.0,-3.9421,-3.8282,0.0,0.0,0.0,0.0,0.0,0.0,0.0,0.0,0.0,0.0,0.0,0.0,0.0,-2.4039,-2.4117,-2.1704,-2.074,-2.1039,-2.0281,-1.9933,-1.9987,-2.0227,-2.0307,-2.0267,-2.0815,0.0,-1.5535,-1.7691,0.0,0.0,0.0,0.0,0.0,0.0,0.0,0.0,0.0,0.0,0.0,0.0,0.0,0.0,0.0,0.0,0.0,0.0,0.0,0.0,0.0,-4.3045,-4.3304,-4.2869,-4.3227,-4.3227,-4.2791,0.0,0.0,0.0,0.0,-4.3687,-4.44,-4.3897,-4.3536,-4.3381,-4.2741,-4.2162,-4.1833,-4.2851,-4.3329,-4.3389,-4.4706,-4.5454,-4.5753,-4.6191,0.0,0.0,0.0,0.0,0.0,0.0,0.0,0.0,0.0,0.0,0.0,0.0,0.0,0.0,0.0,0.0,0.0,0.0,0.0,0.0,0.0,0.0,0.0,0.0,0.0,0.0,0.0,0.0,0.0,0.0,0.0,0.0,0.0,0.0,0.0,0.0,0.0,0.0,0.0,-4.3015,-4.0439,-3.8777,-3.8589,-3.8064,0.0,0.0,0.0,0.0,0.0,0.0,0.0,0.0,0.0,-2.6759,-2.3748,-2.2171,-2.1817,-2.0713,-2.0374,-2.0668,-2.0414,-2.0468,-2.0788,-2.0922,-2.1069,-2.1243,-2.1657,-1.9613,-1.6014,-1.6891,-1.4787,-1.1337,0.0,0.0,0.0,0.0,-1.6187,-1.5983,0.0,0.0,0.0,0.0,0.0,0.0,0.0,0.0,0.0,0.0,0.0,0.0,-4.1911,-4.1882,-4.1763,-4.1763,-4.2175,-4.2372,-4.2372,-4.2821,0.0,0.0,-4.3329,-4.3419,-4.3569,-4.2791,-4.2132,-4.1624,-4.2132,-4.2192,-4.1893,-4.321,-4.3928,-4.4137,-4.5125,-4.5574,-4.5574,-4.5574,-4.5843,-4.6491,0.0,0.0,0.0,0.0,0.0,0.0,0.0,0.0,0.0,0.0,0.0,0.0,0.0,0.0,0.0,0.0,0.0,0.0,0.0,0.0,0.0,0.0,0.0,0.0,0.0,0.0,0.0,0.0,0.0,0.0,0.0,0.0,0.0,0.0,0.0,0.0,0.0,-4.2855,-4.0822,-3.9017,-3.8383,-3.7592,0.0,0.0,0.0,0.0,0.0,0.0,-3.1157,-2.8737,-2.6542,-2.4849,-2.2291,-2.0788,-2.0347,-2.0414,-2.0561,-2.0788,-2.0788,-2.1056,-2.155,-2.163,-2.1817,-2.2111,-2.1854,-1.9923,-1.6752,-1.6631,-1.4367,-1.1214,-1.2904,-1.3595,-1.3693,-1.3815,-1.3953,-1.3778,0.0,0.0,0.0,0.0,0.0,0.0,0.0,0.0,0.0,0.0,0.0,-3.8851,-4.0706,-4.0466,-4.0089,-3.9931,-4.141,-4.2372,-4.2372,-4.2402,-4.2671,-4.3299,-4.3329,-4.3629,-4.4257,-4.3,-4.2342,-4.2312,-4.2342,-4.2671,-4.3269,-4.4586,-4.5544,-4.6172,-4.6232,-4.6262,-4.6262,-4.6262,-4.6292,-4.6581,-4.9993,0.0,0.0,0.0,0.0,0.0,0.0,0.0,0.0,0.0,0.0,0.0,0.0,0.0,0.0,0.0,0.0,0.0,0.0,0.0,0.0,0.0,0.0,0.0,0.0,0.0,0.0,0.0,0.0,0.0,0.0,0.0,0.0,0.0,0.0,0.0,0.0,0.0,0.0,-3.8033,-3.6662,0.0,0.0,0.0,0.0,-3.1487,-3.2078,-3.1025,-2.75,-2.6199,-2.4698,-2.2751,-2.138,-2.0681,-2.0655,-2.0922,-2.1069,-2.1082,-2.1082,-2.1256,-2.1563,-2.1844,-2.2124,-2.2271,-2.0897,-1.9044,-1.7187,-1.6889,-1.4653,-1.1355,-1.1365,-1.1489,-1.1749,-1.1756,-1.1763,-1.1749,0.0,0.0,0.0,0.0,0.0,0.0,0.0,0.0,0.0,-4.1265,-3.9795,-3.9324,-4.1122,-3.9722,-3.9187,-4.021,-4.0873,-4.1322,-4.1743,-4.2758,-4.3363,-4.3608,-4.4435,-4.4339,-4.306,-4.2818,-4.2332,-4.1743,-4.3244,-4.3897,-4.3988,-4.5334,-4.6322,-4.698,-4.7399,-4.7818,-4.8147,-4.686,-4.6561,-4.7036,-4.8531,-4.9504,0.0,0.0,0.0,0.0,0.0,0.0,0.0,0.0,0.0,0.0,0.0,0.0,0.0,0.0,0.0,0.0,0.0,0.0,0.0,0.0,0.0,0.0,0.0,0.0,0.0,0.0,0.0,0.0,0.0,0.0,0.0,0.0,0.0,0.0,0.0,0.0,0.0,-3.9164,-3.7689,0.0,-3.4547,-3.4334,-3.3254,-3.0691,-3.0529,-2.9556,-2.7254,-2.5948,-2.4556,-2.2795,-2.1534,-2.0949,-2.0949,-2.1056,-2.1203,-2.139,-2.139,-2.1643,-2.2111,-2.2218,-2.2418,-2.2712,-2.2121,-2.0051,-1.7238,-1.7076,-1.4762,-1.1375,-1.1219,-1.1226,-1.1328,-1.1328,-1.1389,-1.1477,0.0,0.0,0.0,0.0,0.0,0.0,0.0,0.0,-4.0487,-4.0696,-3.9706,-3.9341,-4.0288,-3.9005,-3.8616,-3.9924,-3.991,-4.043,-4.1637,-4.2332,-4.3094,-4.4068,-4.4967,-4.4389,-4.2149,-4.3008,-4.3229,-4.2591,-4.4541,-4.5526,-4.5516,-4.6281,-4.713,-4.7997,-4.8656,-4.9434,-5.0182,-4.8865,-4.8177,-4.8025,-4.889,-5.0084,-5.1481,0.0,0.0,0.0,0.0,0.0,0.0,0.0,0.0,0.0,0.0,0.0,0.0,0.0,0.0,0.0,0.0,0.0,0.0,0.0,0.0,0.0,0.0,0.0,0.0,0.0,0.0,0.0,0.0,0.0,0.0,0.0,0.0,0.0,0.0,0.0,-3.9371,-4.0076,-3.7952,-3.6026,-3.5007,-3.3608,-3.1911,-2.9951,-2.9315,-2.8254,-2.6609,-2.5423,-2.4008,-2.2558,-2.1655,-2.1256,-2.1256,-2.0695,-2.0528,-2.0618,-2.072,-2.1014,-2.1449,-2.2136,-2.2579,-2.2859,-2.1596,-1.9495,-1.7117,-1.5849,-1.3807,-1.1457,-1.1355,-1.1314,-1.1321,-1.1369,-1.145,-1.1545,0.0,0.0,0.0,0.0,0.0,0.0,0.0,-4.0008,-4.0187,-3.9499,-3.9207,-3.8789,-3.8062,-3.8145,-3.8394,-3.8918,-3.8875,-3.9731,-4.2282,-4.119,-4.1789,-4.4644,-4.4781,-4.3714,-4.155,-4.3758,-4.493,-4.4962,-4.633,-4.7325,-4.7818,-4.7546,-4.8115,-4.9404,-4.9972,-5.102,-5.2247,-5.2276,-5.1199,-4.9614,-5.1199,-5.2565,-5.3616,0.0,0.0,0.0,0.0,0.0,0.0,0.0,0.0,0.0,0.0,0.0,0.0,0.0,0.0,0.0,0.0,0.0,0.0,0.0,0.0,0.0,0.0,0.0,0.0,0.0,0.0,0.0,0.0,0.0,0.0,0.0,0.0,0.0,-4.11,-4.083,-4.0668,-4.0658,-3.7345,-3.4754,-3.4102,-3.2146,-3.0335,-2.8984,-2.8236,-2.7029,-2.5353,-2.4254,-2.3001,-2.1679,-2.1563,-2.1563,-2.1563,-1.9964,-1.9026,-1.8792,-1.9037,-1.9294,-1.9675,-2.161,-2.2592,-2.2722,-1.8938,-1.7248,-1.6977,-1.3174,-1.1619,-1.1619,-1.1619,-1.1619,-1.1633,-1.1769,-1.1816,-1.1789,0.0,0.0,0.0,0.0,0.0,0.0,0.0,-4.0397,-4.0696,-3.9559,-3.9589,-3.9592,-3.9207,-3.8949,-3.9369,-4.0772,-3.9934,-4.0118,-4.2234,-4.1797,-4.2458,-4.4719,-4.3851,-4.353,-4.3925,-4.5227,-4.6144,-4.6725,-4.8715,-4.9415,-4.8961,-4.9931,-5.0632,-5.1168,-5.1843,-5.2732,-5.3683,-5.4162,-5.4341,-5.4171,-5.2175,-5.2167,-5.3323,0.0,0.0,0.0,0.0,0.0,0.0,0.0,0.0,0.0,0.0,0.0,0.0,0.0,0.0,0.0,0.0,0.0,0.0,0.0,0.0,0.0,0.0,0.0,0.0,0.0,0.0,0.0,0.0,0.0,0.0,0.0,-4.466,-4.2106,-4.0427,-3.978,-3.9336,-3.8804,-3.6895,-3.5432,-3.5012,-3.3007,-3.1035,-2.9046,-2.8537,-2.7159,-2.473,-2.4119,-2.3319,-2.1988,-2.1871,-2.1871,-2.1871,-1.9998,-1.9158,-1.9317,-1.9334,-1.9511,-2.0083,-2.1906,-2.2779,-2.2722,-2.034,-1.8508,-1.6967,-1.4574,-1.2888,-1.1619,-1.1619,-1.1619,-1.1613,-1.1538,-1.1443,-1.1341,0.0,0.0,0.0,0.0,0.0,0.0,0.0,-4.0307,-4.0248,-3.825,-3.9723,-4.0392,-3.8705,-3.9196,-4.0039,-4.1073,-3.9642,-3.9625,-4.1816,-4.2383,-4.2839,-4.3349,-4.3303,-4.3738,-4.4899,-4.6421,-4.7748,-4.8887,-5.0785,-5.1182,-5.0237,-5.1247,-5.1599,-5.1635,-5.3464,-5.4637,-5.5469,-5.6972,-5.8221,-5.89,-5.6614,-5.6085,-5.6445,-5.5783,-5.6336,-5.7412,-5.6761,-5.7794,-5.9202,-5.7185,0.0,0.0,0.0,0.0,0.0,0.0,0.0,0.0,0.0,0.0,0.0,0.0,0.0,0.0,0.0,0.0,0.0,0.0,0.0,0.0,0.0,0.0,0.0,0.0,-4.4458,-4.2738,-4.045,-3.9854,-3.9136,-3.7861,-3.6848,-3.5813,-3.4949,-3.2547,-3.0524,-2.922,-2.7675,-2.6004,-2.4516,-2.3594,-2.2888,-2.2151,-2.2164,-2.2164,-2.2164,-2.0355,-1.9475,-1.9663,-1.9628,-1.9906,-2.0201,-2.2022,-2.2859,-2.2722,-2.0051,-1.8229,-1.6967,-1.4298,-1.2565,0.0,0.0,0.0,0.0,0.0,-1.124,-1.1151,0.0,0.0,0.0,0.0,0.0,0.0,0.0,-4.0038,-3.9446,-3.6532,-3.9802,-4.1096,-3.7545,-3.923,-4.0545,-4.0631,-3.89,-3.8702,-4.101,-4.2585,-4.2842,-4.158,-4.2952,-4.4254,-4.5391,-4.7448,-4.9458,-5.1479,-5.26,-5.2637,-5.166,-5.2167,-5.2021,-5.169,-5.4978,-5.6778,-5.765,-6.0168,-6.2011,-6.326,-6.2811,-6.2009,-6.1165,-6.0501,-6.1904,-6.4029,-6.2729,-6.2151,-6.1742,-6.0078,0.0,0.0,0.0,0.0,0.0,0.0,0.0,0.0,0.0,0.0,0.0,0.0,0.0,0.0,0.0,0.0,0.0,0.0,0.0,0.0,0.0,0.0,0.0,0.0,-4.4239,-4.3286,-4.1161,-4.0551,-3.9702,-3.7702,-3.6903,-3.5939,-3.456,-3.1667,-2.9617,-2.9279,-2.6455,-2.4575,-2.426,0.0,0.0,0.0,0.0,-2.2472,-2.2472,-2.0884,-1.991,-1.971,-1.991,-2.0027,-2.0201,-2.2022,-2.2859,-2.2722,-1.8787,-1.7248,-1.6977,-1.3174,-1.1531,-1.1402,-1.1518,-1.1477,-1.1321,-1.1185,-1.1124,-1.1097,0.0,0.0,0.0,0.0,0.0,0.0,0.0,-4.0427,-4.0203,-3.7496,-4.0233,-4.1083,-3.7676,-3.918,-4.0664,-4.1198,-3.9416,-3.8686,-3.9738,-4.0618,-4.14,-4.2209,-4.3025,-4.508,-4.8552,-4.8989,-5.1019,-5.4727,-5.4424,-5.3995,-5.3487,-5.477,-5.4581,-5.3407,-5.6766,-5.8781,-5.9768,-6.1822,-6.3485,-6.4799,-6.5247,-6.4544,-6.3129,-6.2496,-6.2148,-6.1883,-6.1637,-6.3574,-6.5871,-6.301,-6.4446,-6.6843,-6.2879,-6.075,0.0,0.0,0.0,0.0,0.0,0.0,0.0,0.0,0.0,0.0,0.0,0.0,0.0,0.0,0.0,0.0,0.0,0.0,0.0,-4.6946,-4.4972,-4.3354,-4.3409,-4.1756,-4.0105,-3.8785,-3.6382,-3.4677,-3.4442,-3.2694,-3.0649,-2.8145,-2.7128,-2.555,-2.3323,-2.2593,-2.2472,-2.2766,-2.2779,-2.2779,-2.2779,-2.0786,-1.9953,-1.998,0.0,0.0,-2.0201,-2.2022,-2.2859,-2.2722,-1.8787,-1.7248,-1.6977,-1.3174,-1.1531,-1.1382,-1.1287,-1.1158,-1.1029,-1.1002,-1.0914,-1.0799,0.0,0.0,0.0,0.0,0.0,0.0,0.0,-3.9921,-4.0129,-3.8001,-4.0472,-4.1441,-3.8974,-4.0323,-4.1384,-4.1384,-4.0157,-3.9679,-4.0367,-4.1025,-4.1803,-4.2791,-4.4137,-4.6425,-4.9897,-5.0602,-5.2529,-5.5716,-5.5716,-5.5487,-5.515,-5.5961,-5.6016,-5.5535,-5.8582,-6.0516,-6.1817,-6.4426,-6.6344,-6.773,-6.8093,-6.791,-6.7402,-6.6428,-6.588,-6.573,-6.573,-6.6919,-6.8221,-6.6206,-6.6762,-6.7871,-6.5411,-6.3246,-6.1798,0.0,0.0,0.0,0.0,0.0,0.0,0.0,0.0,0.0,0.0,0.0,0.0,0.0,0.0,-5.1706,-5.1184,0.0,-4.6966,-4.6489,-4.5733,-4.4501,-4.2856,-4.1229,-3.9798,-3.8643,-3.6522,-3.4773,-3.3963,-3.2487,-3.0809,-2.931,-2.7328,-2.5703,-2.4303,-2.3406,-2.2939,-2.3086,-2.31,-2.31,-2.31,-2.1945,-2.1457,-2.1459,-2.1445,-2.1533,-2.1672,-2.2513,-2.2953,-2.2948,-1.997,-1.8025,-1.6788,-1.2858,-1.124,-1.1151,-1.1002,-1.0941,-1.0941,-1.086,-1.0785,-1.0717,0.0,0.0,0.0,0.0,0.0,0.0,0.0,0.0,-4.0055,-3.8485,-4.0707,-4.1751,-4.011,-4.1151,-4.1773,-4.1235,-4.0696,-4.0726,-4.1504,-4.1953,-4.2701,-4.3868,-4.5574,-4.7987,-5.1243,-5.2236,-5.4032,-5.6562,-5.7002,-5.7096,-5.6863,-5.7158,-5.7401,-5.7684,-6.048,-6.245,-6.3897,-6.699,-6.9147,-7.0432,-7.0567,-7.0906,-7.1222,-7.0209,-7.0122,-7.0398,-7.0398,-7.0049,-6.9423,-6.9177,-6.8355,-6.743,-6.743,-6.5962,-6.4254,-6.457,-6.3462,0.0,0.0,0.0,0.0,0.0,0.0,0.0,0.0,-5.8081,-5.7716,-5.5009,-5.3123,-5.1693,-5.0951,-4.9351,-4.7654,-4.5912,-4.6353,-4.5739,-4.253,-4.0814,-3.9523,-3.8604,-3.6817,-3.5085,-3.3681,-3.2222,-3.1249,-3.0771,-2.7883,-2.5935,-2.5607,-2.4136,-2.3354,-2.3407,-2.3407,-2.338,-2.3327,-2.3073,-2.2926,-2.2859,-2.2859,-2.2993,-2.322,-2.2979,-2.2993,-2.3081,-2.0515,-1.8302,-1.6137,-1.2399,-1.0948,-1.0934,-1.0778,-1.0799,-1.0887,-1.0765,-1.085,-1.124,0.0,0.0,0.0,0.0,0.0,0.0,0.0,0.0,0.0,-3.9414,-4.1069,-4.1654,-3.9682,-4.0144,-4.0576,-4.0516,-4.0427,-4.0935,-4.2162,-4.1773,-4.2851,-4.5843,-4.677,-4.942,-5.4127,-5.3743,-5.5469,-5.9607,-5.9032,-5.8907,-5.9251,-5.9876,-5.9946,-5.9772,-6.3056,-6.5008,-6.5923,-6.8719,-7.0432,-7.1244,-7.1887,-7.1819,-7.1379,-7.1806,-7.1728,-7.1176,-7.1176,-7.0416,-6.967,-7.1049,-7.1159,-7.077,-7.077,-7.0073,-6.884,-6.6472,-6.4399,-6.2677,-6.172,-6.0096,-5.8424,-5.7718,-5.7605,-5.7325,0.0,-5.5983,-5.6014,-5.5188,-5.306,-5.1459,-5.198,-4.9851,-4.7897,-4.7612,-4.7002,-4.6256,-4.5171,-4.2339,-4.0275,-3.9814,-3.679,-3.4654,-3.4043,-3.3856,-3.291,-3.0936,-2.8952,-2.7382,-2.6072,-2.4247,-2.3447,-2.3714,-2.3728,-2.3594,-2.3327,-2.3287,-2.314,-2.2859,-2.2859,-2.2886,-2.2913,-2.2873,-2.2886,-2.2749,-1.8992,-1.6137,-1.4028,-1.1818,-1.0948,-1.0934,-1.0778,-1.0731,-1.0744,-1.0724,-1.163,-1.3062,0.0,0.0,0.0,0.0,0.0,0.0,0.0,0.0,0.0,0.0,-4.1953,-4.2611,-4.1773,-4.1953,-4.2102,-4.2102,-4.1414,-4.1683,-4.3389,-4.324,-4.4407,-4.7339,-4.8835,-5.1356,-5.5165,-5.5409,-5.6972,-6.0114,-5.981,-6.0189,-6.1207,-6.0821,-6.1382,-6.2892,-6.4383,-6.5849,-6.746,-6.9413,-7.0872,-7.1988,-7.2293,-7.2225,-7.1988,-7.2293,-7.1109,-6.9403,-6.9885,-7.0149,0.0,-7.0053,-7.0563,-7.1321,-7.1321,-7.011,-6.8546,-6.7651,-6.5128,-6.2142,-5.9829,-5.8918,-5.8501,-5.8153,-5.8492,-5.8857,-5.8676,-5.9025,-5.8905,-5.7119,-5.5223,-5.3989,-5.4195,-5.2183,-5.0133,-4.9075,-4.8627,-4.7423,-4.4814,-4.2125,-3.9989,-3.8625,-3.7085,-3.5429,-3.3877,-3.4538,-3.4312,-3.2492,-2.9735,-2.8063,-2.7478,-2.4986,-2.3728,-2.4008,-2.4022,-2.3968,-2.3834,-2.35,-2.326,-2.3126,-2.1823,-2.1974,-2.3126,-2.181,-2.1782,-2.2443,-1.8586,-1.632,-1.5032,-1.2067,-1.0812,-1.0812,-1.0744,-1.1372,-1.215,-1.215,-1.2676,-1.3456,0.0,0.0,0.0,0.0,0.0,0.0,0.0,0.0,0.0,0.0,-4.2372,-4.315,-4.3299,-4.3329,-4.3329,-4.3329,-4.2312,-4.2402,-4.4197,-4.4317,-4.5514,-4.8177,-5.0002,-5.2611,-5.6274,-5.6979,-5.8671,-6.1332,-6.1332,-6.211,-6.3599,-6.2682,-6.3677,-6.6101,-6.6301,-6.7397,-6.9151,-7.031,-7.1548,-7.2732,-7.2935,-7.2766,-7.236,-7.1954,-7.0202,-6.8061,-6.8888,-6.8892,-6.8433,-6.8307,-6.8909,-6.9743,-7.0183,-6.9265,-6.7867,-6.7074,-6.4362,-6.1106,-5.8922,-5.8688,-5.9094,-5.9192,-5.9791,-6.0594,-6.1619,-6.2216,-6.1986,-6.0009,-5.8527,-5.7323,-5.6723,-5.4665,-5.2358,-5.0798,-4.9803,-4.7986,-4.4061,-4.2056,-4.0118,-3.7881,-3.7579,-3.6555,-3.3957,-3.5067,-3.5232,-3.3544,-3.023,-2.8477,-2.8689,-2.5649,-2.4022,-2.4315,-2.4329,-2.4249,-2.4088,-2.3661,-2.3367,-2.3193,-2.1559,-2.171,-2.3193,-2.1471,-2.1331,-2.2138,-1.834,-1.6491,-1.6014,-1.2204,-1.0717,-1.0717,-1.0717,-1.1762,-1.3325,-1.384,-1.4362,-1.4884,0.0,0.0,0.0,0.0,0.0,0.0,0.0,0.0,0.0,0.0,0.0,0.0,0.0,-4.3329,-4.3329,-4.3329,-4.2731,-4.291,-4.4227,-4.4317,-4.5514,-4.8177,-4.9553,-5.2641,-5.774,-5.851,-6.0663,-6.4478,-6.4478,-6.5222,-6.6677,-6.6593,-6.7438,-6.8958,-6.9755,-7.0445,-7.1222,-7.2022,-7.2766,-7.351,-7.4255,-7.368,-7.2225,-7.0804,-6.9288,-6.8118,-6.8922,-6.6412,-6.32,-6.637,-6.6562,-6.5742,-6.732,-6.8274,-6.8073,-6.4119,-6.1337,-5.9579,-6.0092,-6.0096,-6.0137,-6.0925,-6.1146,-6.1726,-6.3813,-6.4257,-6.4155,-6.377,-6.2714,-6.1301,-5.9663,-5.6837,-5.4238,-5.2636,-5.0215,-4.725,-4.3651,-4.2518,-4.1065,-3.85,-3.8482,-3.7656,0.0,-3.56,-3.5602,-3.3583,-3.0346,-2.8705,-2.893,-2.5968,-2.4329,-2.4609,-2.4623,-2.4356,-2.3794,-2.3768,-2.346,-2.2873,-2.2873,-2.2873,-2.2859,-2.2565,-2.2271,-2.1846,-1.8083,-1.6267,-1.5664,-1.2157,-1.0717,-1.0717,-1.0717,-1.1762,-1.3447,-1.5135,-1.6947,-1.8372,0.0,0.0,0.0,0.0,0.0,0.0,0.0,0.0,0.0,0.0,0.0,0.0,0.0,0.0,0.0,0.0,-4.2731,-4.291,-4.4227,-4.4317,-4.5604,-4.8485,-5.0345,-5.3239,-5.733,-5.8619,-6.0754,-6.3869,-6.3869,-6.4884,-6.6812,-6.6812,-6.7895,-6.9823,-7.0094,-7.0872,-7.2056,-7.2293,-7.2834,-7.3477,-7.324,-7.2834,-7.2124,-6.962,-6.7462,-6.5683,0.0,-6.4124,-6.3298,-6.3475,-6.3994,-6.4494,-6.4457,-6.5044,-6.5184,-6.2501,-6.0979,-6.0235,-6.0339,-6.1011,-6.2119,-6.3959,-6.4948,-6.5979,-6.7987,-6.8457,-6.7719,-6.5207,-6.331,-6.1121,-5.7873,-5.517,-5.2627,-5.0183,-4.9181,-4.7238,-4.3167,-4.1411,-3.9552,-3.672,-3.6382,-3.5361,0.0,0.0,0.0,-3.3631,-3.145,-2.995,-2.955,-2.6098,-2.4342,-2.4623,-2.4636,-2.4543,-2.4342,-2.4155,-2.3861,-2.346,-2.306,-2.2297,-2.1032,-2.0946,-2.065,-2.0086,-1.6365,-1.4539,-1.397,-1.163,-1.1372,-1.2281,-1.1108,-1.2413,-1.5135,-1.5654,-1.6947,-1.864,0.0,0.0,0.0,0.0,0.0,0.0,0.0,0.0,0.0,0.0,0.0,0.0,0.0,0.0,0.0,0.0,0.0,-4.306,-4.3898,-4.4459,-4.5727,-4.7874,-5.03,-5.3191,-5.6343,-5.7902,-5.9823,-6.2313,-6.2313,-6.3294,-6.5222,-6.5222,-6.6576,-6.9011,-6.9248,-7.0364,-7.2022,-7.2022,-7.2293,-7.2597,-7.1312,-7.0643,-7.0106,-6.68,-6.4876,0.0,-6.1911,-6.1996,-6.2803,-6.1922,-6.2511,-6.3503,-6.2658,-6.2475,-6.2299,-6.0905,-6.0662,-6.0973,-6.1289,-6.2819,-6.488,-6.7018,-6.8488,-6.9705,-7.0722,-7.0746,-6.9461,-6.5851,-6.3648,-6.125,-5.7431,-5.4049,-5.1178,-4.9033,-4.7511,-4.5257,-4.1377,-4.0194,-3.8506,-3.5346,-3.5061,-3.4466,-3.2451,-3.5769,0.0,-3.3375,-3.1374,-3.0087,-2.9412,-2.62,-2.4489,-2.4783,-2.469,-2.4636,-2.4636,-2.4342,-2.4008,-2.3607,-2.31,-2.1885,-2.0051,-1.9863,-1.9321,-1.8195,-1.5078,-1.3544,-1.3193,-1.1372,-1.1762,-1.3193,-1.2025,-1.3325,-1.5913,-1.656,-1.7602,-1.8768,0.0,0.0,0.0,0.0,0.0,0.0,0.0,0.0,0.0,0.0,0.0,0.0,0.0,0.0,0.0,0.0,0.0,0.0,-4.3329,-4.4708,-4.5943,-4.664,-4.9552,-5.2359,-5.4952,-5.6435,-5.8096,-6.0047,-6.0047,-6.0825,-6.2347,-6.2347,-6.3869,-6.6609,-6.732,-6.8842,-7.0906,-7.0906,-7.0906,-7.0792,-6.8538,-6.736,-6.6401,-6.2744,-6.1822,-6.2278,-6.0051,-6.0259,-6.1594,-6.1594,-6.2071,-6.2548,-6.1777,-6.0707,-5.9776,-5.9618,-6.0455,-6.1733,-6.2983,-6.5543,-6.8236,-6.9979,-7.164,-7.2639,-7.2013,-7.1203,-6.9573,-6.575,-6.3718,-6.1579,-5.8229,-5.3536,-4.9946,-4.9253,-4.5593,-4.1849,-3.8729,-3.8873,-3.8132,-3.4858,-3.4875,-3.4709,-3.377,-3.5418,0.0,-3.3099,0.0,-2.91,-2.9012,-2.6171,-2.4783,-2.5077,-2.481,-2.4663,-2.4663,-2.4342,-2.3901,-2.334,-2.302,-2.1885,-2.0039,-1.9546,-1.8228,-1.6291,-1.4166,-1.321,-1.3062,-1.1505,-1.1894,-1.3456,-1.3456,-1.4493,-1.6172,-1.7859,-1.8512,-1.8768,0.0,0.0,0.0,0.0,0.0,0.0,0.0,0.0,0.0,0.0,0.0,0.0,0.0,0.0,0.0,0.0,0.0,0.0,-4.3329,-4.3687,-4.4665,-4.6285,-4.8658,-5.1206,-5.3847,-5.5828,-5.7655,-5.9302,-5.9302,-6.008,-6.1569,-6.1569,-6.2279,-6.3531,-6.37,-6.4444,-6.5493,-6.5493,-6.5834,-6.6176,-6.506,-6.5259,-6.5793,-6.2613,-6.2204,-6.3069,-6.0899,-6.0731,-6.1594,-6.1594,-6.1178,-6.0604,-6.0395,-5.9492,-5.8977,-6.1144,-6.203,-6.2911,-6.5741,-6.8014,-7.0119,-7.2451,-7.385,-7.4221,-7.2731,-7.1711,-6.9701,-6.4587,-6.1998,-5.932,-5.4974,-5.2061,-4.9512,-4.7216,-4.626,-4.4599,-4.102,-4.1046,-4.0009,-3.6018,-3.56,-3.4909,-3.3174,-3.4101,-3.4599,0.0,-3.2089,-3.0582,-2.9996,-2.6764,-2.4997,-2.5077,-2.501,-2.497,-2.497,-2.4249,-2.3808,-2.3647,-2.3113,-2.1885,-2.0051,-1.8528,-1.6629,-1.4556,-1.2566,-1.1589,-1.1372,-1.2281,-1.3709,-1.5265,-1.5265,-1.6302,-1.7859,-1.8372,-1.8512,-1.8768,0.0,0.0,0.0,0.0,0.0,0.0,0.0,0.0,0.0,0.0,0.0,0.0,0.0,0.0,0.0,0.0,0.0,0.0,0.0,-4.3693,-4.4631,-4.6103,-4.8408,-5.0537,-5.2436,-5.4363,-5.5919,-5.707,-5.6765,-5.7374,-5.8863,-5.8524,-5.9099,-6.0419,-6.0757,-6.1501,-6.255,-6.255,-6.2821,0.0,0.0,-6.1988,-6.32,-6.0803,-6.1117,-6.264,-6.1386,-6.1208,-6.1581,-6.1459,-6.1238,-6.1018,-6.1106,-6.1192,-6.1675,-6.3602,-6.5023,-6.6511,-6.9331,-7.1588,-7.3445,-7.4801,-7.552,-7.5003,-7.1684,-6.9985,-6.7645,-6.2441,-5.9738,-5.7226,-5.357,-4.993,-4.7084,-4.5873,-4.4132,-4.2527,-4.1244,-4.1232,-4.0009,-3.6737,-3.6244,-3.5418,-3.3485,-3.4141,-3.4746,-3.498,-3.2277,-3.0668,-3.0508,-2.701,-2.5144,-2.5264,-2.5144,-2.5024,-2.489,-2.4275,-2.3901,-2.3768,-2.2421,-2.0726,-1.8787,-1.6728,-1.4754,-1.2766,0.0,-1.0975,-1.0946,-1.2576,-1.4362,-1.5913,-1.6689,-1.7602,-1.864,-1.9419,-1.9152,-1.8768,0.0,0.0,0.0,0.0,0.0,0.0,0.0,0.0,0.0,0.0,0.0,0.0,0.0,0.0,0.0,0.0,0.0,0.0,0.0,0.0,-4.5005,-4.5961,-4.8334,-5.0021,-5.0989,-5.2639,-5.3822,-5.4431,-5.3822,-5.416,-5.5412,-5.4735,-5.548,-5.734,-5.7983,-5.9032,-6.025,-6.025,-6.033,-6.0255,-5.8354,-5.8677,-6.0015,0.0,-5.9765,-6.1594,-6.1594,-6.1471,-6.1312,-6.1555,-6.1908,-6.2364,-6.2668,-6.4028,-6.5703,-6.66,-6.8636,-7.0992,-7.3041,-7.5296,-7.7002,-7.6825,-7.6588,-7.5091,-6.991,-6.7375,-6.4839,-6.0127,-5.7527,-5.5461,-5.3244,-4.8335,-4.4808,-4.5402,-4.1828,-3.9575,-4.1056,-4.0991,-3.9917,-3.7434,-3.7189,-3.6477,-3.4575,-3.5078,-3.5605,-3.5723,-3.2138,-3.0227,-3.0755,-2.7082,-2.5197,-2.5451,-2.5211,-2.493,-2.4636,-2.4342,-2.4062,-2.3768,-2.187,-1.9594,-1.7107,-1.5375,-1.3488,-1.1375,-1.1118,-1.1118,-1.1333,-1.3038,-1.4642,-1.6431,-1.8116,-1.8896,-1.9024,-2.0589,-2.0195,-1.9024,0.0,0.0,0.0,0.0,0.0,0.0,0.0,0.0,0.0,0.0,0.0,0.0,0.0,0.0,0.0,0.0,0.0,0.0,0.0,0.0,0.0,-4.5005,-4.7403,-4.9082,-5.0021,-5.2337,-5.3551,-5.3687,-5.3551,-5.3653,-5.389,-5.3754,-5.389,-5.4262,-5.4397,-5.46,-5.4871,-5.4871,-5.5244,-5.5785,-5.5963,-5.7434,-5.9475,-5.9872,0.0,0.0,-6.1594,-6.0738,-6.0052,-6.2878,-6.3007,-6.2176,-6.3389,-6.4807,-6.6611,-6.9513,-7.1278,-7.2928,-7.5531,-7.71,-7.7932,-7.7731,-7.657,-7.4291,-6.9575,-6.66,-6.3681,-5.9383,-5.7034,-5.513,-5.2863,-5.0169,-4.7933,-4.6947,-4.561,-4.4731,-4.4822,-4.4779,-4.3512,-4.0287,-3.9796,-3.8552,-3.5894,-3.6152,-3.6738,0.0,-3.348,-3.0904,-3.0425,-2.6967,-2.5104,-2.5157,-2.5104,-2.493,-2.4636,-2.4342,-2.4062,-2.3768,-2.3179,-2.0883,-1.7248,-1.6787,-1.4727,-1.1389,-1.1335,0.0,-1.3202,-1.4892,-1.6608,-1.8244,-1.9941,-2.0589,-2.0716,-2.0982,-2.0856,-2.0716,0.0,0.0,0.0,0.0,0.0,0.0,0.0,0.0,0.0,0.0,0.0,0.0,0.0,0.0,0.0,0.0,0.0,0.0,0.0,0.0,0.0,0.0,0.0,0.0,-5.0307,-5.2369,-5.3687,-5.4059,0.0,-5.3687,-5.4059,-5.3687,-5.3518,-5.3518,-5.3518,-5.3518,-5.3518,-5.3518,-5.3943,-5.4652,-5.5,-5.6546,-5.8737,0.0,0.0,0.0,-6.0958,-6.0201,-5.9663,-6.2724,-6.29,-6.2313,-6.4832,-6.6787,-6.8706,-7.168,-7.3674,-7.5527,-7.8163,-7.9504,-7.9929,-7.8845,-7.6553,-7.3212,-6.8232,-6.4782,-6.1579,-5.7991,-5.6425,-5.509,-5.3054,-5.0974,-4.9127,-4.7549,-4.5376,-4.4265,-4.5358,-4.4785,-4.3533,-4.1953,-4.1923,-4.0762,-3.7688,-3.7935,-3.8006,-3.7387,-3.4812,-3.3145,-3.278,-2.9806,-2.7541,-2.6532,-2.6376,-2.5792,-2.4636,-2.4502,-2.4289,-2.3995,-2.2819,-2.0709,-1.7581,-1.6473,-1.4954,-1.3167,-1.2757,0.0,-1.5203,-1.6702,-1.7843,-1.864,-2.0449,-2.1109,-2.1109,-2.1109,-2.1109,-2.1235,0.0,0.0,0.0,0.0,0.0,0.0,0.0,0.0,0.0,0.0,0.0,0.0,0.0,0.0,0.0,0.0,0.0,0.0,0.0,0.0,0.0,0.0,0.0,0.0,0.0,0.0,0.0,-5.402,-5.3687,0.0,0.0,0.0,0.0,0.0,-5.3518,-5.3518,-5.3518,-5.3518,-5.3844,0.0,0.0,-5.5786,0.0,0.0,0.0,0.0,0.0,-5.9603,-5.9358,-6.2039,-6.2429,-6.2289,-6.5541,-6.8097,-7.0498,-7.3126,-7.5507,-7.781,-8.0311,-8.1501,-8.1543,-7.966,-7.6243,-7.2101,-6.7282,-6.3309,-5.9881,-5.7145,-5.6109,-5.5212,-5.3489,-5.1403,-4.9523,-4.8232,-4.4947,-4.3285,-4.5149,-4.4205,-4.3028,-4.2205,-4.2985,-4.2155,-3.8604,-3.9291,-3.9117,-3.723,-3.618,-3.5067,-3.4085,-3.1972,-3.0018,-2.845,-2.777,-2.6794,-2.5212,-2.4784,-2.4489,-2.4195,-2.2702,-2.06,-1.7824,-1.622,-1.4975,-1.4066,-1.3456,0.0,0.0,-1.7075,-1.7647,-1.8116,-1.9801,-2.0589,-2.0589,-2.0982,-2.1362,-2.1853,0.0,0.0,0.0,0.0,0.0,0.0,0.0,0.0,0.0,0.0,0.0,0.0,0.0,0.0,0.0,0.0,0.0,0.0,0.0,0.0,0.0,0.0,0.0,0.0,0.0,0.0,0.0,-5.2164,-5.3075,0.0,0.0,0.0,0.0,0.0,0.0,-5.3518,-5.3518,-5.3518,0.0,0.0,0.0,0.0,0.0,0.0,0.0,0.0,0.0,-5.8777,-5.8547,-6.1476,-6.1931,-6.1684,-6.3993,-6.7278,-7.0791,-7.3445,-7.6255,-7.895,-8.1256,-8.1929,-8.1547,-7.9673,-7.5564,-7.1095,-6.7741,-6.3433,-5.9636,-5.7825,-5.6602,-5.5421,-5.423,-5.1647,-4.9681,-4.9513,-4.7173,-4.5414,-4.5545,-4.515,-4.3518,-4.0213,-4.1684,-4.1534,-3.7729,-3.8861,-3.9487,-3.8485,-3.7611,-3.5414,-3.1548,-3.0717,-3.0217,-3.0075,-2.8357,-2.736,-2.7215,-2.5492,-2.4489,-2.4209,-2.405,-2.1691,-1.7755,-1.7592,-1.5336,-1.1914,-1.1726,0.0,0.0,-1.3923,-1.479,-1.6302,-1.8116,-1.8768,-1.8896,-2.0462,-2.2104,-2.345,0.0,0.0,0.0,0.0,0.0,0.0,0.0,0.0,0.0,0.0,0.0,0.0,0.0,0.0,0.0,0.0,0.0,0.0,0.0,0.0,0.0,0.0,0.0,0.0,0.0,0.0,-5.1005,-5.1005,-5.2026,0.0,0.0,0.0,0.0,0.0,0.0,-5.3518,-5.3518,-5.3518,0.0,0.0,0.0,0.0,0.0,0.0,0.0,0.0,0.0,0.0,-5.8336,-6.0314,-6.0367,-5.9934,-6.1379,-6.3488,-6.6442,-7.1226,-7.396,-7.6261,-8.0014,-8.1402,-8.1451,-7.978,-7.5054,-7.0129,-6.7521,-6.2753,-5.8613,-5.7667,-5.6739,-5.575,-5.4609,-5.3089,-5.1469,-4.9953,-4.6733,-4.4863,-4.605,-4.4245,-4.2558,-4.1721,-4.285,-4.221,-3.8739,-3.9268,-3.9548,-3.8661,-3.8008,-3.7009,-3.5207,-3.4202,-3.317,-3.2018,-3.0184,-2.8629,-2.7505,-2.5639,-2.4583,-2.4462,-2.4462,-2.2752,-1.9737,-1.857,-1.6942,-1.5006,-1.3472,0.0,0.0,-1.5536,-1.6514,-1.9024,-1.864,-1.9152,-2.0322,-2.1964,-2.3076,-2.3946,0.0,0.0,0.0,0.0,0.0,0.0,0.0,0.0,0.0,0.0,0.0,0.0,0.0,0.0,0.0,0.0,0.0,0.0,0.0,0.0,0.0,0.0,0.0,0.0,0.0,0.0,-4.9931,-4.9931,-5.093,-5.1631,0.0,0.0,-5.3177,-5.3518,0.0,0.0,0.0,0.0,0.0,0.0,0.0,0.0,0.0,0.0,0.0,0.0,0.0,0.0,0.0,0.0,0.0,-5.862,-5.9371,-6.0352,-6.2313,-6.784,-7.1303,-7.4312,-7.8204,-8.0428,-8.131,-8.0086,-7.4942,-6.9713,-6.7881,-6.2818,-5.8274,-5.7624,-5.6838,-5.597,-5.4839,-5.3808,-5.2482,-5.035,-4.6742,-4.4695,-4.6147,-4.302,-4.1025,-4.2248,-4.2242,-4.1322,-3.9157,-3.933,-3.9293,-3.8681,-3.8164,-3.793,-3.793,-3.6836,-3.5643,-3.4343,-3.1649,-2.9615,-2.8341,-2.5786,-2.4636,-2.4636,-2.4636,-2.3382,-2.1096,-1.9591,-1.8331,-1.7308,-1.4916,0.0,0.0,-1.6095,-1.6818,-1.9546,-1.8768,-1.9328,-2.0706,-2.2957,-2.4082,-2.4828,0.0,0.0,0.0,0.0,0.0,0.0,0.0,0.0,0.0,0.0,0.0,0.0,0.0,0.0,0.0,0.0,0.0,0.0,0.0,0.0,0.0,0.0,0.0,0.0,0.0,0.0,0.0,-4.8841,-4.9852,-5.093,-5.1921,-5.19,-5.244,-5.3518,0.0,0.0,0.0,0.0,0.0,0.0,0.0,0.0,0.0,0.0,0.0,0.0,0.0,0.0,0.0,0.0,0.0,0.0,0.0,-5.8713,-5.9505,-6.3427,-6.883,-7.3947,-7.607,-7.8975,-8.1233,-8.0558,-7.5239,-7.0004,-6.9131,-6.4002,-5.9064,-5.7862,-5.6928,-5.6027,-5.4809,-5.3327,-5.2001,-5.0942,-4.786,-4.5618,-4.5837,-4.1517,-3.8991,-4.0557,-3.9066,-3.7989,-3.8235,-3.8507,-3.8574,-3.8574,-3.8164,0.0,-3.793,-3.7129,-3.666,-3.666,-3.2509,-3.031,-3.031,-2.6488,-2.4636,-2.4636,-2.4636,-2.328,-2.097,-2.0814,-1.9536,-1.7087,0.0,0.0,0.0,-1.4262,-1.4362,-1.6172,-1.7859,-1.8665,-1.941,-2.2879,-2.5156,-2.6686,0.0,0.0,0.0,0.0,0.0,0.0,0.0,0.0,0.0,0.0,0.0,0.0,0.0,0.0,0.0,0.0,0.0,0.0,0.0,0.0,0.0,0.0,0.0,0.0,0.0,0.0,0.0,0.0,-4.8841,-4.9852,-5.093,-5.1564,-5.2468,-5.3518,-5.3518,-5.3518,0.0,0.0,0.0,0.0,0.0,0.0,0.0,0.0,0.0,0.0,0.0,0.0,0.0,0.0,0.0,0.0,0.0,0.0,0.0,-6.1183,-6.4727,-6.8739,-7.1475,-7.3399,-7.4481,-7.3806,-6.9916,-6.6141,-6.5382,-6.1745,-5.8208,-5.7304,-5.6472,-5.5674,-5.4722,-5.3772,-5.2808,-5.1735,-4.8978,-4.6899,-4.6556,-4.3105,-4.108,-4.2238,-4.0806,-3.9319,0.0,0.0,-3.8574,-3.8574,-3.8437,-3.8359,-3.8359,-3.7559,-3.6973,-3.668,-3.2509,-3.031,-3.031,-2.6488,-2.4636,-2.4636,-2.4636,-2.4024,-2.2885,-2.1545,-2.0248,0.0,0.0,0.0,0.0,-1.5974,-1.6818,-1.9419,-1.8768,-1.9954,-2.244,-2.4673,-2.6683,-2.8534,0.0,0.0,0.0,0.0,0.0,0.0,0.0,0.0,0.0,0.0,0.0,0.0,0.0,0.0,0.0,0.0,0.0,0.0,0.0,0.0,0.0,0.0,0.0,0.0,0.0,0.0,0.0,0.0,0.0,0.0,-5.0397,-5.1047,-5.2096,-5.3518,-5.3518,-5.3518,0.0,0.0,0.0,0.0,0.0,0.0,-5.4067,0.0,0.0,0.0,0.0,0.0,0.0,0.0,0.0,0.0,0.0,0.0,0.0,0.0,-6.2259,-6.4749,-6.791,-7.0057,-7.1253,-7.0658,-6.7604,-6.4554,-6.3771,-6.0589,-5.7448,-5.617,-5.5238,-5.4495,-5.371,-5.2907,-5.2241,-5.1921,-4.9106,-4.7027,-4.6916,-4.2985,-3.9996,-3.9705,-3.9866,0.0,0.0,-3.8125,-3.8574,-3.8574,-3.8574,-3.8574,-3.8574,-3.7754,-3.7187,-3.6914,-3.2579,-3.0178,-3.031,-2.6373,-2.4529,-2.4636,-2.4529,-2.4222,-2.3768,-2.2472,-2.1604,0.0,0.0,0.0,0.0,-1.7949,-1.8841,-2.1416,-2.0628,-2.1809,-2.4184,-2.6521,-2.8149,-2.9537,0.0,0.0,0.0,0.0,0.0,0.0,0.0,0.0,0.0,0.0,0.0,0.0,0.0,0.0,0.0,0.0,0.0,0.0,0.0,0.0,0.0,0.0,0.0,0.0,0.0,0.0,0.0,-4.7309,-4.7309,-4.8293,-5.032,0.0,-5.146,-5.3416,-5.3484,-5.3551,-5.3685,-5.4311,-5.4619,-5.4771,-5.5479,-5.5296,0.0,0.0,0.0,0.0,0.0,0.0,0.0,0.0,0.0,0.0,0.0,0.0,0.0,0.0,0.0,0.0,0.0,-6.8162,-7.0314,-6.9854,-6.7235,-6.4529,-6.3641,-6.0374,0.0,-5.4734,-5.3729,-5.2977,-5.2175,-5.1155,-5.0671,-5.1776,-4.8655,-4.6316,-4.6745,-4.1749,-3.7224,-3.4839,-3.7401,0.0,-3.7075,-3.7936,-3.8535,-3.8574,-3.8516,-3.8496,-3.8535,-3.7715,-3.7246,-3.7207,-3.242,-3.0053,-3.0277,-2.6157,-2.4342,-2.4609,-2.4356,-2.4075,-2.3754,-2.3487,-2.318,0.0,0.0,0.0,0.0,-2.0059,-2.0379,-2.2291,-2.3243,-2.4134,-2.5175,-2.8459,-2.9741,-3.0135,0.0,0.0,0.0,0.0,0.0,0.0,0.0,0.0,0.0,0.0,0.0,0.0,0.0,0.0,0.0,0.0,0.0,0.0,0.0,0.0,0.0,0.0,0.0,0.0,0.0,0.0,0.0,-4.7309,-4.7309,-4.7904,-4.9215,-4.9993,0.0,0.0,-5.3146,-5.4127,-5.5174,-5.4685,-5.5222,-5.6337,-5.6478,-5.6113,0.0,0.0,0.0,0.0,-5.773,-5.8238,0.0,0.0,0.0,0.0,0.0,0.0,0.0,0.0,-6.1128,0.0,-6.1569,0.0,-6.2834,-6.2727,-6.1458,-6.019,0.0,-5.8419,-5.6753,-5.5561,-5.4774,-5.4004,-5.3281,-5.1467,-5.0445,-5.1711,-4.8951,-4.6367,-4.5579,-4.3963,-4.204,-3.9599,-4.1461,-4.1661,-3.8718,-3.8186,-3.8223,-3.8555,-3.7969,-3.7734,-3.8066,-3.7285,-3.666,-3.6328,-3.1873,-2.9672,-3.0037,-2.62,-2.4235,-2.4302,-2.4462,-2.4262,-2.3768,-2.3701,-2.338,0.0,0.0,0.0,-2.2071,-2.1529,-2.2285,-2.3676,-2.4149,-2.604,-2.8584,-2.935,-3.0686,-3.22,0.0,0.0,0.0,0.0,0.0,0.0,0.0,0.0,0.0,0.0,0.0,0.0,0.0,0.0,0.0,0.0,0.0,0.0,0.0,0.0,0.0,0.0,0.0,0.0,0.0,0.0,0.0,0.0,0.0,-4.7849,0.0,0.0,0.0,0.0,-5.3011,-5.4093,-5.5174,-5.5059,-5.5542,-5.6353,-5.7074,0.0,0.0,0.0,0.0,0.0,-5.8128,-5.8503,0.0,-5.936,-5.9885,-6.0373,0.0,0.0,0.0,0.0,-6.0836,0.0,-6.0071,-5.9987,-5.9911,-5.9618,-5.914,-5.8632,-5.8418,-5.734,-5.6114,-5.5238,-5.4121,-5.3213,-5.2836,-5.0691,-4.9406,-5.0853,-4.807,-4.4891,-4.2644,-4.1679,-4.0968,-4.0366,-4.0415,-4.0246,0.0,-3.8528,-3.7812,-3.8242,-3.7676,-3.7402,-3.7617,-3.7031,-3.6465,-3.6035,-3.1696,-2.9456,-2.9517,-2.5794,-2.3941,-2.4209,-2.4088,-2.3941,-2.3754,-2.3474,-2.318,0.0,0.0,0.0,-2.2311,-2.2939,-2.3753,-2.4759,-2.6296,-2.8186,-2.9994,-3.0779,-3.1932,-3.3144,0.0,0.0,0.0,0.0,0.0,0.0,0.0,0.0,0.0,0.0,0.0,0.0,0.0,0.0,0.0,0.0,0.0,0.0,0.0,0.0,0.0,0.0,0.0,0.0,0.0,0.0,0.0,0.0,0.0,0.0,0.0,0.0,-5.101,0.0,-5.3079,-5.3856,-5.4597,-5.5235,-5.564,-5.5896,-5.7271,0.0,0.0,0.0,0.0,0.0,0.0,0.0,0.0,-5.9971,-6.0411,-6.0599,-6.1292,0.0,0.0,0.0,0.0,0.0,-5.9591,-5.9321,-5.9048,-5.8433,-5.8196,-5.8017,-5.7533,-5.6349,-5.5098,-5.4417,-5.3112,-5.2065,-5.1921,-4.9515,-4.8084,-4.9299,-4.6334,-4.316,-4.0818,-3.8941,-3.8442,-3.9819,-3.8118,0.0,-4.0417,-3.8628,-3.7383,-3.7793,-3.7383,-3.7129,-3.7207,-3.6797,-3.6348,-3.584,-3.1625,-2.9307,-2.9071,-2.5178,-2.3581,-2.4062,-2.3661,-2.3541,-2.3688,-2.322,-2.2953,-2.2846,0.0,0.0,-2.2526,-2.4087,-2.503,-2.5782,-2.8289,-2.9978,-3.0901,-3.2074,-3.2991,-3.3691,0.0,0.0,0.0,0.0,0.0,0.0,0.0,0.0,0.0,0.0,0.0,0.0,0.0,0.0,0.0,0.0,0.0,0.0,0.0,0.0,0.0,0.0,0.0,0.0,0.0,0.0,0.0,0.0,0.0,0.0,-4.7624,-4.9487,-5.1418,-5.3247,-5.345,-5.389,-5.4597,-5.4647,-5.5427,-5.674,-5.6914,0.0,0.0,0.0,0.0,0.0,0.0,0.0,0.0,-6.0203,-6.0912,-6.1331,-6.1463,0.0,0.0,0.0,0.0,0.0,-5.8982,-5.8113,-5.7157,-5.6563,-5.6124,-5.5667,-5.4911,-5.4074,-5.3703,-5.4378,-5.3878,-5.2939,-5.2065,-4.9127,-4.693,-4.7341,-4.4235,-4.2939,-4.6372,0.0,-4.1482,-4.2799,0.0,-3.9446,-3.8291,-3.7325,-3.6934,-3.7363,-3.666,-3.6367,-3.6758,-3.6348,-3.5742,-3.4922,-3.1343,-2.9075,-2.8345,-2.4977,-2.3367,-2.346,-2.3875,-2.3834,-2.3407,-2.3554,-2.3354,-2.2859,0.0,-2.2645,-2.2539,-2.4202,-2.5766,-2.736,-2.7698,-3.017,-3.3335,-3.2134,-3.2805,-3.4347,0.0,0.0,0.0,0.0,0.0,0.0,0.0,0.0,0.0,0.0,0.0,0.0,0.0,0.0,0.0,0.0,0.0,0.0,0.0,0.0,0.0,0.0,0.0,0.0,0.0,0.0,0.0,0.0,0.0,-4.7309,-4.7396,-4.9407,-5.1484,-5.3518,-5.3518,-5.3686,-5.399,-5.4804,-5.5594,-5.6347,0.0,0.0,0.0,0.0,0.0,0.0,0.0,0.0,0.0,0.0,-6.1235,-6.1483,-6.1486,0.0,0.0,0.0,0.0,0.0,-5.8492,-5.7653,-5.6597,-5.534,-5.4886,-5.4381,-5.3135,-5.2001,-5.1366,-5.1822,-5.0741,-4.9596,-4.9158,-4.7462,-4.6003,-4.5789,-4.4282,-4.3292,-4.3844,-4.1816,-4.0494,0.0,0.0,-3.7799,-3.8883,-3.7401,-3.6504,-3.6934,-3.6367,0.0,-3.6309,-3.5918,-3.5371,-3.4726,-3.0884,-2.8627,-2.818,-2.4573,-2.3006,-2.3327,-2.3434,-2.342,-2.3327,-2.33,-2.3126,-2.2859,0.0,-2.2982,-2.3619,-2.5605,-2.6745,-2.7499,-2.8785,-3.0602,-3.2656,-3.2138,-3.2691,-3.3421,0.0,0.0,0.0,0.0,0.0,0.0,0.0,0.0,0.0,0.0,0.0,0.0,0.0,0.0,0.0,0.0,0.0,0.0,0.0,0.0,0.0,0.0,0.0,0.0,0.0,0.0,-4.7309,-4.7309,-4.7309,-4.7512,-4.8055,-4.9473,-5.1386,-5.3484,-5.3281,-5.3281,-5.3551,-5.5046,-5.5695,-5.5816,0.0,0.0,0.0,0.0,0.0,0.0,0.0,0.0,0.0,0.0,0.0,0.0,0.0,0.0,0.0,-5.974,-5.9137,-5.8591,-5.8142,-5.718,-5.5917,-5.4381,-5.3963,-5.3524,-5.1967,-5.0522,-4.9596,-4.9755,-4.8368,-4.7031,-4.6515,-4.5705,-4.494,-4.4356,-4.4269,-4.3626,-4.1731,-4.0271,-3.9493,-3.9559,-3.6991,-3.6162,-3.8883,-3.7188,-3.6152,-3.6484,-3.6211,0.0,-3.5879,-3.5566,-3.5078,-3.4414,-3.0442,-2.8212,-2.7916,-2.4127,-2.2619,-2.322,-2.3046,-2.302,-2.3113,-2.2939,-2.2819,-2.2739,-2.2835,-2.353,-2.4665,-2.6649,-2.7388,-2.74,-2.8854,-2.9761,-3.0397,-3.1862,-3.2467,-3.2121,0.0,0.0,0.0,0.0,0.0,0.0,0.0,0.0,0.0,0.0,0.0,0.0,0.0,0.0,0.0,0.0,0.0,0.0,0.0,0.0,0.0,0.0,0.0,0.0,0.0,-4.7309,-4.7309,-4.7309,-4.7309,-4.8286,-5.0133,-4.9677,-5.088,-5.3484,-5.2708,-5.2775,-5.3617,-5.508,-5.5713,-5.5816,-5.7354,0.0,0.0,0.0,0.0,0.0,0.0,0.0,0.0,0.0,0.0,0.0,0.0,0.0,-6.0172,-5.9571,-5.9065,-5.8591,-5.8142,-5.6241,-5.4235,-5.3445,-5.3244,-5.2875,-5.1685,-5.0308,-4.947,-5.0089,-4.9665,-4.8444,-4.6363,-4.4566,-4.3337,-4.3093,-4.3378,-4.382,-4.4711,0.0,-4.0393,-4.0119,-3.8021,-3.6563,-3.6269,-3.6055,-3.6035,-3.6074,-3.6035,0.0,-3.5469,-3.541,-3.4805,-3.3555,-3.016,-2.798,-2.7173,-2.3695,-2.2311,-2.2899,-2.3166,-2.3006,-2.2485,-2.2752,-2.2712,-2.2566,-2.3679,-2.4479,-2.4979,-2.636,-2.7177,-2.7327,-2.5828,-2.5844,-2.7028,-3.1028,-3.1914,-3.0871,0.0,0.0,0.0,0.0,0.0,0.0,0.0,0.0,0.0,0.0,0.0,0.0,0.0,0.0,0.0,0.0,0.0,0.0,0.0,0.0,0.0,0.0,0.0,-4.5125,-4.6052,-4.6471,-4.71,-4.7908,-4.8533,-4.9943,-5.1972,-5.1259,0.0,-5.2741,-5.2438,-5.22,-5.217,-5.3662,-5.4301,-5.4388,-5.5871,-5.6203,0.0,0.0,0.0,0.0,0.0,0.0,0.0,0.0,-6.0613,-6.132,-6.0355,-5.9954,-5.9773,-5.914,-5.8632,-5.8238,-5.8042,-5.6613,-5.5109,-5.4828,-5.3528,-5.1987,-5.0707,-4.9296,-4.8018,-4.7404,-4.727,-4.6923,-4.5715,-4.4204,-4.3339,-4.4407,-4.5176,-4.5646,-4.5205,-4.3993,-4.2259,-3.9833,-3.8244,-3.6951,-3.5779,-3.5371,-3.5195,-3.5195,-3.5195,0.0,-3.4961,-3.4453,-3.3945,-3.3437,-2.9418,-2.725,-2.709,-2.358,-2.1924,-2.2311,-2.2432,-2.2378,-2.2151,-2.2271,-2.2258,-2.2138,-2.2676,-2.3479,-2.4426,-2.5144,-2.551,-2.555,-2.5665,-2.5922,-2.6497,-2.8392,-2.8964,-2.8619,0.0,0.0,0.0,0.0,0.0,0.0,0.0,0.0,0.0,0.0,0.0,0.0,0.0,0.0,0.0,0.0,0.0,0.0,0.0,0.0,0.0,0.0,0.0,-4.4317,-4.4975,-4.5663,-4.6651,-4.7967,-4.9221,-5.0785,-5.2628,0.0,-5.1949,-5.2674,-5.22,-5.1783,-5.1596,-5.2866,-5.3374,-5.3555,-5.5003,-5.5369,0.0,0.0,0.0,0.0,0.0,0.0,0.0,0.0,-5.9859,-6.0822,-5.9612,-5.9392,-5.9441,-5.8831,-5.7818,-5.6891,-5.7193,-5.5759,-5.4096,-5.4196,-5.2773,-5.1156,-5.0372,-4.8923,-4.7502,-4.6807,-4.6215,-4.5578,-4.4996,-4.3759,-4.3162,-4.4468,-4.5924,-4.6415,-4.5119,-4.4206,-4.2449,-3.9326,-3.7736,-3.6415,-3.5309,-3.4883,-3.4707,-3.4707,-3.4707,0.0,0.0,-3.3809,-3.3301,-3.3027,-2.8853,-2.6595,-2.6744,-2.3261,-2.151,-2.171,-2.171,-2.1764,-2.1844,-2.1844,-2.1844,-2.1844,-2.2257,-2.3036,-2.4067,-2.4291,-2.4128,-2.3854,-2.5308,-2.5635,-2.5266,-2.6438,-2.6629,-2.6445,0.0,0.0,0.0,0.0,0.0,0.0,0.0,0.0,0.0,0.0,0.0,0.0,0.0,0.0,0.0,0.0,0.0,0.0,0.0,0.0,0.0,0.0,0.0,-4.3629,-4.4287,-4.4945,-4.5963,-4.7309,-4.901,-5.0491,-5.192,-5.1205,-5.1821,-5.3416,-5.1907,-5.161,-5.2303,-5.3069,-5.3401,-5.3495,-5.501,-5.5364,-5.5062,0.0,0.0,0.0,0.0,0.0,0.0,0.0,-5.937,-5.989,-5.9267,-5.9209,-5.9284,-5.8835,-5.6609,-5.4563,-5.5548,-5.3202,-5.0551,-5.0919,-5.0702,-5.0437,-5.0714,-4.9486,-4.8496,-4.8958,-4.7161,-4.5103,-4.4309,-4.3085,-4.2443,-4.2886,-4.4844,-4.5845,-4.4547,-4.2604,-4.06,-3.884,-3.6365,-3.4687,-3.4687,-3.4687,-3.4687,-3.4687,-3.4687,0.0,0.0,-3.3652,-3.3027,-3.2207,-2.8606,-2.6364,-2.5984,-2.2702,-2.1109,-2.1109,-2.1109,-2.1269,-2.155,-2.155,-2.155,-2.1652,-2.2972,-2.3753,-2.3925,-2.3925,-2.3292,-2.2539,-2.4378,-2.418,-2.3201,-2.5571,-2.5456,-2.4566,0.0,0.0,0.0,0.0,0.0,0.0,0.0,0.0,0.0,0.0,0.0,0.0,0.0,0.0,0.0,0.0,0.0,0.0,0.0,0.0,0.0,0.0,0.0,0.0,0.0,0.0,-4.6963,-5.0248,-5.0746,-5.1901,0.0,-5.3049,-5.2682,-5.2606,-5.1639,-5.102,-5.0822,-5.1511,-5.1815,-5.1915,-5.3622,-5.4466,-5.4735,0.0,0.0,0.0,0.0,0.0,0.0,0.0,0.0,0.0,-5.806,-5.79,-5.8153,-5.8201,-5.684,-5.534,-5.5399,-5.3584,-5.1564,-5.1425,-5.0338,-4.9284,-4.9361,-4.9159,-4.9136,-4.9431,-4.7217,-4.5342,-4.5446,-4.4859,-4.4028,-4.3159,-4.3865,-4.4486,-4.4536,-4.3096,-4.1392,-3.9626,-3.7466,-3.5611,-3.4387,-3.3984,-3.3809,-3.3809,-3.3809,0.0,0.0,-3.293,-3.2422,-3.2168,-2.8323,-2.6083,-2.5984,-2.2702,-2.1109,-2.1109,-2.1109,-2.1149,-2.1243,-2.1243,-2.1243,-2.1229,-2.1642,-2.1894,-2.2005,-2.2212,-2.2162,-2.1975,-2.2777,-2.2862,-2.2619,-2.3762,-2.3909,-2.3971,0.0,0.0,0.0,0.0,0.0,0.0,0.0,0.0,0.0,0.0,-3.2621,0.0,0.0,0.0,0.0,0.0,0.0,0.0,0.0,0.0,0.0,0.0,0.0,0.0,0.0,-4.4445,-4.6659,0.0,0.0,0.0,-5.367,-5.3855,-5.3652,-5.3207,-5.2739,-5.199,-5.1011,-5.2026,-5.2095,-5.1718,-5.3547,-5.4608,-5.5074,0.0,0.0,0.0,0.0,0.0,0.0,0.0,0.0,0.0,-5.7527,-5.759,-5.7906,-5.7291,-5.5526,-5.3625,-5.3182,-5.1707,-4.9984,-4.9354,-4.9133,-4.8817,-4.826,-4.8781,-4.9294,-4.9418,-4.7401,-4.5497,-4.5207,-4.4526,-4.3759,-4.3159,-4.3438,-4.3991,-4.4543,-4.2471,-4.0629,-3.9534,-3.6848,-3.4774,-3.3681,-3.332,-3.3164,-3.3164,-3.3164,0.0,0.0,-3.2363,-3.1914,-3.1914,-2.8751,-2.6884,-2.673,-2.3608,-2.1978,-2.1616,-2.124,-2.1042,-2.0935,-2.1056,-2.1109,-2.1109,-2.1109,-2.1109,-2.1122,-2.1296,-2.1443,-2.1603,-2.2071,-2.2311,-2.2485,-2.31,-2.3327,-2.3841,0.0,0.0,0.0,0.0,0.0,0.0,0.0,0.0,0.0,0.0,-3.2376,0.0,0.0,0.0,0.0,0.0,0.0,0.0,0.0,0.0,0.0,0.0,0.0,0.0,0.0,0.0,0.0,0.0,0.0,0.0,-5.2371,-5.3822,-5.4527,-5.4628,-5.4552,-5.372,-5.2365,-5.3801,-5.362,-5.2465,-5.4408,-5.5471,-5.588,-5.5724,0.0,0.0,0.0,0.0,0.0,0.0,0.0,0.0,-5.7377,-5.7865,-5.8178,-5.64,-5.3563,-5.0828,-5.0198,-4.8688,-4.713,-4.6157,-4.7572,-4.8907,-4.78,-4.8297,-4.8976,-4.8912,-4.7548,-4.5704,-4.3979,-4.2922,-4.2503,-4.276,-4.3237,-4.374,-4.4011,-4.0975,-3.8761,-3.864,-3.5107,-3.2734,-3.2734,-3.2734,-3.2734,-3.2734,-3.2734,0.0,-3.2734,-3.1953,-3.1523,-3.1523,-2.9461,-2.8192,-2.7849,-2.4907,-2.3185,-2.2483,-2.1507,-2.0895,-2.0641,-2.0962,-2.1109,-2.1109,-2.0982,-2.0982,-2.1109,-2.0982,-2.1142,-2.1537,-2.183,-2.2124,-2.2445,-2.3033,-2.326,-2.3913,0.0,0.0,0.0,0.0,0.0,0.0,0.0,0.0,0.0,0.0,0.0,0.0,0.0,0.0,0.0,0.0,0.0,0.0,0.0,0.0,0.0,0.0,0.0,0.0,0.0,0.0,0.0,0.0,0.0,-4.9963,-5.2303,-5.3335,-5.4023,-5.4595,-5.402,-5.3212,-5.2367,-5.3264,-5.3162,-5.252,-5.5395,-5.6256,-5.5983,-5.669,-5.6752,0.0,0.0,0.0,0.0,0.0,0.0,0.0,-5.6587,-5.684,-5.7206,-5.6781,-5.4879,-5.2672,-5.1697,-4.9776,-4.7932,-4.7401,-4.7865,-4.8728,-4.9404,-4.8559,-4.7306,-4.6264,-4.6496,-4.6005,-4.311,-4.3347,-4.3464,-4.1947,-4.1781,-4.1444,-4.0386,-3.8549,-3.675,-3.5575,-3.3558,-3.2305,-3.2305,-3.2305,-3.2305,-3.2305,0.0,0.0,-3.2305,-3.1797,-3.1523,-3.1523,-2.9183,-2.7921,-2.7831,-2.4428,-2.2617,0.0,-2.1078,-2.0388,-2.0347,-2.0869,-2.1109,-2.0982,-1.9674,-1.9814,-2.0982,-1.9674,-1.9966,-2.1229,-2.1523,-2.1817,-2.2124,-2.2485,-2.2766,-2.3584,0.0,0.0,0.0,0.0,0.0,0.0,0.0,0.0,0.0,0.0,0.0,0.0,0.0,0.0,0.0,0.0,0.0,0.0,0.0,0.0,0.0,0.0,0.0,0.0,0.0,0.0,0.0,0.0,0.0,-4.8648,-5.1254,-5.2773,-5.3673,-5.4082,-5.4387,-5.3679,-5.2401,-5.3849,-5.3593,-5.2537,-5.5243,-5.6172,-5.6071,-5.6601,-5.6687,-5.6503,-5.6349,0.0,0.0,0.0,0.0,0.0,0.0,0.0,-5.6759,-5.6008,-5.4414,-5.2465,-5.0827,-4.9151,-4.7725,-4.7308,-4.7886,-4.8688,-4.9387,-4.8681,-4.7376,-4.5421,-4.5128,-4.4516,-4.2214,-4.2378,-4.2571,-4.1487,-4.0765,-3.9953,-3.9244,-3.7087,-3.5358,-3.4538,-3.2874,-3.1855,-3.1855,-3.1855,-3.1855,-3.1855,0.0,-3.1855,-3.1855,-3.1445,-3.1211,-3.1211,-2.9716,-2.8819,-2.8613,-2.5361,-2.3466,-2.3153,-2.1146,-2.0227,-2.0241,-2.0548,-2.0309,-1.9549,-1.8656,-1.8451,-1.8463,-1.7546,-1.8244,-1.9839,-2.0244,-2.0968,-2.183,-2.2258,-2.3037,-2.4338,0.0,0.0,0.0,0.0,0.0,0.0,0.0,0.0,0.0,0.0,0.0,0.0,0.0,0.0,0.0,0.0,0.0,0.0,0.0,0.0,0.0,0.0,0.0,0.0,0.0,0.0,0.0,0.0,-4.6348,-4.7603,-4.9916,-5.2097,-5.318,-5.3349,-5.4686,-5.4146,-5.2404,-5.4518,-5.4205,-5.2533,-5.4807,-5.5728,-5.5795,-5.6098,-5.629,-5.6366,-5.6246,-5.6203,-5.6159,-5.5815,0.0,0.0,0.0,0.0,-5.6776,-5.5256,-5.3649,-5.19,-4.9907,-4.8425,-4.7288,-4.6624,-4.7434,-4.8327,-4.8204,-4.8266,-4.7654,-4.4991,-4.3836,-4.2837,-4.1241,-4.1053,-4.1053,-4.1053,-3.9794,-3.8761,-3.8516,-3.602,-3.4211,-3.3859,-3.2414,-3.1406,-3.1406,-3.1406,-3.1525,-3.1742,0.0,-3.186,-3.2193,-3.1852,-3.1632,-3.1552,-3.1091,-3.0538,-2.9897,-2.6679,-2.4628,-2.371,-2.1231,-1.996,-1.9706,-1.9706,-1.9018,-1.7871,-1.7462,-1.6686,-1.5717,-1.5525,-1.6657,-1.8536,-1.8877,-2.0048,-2.1617,-2.2151,-2.3287,-2.4775,0.0,0.0,0.0,0.0,0.0,0.0,0.0,0.0,0.0,0.0,-3.1274,0.0,0.0,0.0,0.0,0.0,0.0,0.0,0.0,0.0,0.0,0.0,0.0,0.0,0.0,0.0,0.0,0.0,-4.7006,-4.8029,-4.9154,-5.0791,-5.1866,-5.2505,-5.3341,-5.3207,-5.2404,-5.3957,-5.3906,-5.2857,-5.489,-5.5169,-5.4565,-5.5762,-5.5894,-5.5545,-5.6051,-5.6203,-5.6159,-5.5794,-5.6231,0.0,0.0,0.0,-5.7534,-5.6003,-5.4493,-5.3112,-5.2068,-5.0002,-4.7775,-4.5951,-4.6124,-4.6431,-4.5913,-4.6244,-4.5776,-4.2739,-4.2868,-4.269,-4.0389,-3.9923,-3.9923,-3.9923,-3.8672,-3.7237,-3.6041,-3.4376,-3.283,-3.1503,-3.1113,-3.0976,-3.0976,-3.0976,-3.152,-3.2841,-3.2841,-3.3388,-3.4736,-3.4781,-3.4428,-3.401,-3.3526,-3.2511,-3.0805,-2.7446,-2.5041,-2.3822,-2.0903,-1.8751,-1.7433,-1.7433,-1.7553,-1.7737,-1.4788,-1.4402,-1.558,-1.408,-1.5485,-1.8512,-1.8547,-1.9745,-2.159,-2.1924,-2.2324,-2.3064,0.0,0.0,0.0,0.0,0.0,0.0,0.0,0.0,0.0,0.0,0.0,-3.2135,0.0,0.0,0.0,0.0,0.0,0.0,0.0,0.0,0.0,0.0,0.0,0.0,0.0,0.0,0.0,0.0,-4.7139,-4.8063,-4.9018,-5.0071,-5.0947,-5.1749,-5.2833,-5.2907,-5.2269,-5.3089,-5.2893,-5.2119,-5.3536,-5.3875,-5.3687,-5.5065,-5.5421,-5.5255,-5.5645,-5.575,-5.5605,-5.4863,-5.5493,-5.6458,-5.6211,0.0,0.0,0.0,-5.4957,-5.3517,-5.0986,-4.9692,-4.8479,-4.6228,-4.661,-4.7372,-4.7028,-4.6265,-4.5019,-4.2992,-4.1937,-4.0897,-3.9068,-3.8743,-3.8541,-3.778,-3.6625,-3.5296,-3.3878,-3.2475,-3.1251,-3.0603,-3.0937,-3.134,-3.134,-3.1989,-3.2632,-3.3378,-3.3378,-3.3704,-3.4352,-3.4352,-3.424,-3.391,-3.3548,-3.2433,-3.0622,-2.7275,-2.3962,-2.084,-1.9707,-1.8288,-1.675,-1.5954,-1.5298,-1.465,-1.319,-1.254,-1.2499,-1.1818,-1.3722,-1.6892,-1.7022,-1.884,-2.1363,-2.1817,-2.2704,-2.3747,0.0,0.0,0.0,0.0,0.0,0.0,0.0,0.0,0.0,0.0,0.0,0.0,0.0,0.0,0.0,0.0,0.0,0.0,0.0,0.0,0.0,0.0,0.0,0.0,0.0,0.0,0.0,-4.6586,-4.7502,-4.8293,-4.9018,-4.9848,-5.0601,-5.1198,-5.2564,-5.2858,-5.2373,-5.269,-5.2441,-5.1857,-5.204,-5.2159,-5.2369,-5.3448,-5.3975,-5.421,-5.4785,-5.4963,-5.4905,-5.4534,-5.5231,-5.6197,-5.6219,-5.6493,0.0,0.0,0.0,-5.3173,-4.9426,-4.8879,-4.8855,-4.6628,-4.7044,-4.7903,-4.7479,-4.6081,-4.4308,-4.2702,-4.0503,-3.8606,-3.7342,-3.732,-3.7044,-3.5679,-3.4525,-3.3486,-3.2855,-3.1441,-3.0678,-3.1014,-3.1683,-3.2104,-3.2104,-3.3046,-3.3787,-3.4125,-3.4125,-3.4334,-3.4751,-3.4728,-3.4682,-3.4544,-3.406,-3.2848,-3.0653,-2.675,-2.2608,-1.849,-1.832,-1.7514,-1.5885,-1.4616,-1.3168,-1.1623,-1.176,-1.111,-1.0066,-1.0331,-1.2491,-1.5727,-1.5822,-1.8033,-2.1283,-2.179,-2.298,-2.4173,0.0,0.0,0.0,0.0,0.0,0.0,0.0,0.0,0.0,0.0,0.0,0.0,0.0,0.0,0.0,0.0,0.0,0.0,0.0,0.0,0.0,0.0,0.0,0.0,0.0,0.0,-4.6624,-4.7536,-4.8489,-4.8951,-4.9018,-5.0379,-5.106,-5.1151,-5.2309,-5.2827,-5.2784,-5.3176,-5.3106,-5.2605,-5.0952,-5.0246,-5.0193,-5.0469,-5.0898,-5.1584,-5.3056,-5.38,-5.4235,-5.5632,-5.6125,-5.6409,-5.75,-5.7354,-5.6685,0.0,0.0,0.0,-4.8494,-4.8218,-4.8354,-4.6589,-4.6685,-4.6854,-4.5306,-4.4539,-4.327,-4.0572,-3.8092,-3.5924,-3.4796,-3.5437,-3.5679,-3.4311,-3.2877,-3.2362,-3.3537,-3.247,-3.2038,-3.3303,-3.3493,-3.3471,-3.3471,-3.3576,-3.423,-3.56,-3.5703,-3.6338,-3.7693,-3.7792,-3.7567,-3.7042,-3.6493,-3.4727,-3.1659,-2.5834,-2.1372,-1.849,-1.7264,-1.5769,-1.4255,-1.2958,-1.1495,-0.9943,-0.995,-0.9917,-1.0059,-1.0222,-1.2385,-1.5727,-1.5822,-1.8266,-2.1563,-2.1871,-2.2472,-2.3036,0.0,0.0,0.0,0.0,0.0,0.0,0.0,0.0,0.0,0.0,0.0,0.0,0.0,0.0,0.0,0.0,0.0,0.0,0.0,0.0,0.0,0.0,0.0,0.0,0.0,-4.5977,-4.7243,-4.7603,-4.8523,-4.9018,-4.9018,-5.0475,-5.1134,-5.1177,-5.2736,-5.3163,-5.2731,-5.2949,-5.2644,-5.1973,-5.0524,-4.9804,-4.9575,-4.9866,-5.0247,-5.0708,-5.1561,-5.2585,-5.364,-5.4105,-5.4645,-5.5294,-5.6164,-5.631,-5.5825,-5.4561,-5.3264,-5.1617,-4.9154,-4.8972,-4.9181,-4.7697,-4.7045,-4.6582,-4.5885,-4.3543,-4.1245,-4.0142,-3.7292,-3.4477,-3.2971,-3.3215,-3.3152,-3.1837,-3.2202,-3.2398,-3.2103,-3.2292,-3.2713,-3.3131,-3.3788,-3.4109,-3.4109,-3.4909,-3.5868,-3.7191,-3.7311,-3.7877,-3.92,-3.8826,-3.8172,-3.726,-3.5938,-3.2512,-2.7043,-2.3697,-2.0705,-1.7916,-1.6808,-1.541,-1.3824,-1.2658,-1.1382,-0.9822,-0.9822,-0.9849,-0.9917,-1.1416,-1.3438,-1.5659,-1.7063,-1.9193,-2.159,-2.1884,-2.2352,-2.2953,0.0,0.0,0.0,0.0,0.0,0.0,0.0,0.0,0.0,0.0,0.0,0.0,0.0,0.0,-3.6142,0.0,0.0,0.0,0.0,0.0,0.0,0.0,0.0,0.0,0.0,-4.6356,-4.7765,-4.8063,-4.872,-4.8855,-4.8686,-5.0045,-5.0605,-5.0435,-5.2328,-5.3075,-5.2871,-5.2995,-5.262,-5.1758,-4.9922,-4.9425,-4.971,-4.9253,-4.9682,-5.047,-5.055,-5.1446,-5.2672,-5.2545,-5.3098,-5.3914,-5.4932,-5.5243,-5.4928,-5.314,-5.2197,-5.1343,-4.9514,-4.9317,-4.9474,-4.8489,-4.7781,-4.7072,-4.6099,-4.3364,-4.0789,-3.9799,-3.6456,-3.3252,-3.1929,-3.1179,-3.0444,-2.9394,-3.0508,-3.1418,-3.103,-3.2028,-3.3032,-3.3552,-3.4149,-3.4556,-3.4556,-3.5662,-3.6676,-3.7437,0.0,0.0,-3.9192,-3.8464,-3.7277,-3.5596,-3.3083,-2.9263,-2.4081,-2.2013,-1.9819,-1.7582,-1.5967,-1.4639,-1.3705,-1.2098,-1.0733,-0.9822,-0.9822,-0.9822,-0.9964,-1.1385,-1.3403,-1.5691,-1.7246,-1.9455,-2.175,-2.2138,-2.2659,-2.3233,0.0,0.0,0.0,0.0,0.0,0.0,0.0,0.0,0.0,0.0,0.0,0.0,0.0,0.0,0.0,0.0,0.0,0.0,0.0,0.0,0.0,0.0,0.0,0.0,0.0,-4.6457,-4.8063,-4.9018,-4.9018,-4.8591,-4.7995,-4.9249,-4.9513,-4.8914,-5.1067,-5.2404,-5.3126,-5.3436,-5.3047,-5.2031,-4.9179,-4.9028,-5.026,-4.8371,-4.8909,-5.0547,-4.9894,-5.044,-5.1407,-5.1192,-5.1639,-5.2521,-5.4074,-5.4449,-5.3934,-5.1773,-5.1067,-5.0776,0.0,0.0,0.0,-4.9018,-4.8984,-4.8274,-4.5784,-4.3854,-4.1942,-3.9428,-3.5332,-3.2107,-3.1666,-2.9456,-2.748,-2.7051,-2.8045,-2.9317,-3.0682,-3.1947,-3.3281,-3.4545,-3.4726,-3.4726,-3.4726,-3.5719,-3.6305,-3.6392,-3.7392,-3.7979,-3.7979,-3.6855,-3.4944,-3.2098,-2.8295,-2.5427,-2.3422,-2.0915,-1.893,-1.7595,-1.4833,-1.3618,-1.3591,-1.0934,-0.9693,-0.9822,-0.9822,-0.9822,-0.9849,-1.028,-1.2406,-1.5576,-1.6244,-1.8777,-2.2058,-2.2632,-2.3233,-2.3808,0.0,0.0,0.0,0.0,0.0,0.0,0.0,0.0,0.0,0.0,0.0,0.0,-3.4385,-3.5571,-3.6896,0.0,0.0,0.0,0.0,0.0,0.0,0.0,0.0,0.0,0.0,-4.7111,0.0,0.0,0.0,0.0,0.0,0.0,0.0,-4.9515,-5.1219,-5.1442,-5.0567,-5.2043,-5.2166,-5.1283,-4.9579,-4.832,-4.7485,-4.6726,-4.6466,-4.643,-4.6763,-4.8242,-4.9925,-4.9623,-5.042,-5.1647,-5.2564,-5.3199,-5.3225,-5.1584,-5.1067,-5.0776,-4.9351,0.0,0.0,0.0,0.0,0.0,0.0,0.0,-4.0403,-3.8503,-3.4823,-3.1404,-3.0045,-2.8107,-2.6883,-2.7385,-2.9085,-3.0489,-3.0897,-3.2792,-3.4247,-3.4635,-3.4726,-3.497,-3.5807,-3.6131,-3.6967,0.0,-3.8965,-3.9126,-3.9287,-3.6262,-3.3044,-3.0011,-2.72,-2.4571,-2.2214,-2.0669,-1.9261,-1.7916,-1.6386,-1.5134,-1.3933,-1.2285,-1.0861,-0.9822,-0.9822,-0.9883,-1.0122,-1.2923,-1.4644,-1.5815,-1.8649,-2.0747,-2.2031,-2.2405,-2.306,-2.3808,0.0,0.0,0.0,0.0,0.0,0.0,0.0,0.0,0.0,0.0,0.0,0.0,-3.5259,-3.5953,-3.7041,0.0,0.0,0.0,0.0,0.0,0.0,0.0,0.0,0.0,0.0,0.0,0.0,0.0,0.0,0.0,0.0,0.0,0.0,-4.9044,-5.0376,-5.0498,-4.9798,-5.1183,-5.1171,-5.01,-4.8684,-4.7895,-4.739,-4.6155,-4.5953,-4.6293,-4.6222,-4.7438,-4.9033,-4.7936,-4.8984,-5.0754,-5.1128,-5.1956,-5.2517,-5.1438,-5.089,-5.0379,-4.9283,-4.872,-4.8456,-4.8456,0.0,0.0,-4.4737,-4.2448,-3.9917,0.0,-3.4059,-3.1097,-2.9346,-2.8023,-2.7272,-2.7568,-2.9937,-3.1505,-3.1112,-3.281,-3.4048,-3.4048,-3.4437,-3.4934,-3.5594,-3.6168,-3.7013,-3.8065,-3.8339,-3.794,-3.6934,-3.3715,-3.0554,-2.7721,-2.5199,-2.3285,-2.1993,-2.0752,-2.0089,-2.0023,-1.8144,-1.6875,-1.5954,-1.332,-1.1663,-1.0778,-1.0058,-0.991,-1.0184,-1.3189,-1.4942,-1.5825,-1.8325,-2.0341,-2.2044,-2.2592,-2.3207,-2.3808,0.0,0.0,0.0,0.0,0.0,0.0,0.0,0.0,0.0,0.0,0.0,-3.6358,-3.6358,-3.6358,-3.733,0.0,0.0,0.0,0.0,0.0,0.0,0.0,0.0,0.0,0.0,0.0,0.0,0.0,0.0,0.0,0.0,0.0,0.0,0.0,0.0,-4.9725,-5.0048,-5.0758,-5.0183,-4.8654,-4.7264,-4.7494,-4.8421,-4.6077,-4.6274,-4.7636,-4.6781,-4.7305,-4.8174,-4.6421,-4.7524,-4.9674,-4.9944,-5.0806,-5.1651,-5.1246,-5.0524,-4.978,-4.9249,-4.8456,-4.7737,-4.7822,-4.7005,0.0,-4.2902,-4.1738,-4.0065,0.0,-3.3317,-3.1179,-2.9279,-2.8551,-2.8199,-2.8186,-3.0861,-3.2463,-3.1376,-3.2476,-3.3386,-3.3326,-3.4126,-3.4817,-3.4872,-3.5885,-3.6382,-3.6097,-3.6095,-3.5026,-3.2486,-3.0186,-2.7814,-2.5431,-2.315,-2.2078,-2.2308,-2.1239,-2.1427,-2.2905,-2.0179,-1.8793,-1.8712,-1.4265,-1.2294,-1.2097,-1.0543,-0.9917,-1.0211,-1.1838,-1.3879,-1.5768,-1.6685,-1.9119,-2.2084,-2.2953,-2.346,-2.3768,0.0,0.0,0.0,0.0,0.0,0.0,0.0,0.0,0.0,0.0,0.0,-3.6358,-3.6358,-3.6358,-3.7347,0.0,0.0,0.0,0.0,0.0,0.0,0.0,0.0,0.0,0.0,0.0,0.0,0.0,0.0,0.0,0.0,0.0,0.0,0.0,0.0,-4.9707,-4.9279,-5.0452,-4.9642,-4.7553,-4.7559,-4.6997,-4.6036,-4.4986,-4.3764,-4.2825,-4.4451,-4.5196,-4.5558,-4.6329,-4.6897,-4.761,-4.9451,-4.9804,-4.9712,-5.078,-5.0163,-4.9249,-4.9746,-4.9182,-4.8553,-4.9126,-4.794,0.0,-4.459,-4.2535,-3.9787,0.0,-3.3174,-3.1064,-2.9202,-2.8494,-2.9015,-3.1416,-3.2823,-3.3084,-3.1448,-3.374,-3.5278,-3.4511,-3.4875,-3.5521,-3.6335,-3.547,-3.5002,-3.5245,-3.3312,-3.1452,-2.9894,-2.8571,-2.6758,-2.4159,-2.3871,-2.3271,-2.2324,-2.2585,-2.3004,-2.3303,-2.1689,-2.0359,-1.9017,-1.5675,-1.337,-1.2097,-1.0543,-0.9978,-1.0236,-1.0644,-1.2758,-1.5874,-1.7826,-2.0035,-2.2071,-2.2712,-2.3153,-2.3487,0.0,0.0,0.0,0.0,0.0,0.0,0.0,0.0,0.0,0.0,0.0,-3.6502,-3.6792,-3.6528,-3.7475,-4.0039,0.0,0.0,0.0,0.0,0.0,0.0,0.0,0.0,0.0,0.0,0.0,0.0,0.0,0.0,0.0,0.0,0.0,0.0,-4.9816,-4.976,-4.9087,-5.024,-4.9629,-4.7872,-4.731,-4.6261,-4.4939,-4.4002,-4.3006,-4.2211,-4.3464,-4.3715,-4.3654,-4.5196,-4.6101,-4.688,-4.8393,-4.8837,-4.9037,-5.0154,-4.9513,-4.8489,-4.8754,-4.836,-4.7835,-4.7712,-4.6371,0.0,0.0,-4.169,-3.9143,-3.4932,-3.3591,-3.2256,-2.933,-2.9576,-3.0767,-3.2463,-3.4063,-3.4669,-3.3824,-3.5466,-3.6301,-3.5169,-3.5598,-3.5977,-3.5638,-3.4724,-3.3711,-3.2607,-3.0525,-2.9032,-2.8386,-2.6642,-2.4749,-2.2767,-2.3047,-2.3134,-2.2573,-2.3871,-2.4896,-2.5865,-2.4514,-2.3007,-2.1398,-1.7462,-1.4914,-1.3297,-1.0867,-1.0066,-1.0283,-1.0358,-1.2001,-1.4761,-1.7029,-1.9026,-2.0838,-2.2361,-2.3153,-2.3594,0.0,0.0,0.0,0.0,0.0,0.0,0.0,0.0,0.0,0.0,-3.6433,-3.6672,-3.745,-3.6963,-3.7818,-4.0938,-3.9641,0.0,0.0,0.0,0.0,0.0,0.0,-4.5383,0.0,0.0,0.0,0.0,0.0,0.0,0.0,0.0,0.0,0.0,-4.9881,-4.9753,-4.9128,-4.9752,-4.9172,-4.7781,-4.6556,-4.5543,-4.4595,-4.3305,-4.2679,-4.2586,-4.2774,-4.2584,-4.2555,-4.4088,-4.5239,-4.6315,-4.7541,-4.814,-4.8591,-4.9661,-4.8915,-4.7833,-4.7995,-4.7637,0.0,0.0,0.0,-4.3385,0.0,0.0,0.0,-3.4635,0.0,0.0,0.0,0.0,0.0,0.0,0.0,0.0,0.0,-3.7316,0.0,-3.5802,-3.623,-3.6094,-3.4817,-3.3805,-3.2143,-2.9532,-2.8077,-2.722,-2.722,-2.4963,-2.3085,-2.1744,-2.2398,-2.2871,-2.2945,-2.5005,-2.683,-2.8301,-2.6825,-2.5261,-2.3599,-1.8981,-1.6009,-1.4441,-1.1371,-1.0181,-1.0331,-1.0826,-1.1888,-1.3673,-1.5883,-1.7927,-1.9747,-2.2089,-2.318,-2.3607,-2.5488,-2.5877,0.0,0.0,0.0,0.0,0.0,0.0,0.0,-3.6721,-3.6659,-3.6988,-3.8506,-3.7672,-3.8678,-4.2901,-3.992,0.0,-4.3796,0.0,0.0,0.0,0.0,0.0,-4.4414,0.0,0.0,0.0,0.0,0.0,0.0,0.0,0.0,0.0,-4.9808,-4.9589,-4.9412,-4.8556,-4.7088,-4.53,-4.5,-4.4892,0.0,-4.3032,-4.1978,-4.1389,-4.144,-4.1767,-4.2518,0.0,-4.459,-4.5118,0.0,-4.7889,-4.7275,-4.9469,-4.888,-4.7833,-4.9086,0.0,0.0,0.0,-4.5931,0.0,-4.219,0.0,-3.9728,-3.6381,0.0,0.0,0.0,0.0,0.0,0.0,0.0,0.0,-3.8204,-3.9268,-3.9164,-3.6934,-3.6228,-3.5956,-3.5726,-3.2484,-2.9485,-2.7281,-2.6384,-2.5917,-2.5917,-2.4492,-2.3085,-2.1744,-2.3668,-2.407,-2.2961,-2.6273,-2.8135,-2.8301,-2.6825,-2.5261,-2.3599,-1.9076,-1.6144,-1.465,-1.1549,-1.0337,-1.0596,-1.2138,-1.3118,-1.3987,-1.5942,-1.7927,-1.9747,-2.2089,-2.2899,-2.2757,-2.5742,-2.5879,0.0,0.0,0.0,0.0,0.0,0.0,0.0,0.0,-3.6746,-3.7354,-3.9744,-3.897,-3.9648,-4.316,-4.1369,-4.1022,0.0,0.0,0.0,0.0,0.0,-4.5882,0.0,0.0,0.0,0.0,-4.8839,0.0,0.0,0.0,0.0,0.0,-4.9597,0.0,-4.7613,-4.7458,-4.6281,0.0,0.0,-4.4314,0.0,-4.2917,-4.2356,-4.193,-4.094,-4.0984,-4.1681,0.0,-4.3803,0.0,0.0,0.0,0.0,-4.7933,-4.7545,-4.6874,0.0,0.0,0.0,0.0,0.0,0.0,-4.2008,0.0,-3.8995,0.0,0.0,0.0,0.0,0.0,0.0,0.0,-3.7882,0.0,0.0,0.0,-3.8483,0.0,0.0,0.0,-3.2696,-2.9848,-2.757,-2.6249,-2.5915,-2.5742,-2.5742,-2.3683,-2.2265,-2.1744,-2.3082,-2.3491,-2.2961,-2.6542,-2.8301,-2.8301,-2.7867,-2.6499,-2.3926,-2.0386,-1.7311,-1.4878,-1.1718,-1.0487,-1.0761,-1.2668,-1.3652,-1.4188,-1.736,-1.8947,-1.9951,-2.2141,-2.2979,-2.2902,-2.5918,-2.6016,-2.6328,0.0,0.0,0.0,0.0,0.0,0.0,0.0,0.0,0.0,-4.0271,-4.011,-4.0924,-4.3686,-4.2821,-4.2582,0.0,0.0,-4.2962,-4.3618,-4.5501,-4.6673,0.0,0.0,0.0,0.0,0.0,0.0,0.0,0.0,0.0,0.0,0.0,-4.8238,-4.6635,0.0,-4.5343,-4.3741,-4.3597,-4.3335,-4.295,-4.2649,-4.2652,-4.2599,-4.0931,-4.0844,-4.1647,-4.2124,-4.3057,0.0,-4.4962,-4.5562,-4.596,0.0,0.0,0.0,-4.61,0.0,0.0,0.0,0.0,0.0,0.0,0.0,0.0,0.0,0.0,0.0,0.0,0.0,0.0,0.0,0.0,-3.9015,0.0,-3.8871,0.0,0.0,0.0,0.0,0.0,-2.7981,-2.6382,-2.5624,-2.5547,-2.5547,-2.5547,-2.3114,-2.1895,-2.2401,-2.2733,-2.3118,-2.3644,-2.6817,-2.8457,-2.8476,-2.8887,-2.7493,-2.44,-2.1389,-1.8289,-1.5232,-1.1895,-1.0899,-1.1711,-1.3678,-1.5166,-1.6435,-1.9927,-2.1533,-2.1962,-2.2589,-2.306,-2.3073,-2.6367,-2.6699,-2.7109,0.0,0.0,0.0,0.0,0.0,0.0,0.0,0.0,0.0,0.0,0.0,0.0,-4.5081,0.0,-4.3789,-4.5173,0.0,-4.2565,-4.0938,-4.4866,-4.6686,0.0,0.0,0.0,0.0,0.0,0.0,0.0,0.0,0.0,0.0,-4.955,-4.8441,-4.735,-4.5457,-4.3727,-4.2092,-4.1529,-4.1538,-4.1885,0.0,-4.2495,-4.2797,-4.1346,0.0,0.0,-4.2414,-4.2596,0.0,0.0,0.0,0.0,0.0,0.0,0.0,0.0,0.0,0.0,-4.3409,0.0,0.0,0.0,0.0,-3.8718,0.0,0.0,0.0,0.0,0.0,0.0,0.0,0.0,0.0,0.0,0.0,0.0,0.0,0.0,0.0,0.0,-2.7877,-2.6445,-2.5173,-2.5098,-2.5098,-2.5098,-2.2955,-2.2418,-2.414,-2.3391,-2.3768,-2.5539,-2.779,-2.8906,-2.8906,-2.9336,-2.7918,-2.4762,-2.1583,-1.8444,-1.5336,-1.2073,-1.1851,-1.3863,-1.5585,-1.8324,-2.1739,-2.4072,-2.5928,-2.6889,-2.3947,-2.306,-2.3073,-2.6738,-2.7148,-2.75,-2.7637,-2.8589,0.0,0.0,-3.5722,0.0,0.0,-3.903,0.0,0.0,-4.432,-4.5133,0.0,0.0,-4.5257,-4.5311,-4.471,0.0,-4.3646,-4.648,-4.8005,0.0,0.0,0.0,0.0,0.0,0.0,0.0,0.0,0.0,0.0,0.0,-4.8175,0.0,0.0,0.0,0.0,0.0,-4.2137,-4.2518,0.0,-4.1941,-4.2717,-4.1973,-4.1654,0.0,-4.2064,-4.2321,-4.2446,-4.2816,-4.2929,-4.2842,-4.2222,-4.251,0.0,0.0,0.0,-4.3167,-4.2873,0.0,0.0,0.0,0.0,0.0,0.0,0.0,0.0,0.0,0.0,0.0,0.0,0.0,0.0,0.0,0.0,0.0,0.0,0.0,0.0,0.0,0.0,0.0,-2.5153,-2.5059,-2.5059,-2.5059,-2.3761,-2.3462,-2.426,-2.4346,-2.5122,-2.694,-2.9252,-3.0381,-3.0294,-3.1031,-2.9184,-2.5021,-2.2033,-1.8836,-1.5555,-1.2127,-1.1858,-1.3863,-1.6723,-1.947,-2.2105,-2.6552,-2.8639,-2.8852,-2.7334,-2.6042,-2.4929,-2.6973,-2.748,-2.7891,-2.7891,0.0,0.0,0.0,0.0,0.0,0.0,-4.0262,0.0,-4.5708,0.0,-4.7063,0.0,-4.8383,-4.7436,-4.59,-4.6278,0.0,-4.5635,-4.7726,-4.8959,0.0,0.0,0.0,0.0,0.0,-5.1779,0.0,0.0,0.0,0.0,0.0,-4.8471,-4.6607,-4.5517,-4.4043,0.0,0.0,-4.2236,0.0,0.0,-4.2341,-4.3721,0.0,-4.1777,-4.1943,-4.1461,-4.139,-4.1473,-4.1279,-4.1082,-4.0776,-4.0487,-4.0351,-4.0562,-4.117,-4.1247,0.0,-4.1233,-4.0499,0.0,-3.8742,0.0,-3.7613,0.0,0.0,0.0,0.0,0.0,0.0,0.0,0.0,0.0,0.0,-3.7021,0.0,0.0,0.0,0.0,0.0,-2.736,-2.5643,-2.4938,-2.4844,-2.4844,0.0,0.0,-2.4136,-2.521,-2.5535,-2.6615,-2.8528,-3.0832,-3.1763,-3.1272,-3.2196,-3.0178,-2.5381,-2.2248,-1.8969,-1.5784,-1.2931,-1.2773,-1.4787,-1.8273,-2.1625,-2.4879,-2.9171,-3.1598,-3.2455,-3.0414,-2.8267,-2.6394,0.0,-2.7715,0.0,0.0,-3.0618,0.0,0.0,0.0,-3.9521,0.0,-4.1355,-4.3551,-4.4613,-4.6791,-4.8283,-4.8552,-5.0164,-4.994,-4.7048,-4.8748,0.0,0.0,-4.8553,-4.9482,-4.9174,0.0,-5.1031,0.0,0.0,0.0,0.0,0.0,0.0,0.0,-5.051,0.0,-4.7511,-4.6277,-4.4767,-4.3063,-4.2195,-4.1853,-4.1846,-4.1768,-4.352,-4.5553,-4.2091,-4.2185,-4.3506,-4.0646,-4.0118,-4.0565,-4.0341,-3.9605,-3.8866,-3.9266,-3.8046,-3.6928,-3.8477,-3.7651,-3.6854,-3.8608,0.0,0.0,0.0,0.0,-3.7161,0.0,0.0,0.0,0.0,0.0,0.0,0.0,0.0,0.0,0.0,0.0,0.0,0.0,0.0,0.0,-2.9326,-2.6464,-2.4526,-2.4414,-2.4434,-2.4434,0.0,0.0,-2.4902,-2.6973,-2.728,-2.8391,-3.0618,-3.2878,-3.3259,-3.193,-3.2727,-3.0664,-2.5935,-2.2428,-1.8945,-1.5774,-1.4083,-1.4463,-1.6744,-2.0219,-2.4779,-2.9751,-3.1938,-3.4789,-3.7215,-3.2969,-2.9598,-2.7417,-2.7441,-2.793,-2.9217,0.0,-3.2555,-3.3132,0.0,0.0,0.0,0.0,-4.2739,-4.5448,-4.8668,-4.8813,-4.9552,-5.1707,-5.1017,0.0,0.0,0.0,0.0,-4.8084,-5.0008,-5.0766,-5.0218,-5.2143,-5.3008,-5.2752,0.0,0.0,-5.2422,0.0,0.0,0.0,0.0,-4.9625,-4.7683,-4.6891,-4.4965,-4.2521,-4.2508,-4.2542,-4.2554,0.0,-4.1823,-4.2987,-4.2009,-4.1233,-4.0746,-4.0507,-4.0118,-3.9601,-3.8733,-3.859,-3.8504,-3.7366,-3.734,-3.7699,-3.7647,-3.703,-3.6813,-3.8081,-3.7552,-3.6885,0.0,0.0,0.0,0.0,0.0,0.0,0.0,0.0,0.0,0.0,0.0,0.0,0.0,0.0,0.0,-3.3164,0.0,0.0,-2.8143,-2.7861,-2.6732,-2.4526,-2.4727,-2.4766,-2.4434,0.0,0.0,-2.8445,-3.0568,-3.2928,-3.5308,-3.5819,-3.6354,-3.6802,-3.4956,-3.1737,-2.7229,-2.2689,-1.8814,-1.5543,-1.3877,-1.499,-1.8233,-2.2639,-2.6747,-3.0781,-3.5539,-3.801,-3.8508,-3.4843,-3.2753,-3.158,-2.7578,0.0,0.0,-3.3674,0.0,0.0,-3.6674,-3.8567,0.0,-4.0877,-4.3713,0.0,-4.9005,-4.9778,-5.0904,-5.2625,-5.1453,0.0,-5.0377,0.0,0.0,-5.0426,-5.1505,-5.1747,-5.0989,-5.2318,-5.2805,-5.2383,-5.2617,0.0,-5.2578,0.0,0.0,0.0,0.0,-5.0164,-4.8567,-4.7069,-4.538,-4.3615,-4.2953,-4.2593,0.0,-4.0839,-4.0425,-4.0608,-4.0153,-3.9859,-3.9661,-4.0016,-3.9793,-3.9277,-3.8703,-3.8414,-3.8185,-3.7767,-3.7135,-3.6633,-3.6766,-3.6052,-3.5512,-3.6159,-3.5978,-3.573,-3.6031,-3.6107,-3.5931,0.0,0.0,0.0,0.0,0.0,0.0,0.0,0.0,0.0,0.0,0.0,0.0,0.0,-3.1512,0.0,-2.7861,-2.7345,-2.6505,-2.48,-2.4922,-2.4961,0.0,0.0,0.0,-2.9797,-3.2175,-3.4554,-3.6628,-3.7111,-3.7394,-3.7363,-3.558,-3.2316,-2.7633,-2.3546,-1.984,-1.6603,-1.5706,-1.6943,-1.9903,-2.4722,-2.8799,-3.258,-3.8213,-4.0035,-3.9308,-3.734,-3.4641,-3.1824,0.0,0.0,0.0,0.0,0.0,0.0,0.0,-3.9245,0.0,-4.0676,0.0,-4.6835,-4.7478,-4.9902,-5.1627,-5.2007,0.0,-5.1293,-5.1206,-5.1456,-5.1966,-5.2891,-5.2918,-5.252,-5.1701,-5.1773,-5.1641,-5.1328,-5.1367,-5.1797,-5.25,0.0,0.0,0.0,0.0,0.0,0.0,-4.7065,-4.581,-4.5238,-4.347,-4.2393,-4.1662,-4.0212,-3.9249,-3.8566,-3.7775,-3.8268,-3.9409,-3.9218,-3.9116,-3.9116,-3.9086,-3.8485,-3.793,-3.8796,-3.7101,-3.5009,-3.5837,-3.4918,-3.3795,-3.3847,-3.4198,-3.455,-3.47,-3.4675,-3.46,-3.4525,-3.4603,-3.5279,0.0,0.0,0.0,0.0,0.0,0.0,0.0,0.0,0.0,0.0,0.0,0.0,0.0,0.0,-2.5496,-2.5173,-2.5117,0.0,0.0,0.0,0.0,-3.1031,-3.3173,-3.5006,-3.6489,0.0,-3.7519,-3.6411,-3.5634,-3.2574,-2.7622,-2.4515,-2.108,-1.7702,-1.8226,-1.9487,-2.17,-2.6747,-3.1149,-3.5194,-3.9864,-4.0779,-3.9343,-3.8949,-3.5185,-3.0293,0.0,0.0,0.0,0.0,0.0,-3.6501,-3.9041,-4.0727,-4.1756,-4.1856,-4.3707,-4.5888,-4.8337,-4.8562,-4.931,-5.1195,-5.1533,0.0,0.0,0.0,0.0,-5.3675,-5.3795,-5.3467,-5.2679,-5.2472,-5.2031,-5.1367,-5.1406,-5.1484,-5.1601,0.0,0.0,0.0,0.0,0.0,-4.8466,-4.7017,0.0,-4.4636,-4.3543,-4.2587,-4.1569,-3.9573,-3.8454,-3.7865,-3.7033,-3.7151,-3.7768,-3.7739,-3.7739,-3.7709,-3.7389,-3.7328,-3.7475,-3.7278,-3.6503,-3.5638,-3.5509,-3.4283,-3.3161,-3.372,-3.3621,-3.3596,-3.4525,-3.4374,-3.3922,-3.3445,-3.435,-3.5462,-3.6322,0.0,0.0,0.0,0.0,0.0,0.0,0.0,0.0,0.0,0.0,-3.0691,0.0,0.0,0.0,-2.5267,-2.541,0.0,0.0,0.0,0.0,0.0,-3.5646,0.0,0.0,0.0,-3.9138,-3.9881,-3.625,-3.1965,-2.7158,-2.4456,-2.0469,-1.5939,-1.8951,-2.1286,-2.3488,-2.9524,-3.5135,-3.9916,-3.9647,-3.929,-3.8709,-3.5871,-3.2652,-2.9946,0.0,0.0,0.0,0.0,0.0,0.0,0.0,-4.1882,-4.2384,-4.1806,-4.3579,-4.5312,-4.6491,-4.7801,-4.9016,-5.0135,-5.0214,-5.0543,-5.127,-5.193,-5.2954,-5.4231,-5.4142,-5.3837,-5.3379,-5.1929,-5.1211,-5.1406,-5.0547,-5.0547,0.0,0.0,0.0,-5.0742,0.0,-4.937,0.0,0.0,0.0,-4.5164,-4.3245,-4.2194,-4.1505,-3.9122,-3.8053,-3.7643,-3.6414,-3.6171,-3.6556,-3.7216,-3.7404,-3.7375,-3.7187,-3.7246,-3.7345,-3.7158,-3.6527,-3.5711,-3.5002,-3.3796,-3.2803,-3.2642,-3.239,-3.234,-3.2867,-3.2792,-3.2685,-3.288,-3.3542,-3.4594,-3.6697,-3.7529,0.0,0.0,0.0,0.0,0.0,0.0,-3.4223,0.0,0.0,0.0,0.0,0.0,0.0,0.0,0.0,-2.6783,0.0,0.0,0.0,0.0,0.0,0.0,0.0,0.0,0.0,-4.0746,-3.6493,-3.2317,-2.8214,-2.5343,-2.2274,-1.9299,-2.1174,-2.3536,-2.6369,-3.1067,-3.5624,-3.9564,-3.8237,-3.6971,-3.5852,-3.4516,-3.1038,-2.686,0.0,-3.0558,0.0,0.0,-3.7441,0.0,-4.1563,-4.2559,-4.2635,-4.163,-4.3259,-4.4565,-4.4626,-4.6854,-4.8614,-4.9064,-4.9014,-4.9609,-5.0961,-5.1505,-5.2529,-5.4309,-5.4264,-5.3958,-5.3476,-5.1172,-5.0351,-5.1133,-4.9648,-4.9648,0.0,0.0,0.0,0.0,0.0,0.0,0.0,0.0,-4.5961,-4.5466,-4.2926,-4.1866,-4.1511,-3.901,-3.793,-3.7601,-3.6229,-3.5644,-3.5644,-3.6637,-3.6979,-3.701,-3.7136,-3.7147,-3.6993,-3.7157,-3.6581,-3.5568,-3.4464,-3.3512,-3.2514,-3.1635,-3.1311,-3.126,-3.1361,-3.1448,-3.1749,-3.2489,-3.293,-3.4175,-3.7135,-3.7601,0.0,0.0,0.0,0.0,0.0,0.0,-3.4679,0.0,0.0,0.0,-2.9978,0.0,0.0,0.0,0.0,-2.7543,-2.8709,-3.0656,-3.2695,0.0,0.0,-3.9282,-4.0576,0.0,-4.0552,-4.0746,-3.6621,-3.2641,-2.8978,-2.6284,-2.4,-2.2421,-2.3293,-2.5824,-2.9592,-3.2031,-3.5067,-3.7769,-3.6201,-3.4706,-3.3165,-3.2282,-2.8638,-2.3956,0.0,0.0,0.0,0.0,0.0,0.0,-4.1239,-4.2308,-4.276,-4.2158,-4.2326,-4.3194,-4.507,-4.5524,-4.6401,-4.826,-4.9417,-5.0105,-5.0304,-5.218,-5.3309,-5.3344,-5.4294,-5.4059,-5.2461,-5.0937,-5.0234,-5.0312,-4.9375,-4.9336,-5.0156,-5.1016,0.0,0.0,0.0,0.0,0.0,-4.6722,-4.5791,-4.4575,-4.2938,-4.207,-4.1579,-3.9525,-3.8358,-3.7712,-3.6797,-3.6045,-3.5519,-3.5644,-3.5674,-3.5799,-3.6356,-3.62,-3.5824,-3.6386,-3.6105,-3.523,-3.3884,-3.3028,-3.2453,-3.1592,-3.1035,-3.0809,-3.1286,-3.1678,-3.1964,-3.204,-3.3514,-3.535,-3.7089,-3.7155,-3.7307,0.0,0.0,0.0,0.0,0.0,-3.5388,-3.5345,0.0,0.0,-2.9553,-2.84,0.0,0.0,-2.6992,-2.8066,-3.0519,-3.1323,-3.3068,-3.6157,0.0,-3.8229,-3.9932,-3.9385,-3.962,-4.0746,-3.6621,-3.2159,-2.7768,-2.6048,-2.3839,-2.1631,-2.4546,-2.8437,-3.2716,-3.2964,-3.461,-3.6541,-3.333,-3.2799,-3.2744,-2.642,-2.4058,-2.2965,0.0,0.0,0.0,0.0,0.0,0.0,0.0,-4.2986,-4.2735,-4.2082,-4.2443,-4.3339,-4.4952,-4.5176,-4.6109,-4.8407,-4.8784,-4.934,-5.0373,-5.1365,-5.212,-5.2593,-5.2554,-5.2255,-5.164,-4.9687,-4.8906,0.0,0.0,-4.9302,-5.0142,-5.0503,0.0,0.0,0.0,-4.7123,-4.639,-4.5663,-4.5093,-4.445,-4.2686,-4.1931,-4.1595,-3.9657,-3.8725,-3.8359,-3.7591,-3.7136,-3.6899,-3.6875,-3.6562,-3.614,-3.5954,-3.6014,-3.614,-3.5954,-3.5704,-3.5258,-3.4054,-3.3213,-3.2345,-3.1546,-3.07,-3.0312,-3.1087,-3.1392,-3.1809,-3.2952,-3.4347,-3.5718,-3.7143,-3.7248,-3.7487,0.0,0.0,0.0,0.0,0.0,0.0,-3.5574,0.0,-3.027,-2.9773,0.0,0.0,0.0,0.0,-2.9656,-3.1127,-3.2856,0.0,-3.6358,0.0,-4.0044,-4.1583,-4.1609,-4.1904,-4.2385,-3.7882,-3.3937,-3.0398,-2.8155,-2.69,-2.6546,-2.8478,-3.0306,-3.1872,-3.0723,-3.0918,-3.1623,-2.9883,-2.8319,-2.6691,-2.4391,-2.1644,-1.8309,-3.2539,0.0,-3.4022,0.0,-3.8504,-4.0352,-4.3375,-4.3313,-4.2785,-4.2258,-4.266,-4.3203,-4.3857,-4.4617,-4.6089,-4.8728,-4.8586,-4.9005,-5.0519,-5.0984,-5.1409,-5.1732,-5.1259,0.0,-5.0781,-4.8672,-4.7851,-4.8516,-4.8516,-4.8821,-4.9368,-4.9639,0.0,0.0,-4.668,-4.6151,-4.5834,-4.4953,-4.4595,-4.444,-4.2532,-4.1818,-4.1613,-3.9868,-3.9093,-3.8805,-3.8296,-3.796,-3.7793,-3.7801,-3.7556,-3.7122,-3.6412,-3.635,-3.6481,-3.5984,-3.5674,-3.5264,-3.4272,-3.3281,-3.2451,-3.1756,-3.0921,-3.0495,-3.1389,-3.1829,-3.2451,-3.4109,-3.5001,-3.5914,-3.7158,-3.7421,-3.7833,-3.9094,0.0,0.0,0.0,-3.7316,0.0,-3.5231,-3.2123,-2.984,-2.9349,-2.7815,0.0,0.0,0.0,0.0,0.0,0.0,0.0,0.0,0.0,0.0,0.0,-4.3654,-4.3752,-4.3752,-3.9423,-3.5769,-3.2574,-2.9561,-2.8184,-2.8191,-2.9574,-3.0065,-2.9721,-2.842,-2.7696,-2.7351,-2.6387,-2.4431,-2.2032,-2.1745,-1.9101,-1.5233,-3.3809,-3.4023,-3.5275,-3.8825,-3.8799,-3.9308,-4.2485,-4.2986,-4.2986,-4.2961,-4.2961,-4.2528,-4.1414,-4.347,-4.5991,-4.9046,-4.9231,-4.9578,-5.0554,-5.1525,-5.1678,0.0,0.0,-5.0571,-4.9844,-4.8242,-4.7461,-4.7617,0.0,0.0,-4.7461,0.0,-4.832,-4.7578,-4.7305,-4.6703,-4.5834,-4.4953,-4.4597,-4.4444,-4.2551,-4.1818,-4.1681,-4.0544,-3.9581,-3.8875,-3.8908,-3.8421,-3.7803,-3.7769,-3.8288,-3.8757,-3.802,-3.7253,-3.6607,-3.6607,-3.6045,-3.5305,-3.4286,-3.33,-3.2593,-3.2593,-3.1901,-3.1462,-3.2379,-3.3325,-3.4245,-3.5294,-3.5519,-3.5914,-3.7158,-3.7421,-3.8107,-4.0329,0.0,0.0,0.0,-3.8092,0.0,-3.4548,-3.1408,-2.8958,-2.7788,-2.6899,0.0,0.0,0.0,0.0,0.0,0.0,0.0,-3.8793,-4.0681,0.0,-4.4456,-4.4484,-4.4484,-4.4484,-4.1097,-3.7453,-3.3403,-2.944,-2.6503,-2.4531,-2.6328,-2.6859,-2.6513,-2.6372,-2.5723,-2.4364,-2.301,-2.1926,-2.059,-1.7162,-1.6056,-1.5255,-3.5195,-3.4766,-3.5241,-3.8145,-4.0253,-4.1837,-4.2812,-4.2986,-4.2986,-4.2986,-4.2986,-4.362,-4.5259,-4.5504,-4.6508,0.0,-4.868,-4.8741,0.0,-5.023,-5.0191,-4.9874,-4.9952,-4.9654,-4.8953,-4.8517,-4.8047,-4.7617,0.0,0.0,0.0,-4.8086,-4.75,-4.6719,-4.6445,-4.6151,-4.5834,-4.4953,-4.4597,-4.4481,-4.3023,-4.2144,-4.1715,-4.095,-4.0239,-3.9733,-3.9733,-3.9581,-3.9396,-3.9396,-3.9547,-3.9581,-3.8807,-3.8005,-3.7231,-3.6163,-3.5674,-3.5394,-3.5085,-3.4325,-3.3542,-3.3585,-3.2876,-3.2379,-3.3325,-3.4341,-3.5133,-3.5424,-3.5879,-3.666,-3.7994,-3.8747,-3.9692,-4.1341,-4.1374,0.0,-4.0696,0.0,-3.6397,-3.4658,-3.1721,-2.9591,-2.8888,-2.8368,0.0,0.0,0.0,0.0,0.0,0.0,0.0,0.0,-4.1571,0.0,-4.5751,-4.6272,-4.5994,-4.5023,-4.295,-3.8731,-3.2734,-3.0664,-2.8697,-2.7034,-2.7442,-2.6143,-2.3579,-2.3289,-2.1792,-1.9347,-1.9338,-1.8448,-1.7115,-1.629,-1.5286,-1.3494,-3.5918,-3.5449,-3.5534,-3.7524,-4.0276,-4.2372,-4.2925,-4.2986,-4.2986,-4.2986,-4.2986,-4.3724,-4.5685,-4.6167,0.0,-4.9299,-4.94,-4.9591,-5.02,-5.038,-5.0258,-4.9953,-4.968,-4.9317,-4.8911,-4.8665,0.0,-4.8008,-4.9141,-4.9258,-4.8398,-4.7851,-4.7148,-4.6289,-4.6016,-4.5917,-4.5834,-4.5124,-4.4711,-4.4518,-4.3351,-4.2585,-4.2061,-4.1229,-4.0679,-4.0391,-4.0172,-4.0087,-4.0087,-4.0087,-4.0087,-3.9918,-3.8841,-3.815,-3.7559,-3.6285,-3.5704,-3.5519,-3.5519,-3.4747,-3.4097,-3.4493,-3.3808,-3.3394,-3.4312,-3.5244,-3.5979,-3.6273,-3.6873,-3.7872,-3.9269,-3.9994,-4.0817,-4.2288,-4.2187,-4.1693,-4.0887,0.0,-3.648,0.0,0.0,0.0,0.0,-2.9202,-3.0289,0.0,0.0,0.0,0.0,0.0,0.0,-4.1452,-4.3562,0.0,-4.7153,-4.8027,-4.754,-4.563,-4.2447,-3.7816,-3.186,-3.0437,-2.8693,-2.6435,-2.5591,-2.376,-2.1407,-2.0424,-1.8563,-1.6239,-1.6777,-1.6009,-1.4646,-1.5093,-1.3788,-1.1564,-3.6016,-3.5996,-3.6261,0.0,-3.9117,0.0,-4.2712,-4.2986,-4.2986,-4.2986,-4.2986,-4.311,-4.3441,-4.5759,-4.7956,-4.971,0.0,0.0,0.0,-5.143,-5.1456,-5.0722,-4.992,-4.9509,-4.9606,-4.8865,-4.8592,-4.8867,-4.8867,-4.8476,-4.7695,-4.7578,-4.707,-4.6289,-4.6016,-4.5917,-4.5873,-4.5355,-4.4934,-4.4543,-4.364,-4.3059,-4.263,-4.144,-4.0948,-4.0832,-4.0358,-4.0138,-4.0087,-4.0087,-4.0054,-3.9767,-3.8254,-3.7744,-3.7575,-3.6763,-3.5984,-3.5394,-3.5489,-3.4747,-3.4257,-3.524,-3.4773,-3.4312,-3.5294,-3.6064,-3.6778,-3.7527,-3.8308,-3.9345,-4.0827,-4.1146,-4.1638,-4.3193,-4.2621,-4.1757,-4.1116,0.0,-3.6018,0.0,0.0,0.0,0.0,-2.9781,-3.1321,0.0,0.0,0.0,0.0,0.0,-4.171,-4.2811,-4.6364,-4.8307,-4.8307,-4.9439,-4.8719,-4.5981,-4.009,-3.5185,-3.0889,-2.9327,-2.6909,-2.3612,-2.1469,-2.0355,-2.0048,-1.8052,-1.6278,-1.4732,-1.5228,-1.4487,-1.3193,-1.3342,-1.189,-0.9711,0.0,0.0,-3.5913,-3.7348,-3.8937,-4.0652,-4.2687,-4.2986,-4.2986,-4.2986,-4.2986,-4.2972,-4.3161,-4.5673,-4.7897,-4.9347,-4.9585,-4.982,-5.0152,-5.0387,-5.0547,-5.0684,-5.0189,-4.9836,-4.9606,-5.0069,-5.0384,-5.0625,-4.9375,-4.8672,-4.8555,-4.7226,-4.6484,-4.6289,-4.6133,-4.5995,-4.5873,-4.5432,-4.5151,-4.4919,-4.4129,-4.3497,-4.299,-4.2485,-4.1674,-4.0866,-4.0764,-4.0425,-4.0087,-4.0087,-3.9682,-3.9026,-3.807,-3.7374,-3.6763,-3.5984,-3.5085,-3.4534,-3.5305,-3.4747,-3.4257,-3.524,-3.5294,-3.5198,-3.5424,-3.6459,-3.7463,-3.7653,-3.9269,-4.09,-4.1807,-4.2418,-4.3126,-4.4136,-4.314,-4.195,-4.1114,-3.853,0.0,0.0,-3.2265,-3.1908,-3.2447,-3.3081,-3.4564,0.0,0.0,0.0,0.0,-4.2726,-4.4287,-4.5411,-4.7358,-4.8307,-4.8211,-4.8528,-4.6827,-4.2828,-3.9122,-3.5185,-3.0889,-2.9598,-2.6985,-2.3781,-2.3484,-2.151,-1.8414,-1.8016,-1.6011,-1.3091,-1.3404,-1.3493,-1.3193,-1.3342,-1.189,-0.9721,-3.6348,-3.6171,-3.613,-3.6542,-3.7381,-3.8143,-3.8615,-4.1153,-4.3338,-4.4367,-4.4493,-4.4116,-4.3087,-4.5524,-4.783,-4.9149,-4.9904,-5.0504,-5.0894,-5.1114,-5.1204,-5.1254,-5.0833,-5.0279,-4.9548,-5.0356,-5.0929,-5.117,-4.9905,-4.9141,-4.8867,-4.7539,-4.668,-4.6289,-4.6172,-4.6066,-4.5949,-4.565,-4.5393,-4.515,-4.4498,-4.4007,-4.3497,-4.2915,-4.2116,-4.1297,-4.1023,-4.0578,-4.0087,-4.0087,-3.9581,-3.8789,-3.801,-3.7277,-3.6451,-3.5704,-3.5085,-3.4777,-3.5365,-3.5085,-3.4842,-3.5365,-3.5718,-3.6098,-3.6466,-3.7622,-3.8902,-3.9649,-4.1048,-4.2411,-4.3189,-4.3687,-4.4079,-4.4519,-4.358,-4.2327,-4.1176,-3.865,0.0,-3.3701,-3.3479,-3.3709,-3.4149,-3.5564,-3.7411,-3.9692,-3.9861,0.0,-4.2947,-4.4257,-4.5537,-4.6835,-4.8319,-4.8814,-4.8211,-4.6301,-4.3809,-4.066,-3.7947,-3.4302,-3.0049,-2.9377,-2.7214,-2.4024,-2.2387,-2.041,-1.807,-1.6241,-1.4491,-1.2725,-1.2895,-1.3091,-1.3117,-1.2198,-1.0377,-0.8211,-3.6777,-3.672,-3.6405,-3.5491,-3.5665,-3.5461,-3.3963,-3.9267,-4.4166,-4.605,-4.6301,-4.5472,-4.3212,-4.5853,-4.8213,-4.9382,-5.0867,-5.1917,-5.2201,-5.2346,-5.2231,-5.1818,-5.1433,-5.0663,-4.9528,-5.0279,-5.0837,-5.1068,-5.0186,-4.9453,-4.8867,-4.7851,-4.6992,-4.6289,-4.6172,-4.6133,-4.6093,-4.5919,-4.5642,-4.5322,-4.4795,-4.4391,-4.3992,-4.3061,-4.2338,-4.1724,-4.1128,-4.0578,-4.0087,-4.0087,-3.9463,-3.8598,-3.7997,-3.7166,-3.6325,-3.5674,-3.5519,-3.5519,-3.5519,-3.5559,-3.5691,-3.5688,-3.6321,-3.7093,-3.7779,-3.912,-4.0679,-4.2012,-4.2914,-4.3739,-4.444,-4.4587,-4.4587,-4.444,-4.358,-4.2472,-4.1022,0.0,-3.6533,-3.4151,-3.5006,-3.5738,-3.5435,-3.7822,-4.0068,-4.1421,-4.1677,-4.268,-4.4996,-4.5551,-4.6247,-4.7182,-4.8845,-4.9046,-4.7441,-4.3389,-4.0587,-3.8953,-3.6513,-3.3072,-2.9044,-2.8769,-2.7206,-2.4393,-2.0703,-1.8874,-1.827,-1.4475,-1.2991,-1.2963,-1.2963,-1.3125,-1.3032,-1.0876,-0.8531,-0.6353,-3.6875,-3.6426,-3.6035,-3.586,-3.5996,-3.5958,-3.5638,-4.1351,-4.5924,-4.6276,-4.6301,-4.5472,-4.3212,-4.7153,-4.999,-5.0242,-5.1157,-5.1898,-5.2165,-5.2137,-5.1871,-5.1406,-5.0983,-5.0535,-4.999,-5.0471,-5.0779,-5.0952,-4.9445,-4.8711,-4.8711,-4.7187,-4.6445,-4.6289,-4.6289,-4.6211,-4.6094,-4.5968,-4.5819,-4.5666,-4.4889,-4.4578,-4.4365,-4.3142,-4.2361,-4.1725,-4.1112,-4.0578,-4.0087,-4.0087,-3.9177,-3.7978,-3.7841,-3.6823,-3.5644,-3.5519,-3.5519,-3.5519,-3.5519,-3.5921,-3.6401,-3.6412,-3.748,-3.8547,-3.8702,-4.0393,-4.2026,-4.2242,-4.3423,-4.444,-4.4587,-4.4587,-4.4384,-4.3621,-4.2281,-4.1023,-4.0063,0.0,-3.6745,-3.6333,-3.6693,-3.7453,-3.8851,-4.0424,-4.2392,-4.4904,-4.5642,-4.6395,-4.7272,-4.7395,-4.7147,-4.6547,-4.7398,-4.648,-4.3506,-4.0707,-3.8512,-3.7063,-3.4411,-3.1911,-2.9421,-2.7881,-2.6417,-2.4847,-2.2307,-2.023,-1.8421,-1.5998,-1.4228,-1.2963,-1.2963,-1.3064,-1.3057,-1.0843,-0.8654,-0.6285,-3.7383,-3.7363,-3.7109,-3.6172,-3.6016,-3.5973,-3.6051,-4.2812,-4.8083,-4.8083,-4.7054,-4.5472,-4.3212,-4.7405,-5.0855,-5.1956,-5.232,-5.2727,-5.3399,-5.2923,-5.2559,-5.2302,-5.2158,-5.1735,-5.1087,-5.0375,-5.0067,-5.0183,-4.9084,-4.8334,-4.7969,-4.6836,-4.6289,-4.6289,-4.6289,-4.6289,-4.6172,-4.5976,-4.5871,-4.5781,-4.4948,-4.4599,-4.4455,-4.3178,-4.2333,-4.1717,-4.1105,-4.0568,-4.0087,-4.0087,-3.9362,-3.8417,-3.8371,-3.7651,-3.6753,-3.6747,-3.6445,-3.6073,-3.6102,-3.6658,-3.7239,-3.7255,-3.8405,-3.9625,-4.0073,-4.1905,-4.353,-4.3538,-4.4417,-4.5173,-4.5196,-4.4481,-4.3872,-4.3878,-4.2141,0.0,0.0,-3.9103,-3.8016,-3.8333,-3.8802,-3.9487,-4.0256,-4.207,-4.3834,-4.5464,-4.6245,-4.6833,-4.7502,-4.6881,-4.6343,-4.5912,-4.5172,-4.3751,-4.1441,-3.8909,-3.6467,-3.4238,-3.2912,-3.0798,-2.8237,-2.738,-2.6371,-2.4913,-2.1407,-1.9478,-1.8421,-1.5234,-1.3454,-1.2949,-1.2868,-1.2976,-1.2847,-0.9438,-0.7443,-0.6104,-3.7734,-3.7812,-3.7559,-3.625,-3.6348,-3.7133,-3.8844,-4.5122,-4.959,-4.959,-4.7682,-4.5691,-4.4178,-4.782,-5.1102,-5.2876,-5.3213,-5.3662,-5.4452,-5.4026,-5.3622,-5.3335,-5.3156,-5.2806,-5.2222,-5.0721,-5.0029,-5.0125,-4.9029,-4.8205,-4.7645,-4.6718,-4.6289,-4.6289,-4.6289,-4.6289,-4.6289,-4.5997,-4.59,-4.5819,-4.4938,-4.4519,-4.4243,-4.2996,-4.2157,-4.1509,-4.0932,-4.0426,-4.0087,-4.0087,-3.9581,-3.889,-3.8874,-3.8391,-3.7776,-3.781,-3.7476,-3.7077,-3.6933,-3.744,-3.8084,-3.8302,-3.9476,-4.0845,-4.1755,-4.347,-4.4906,-4.5094,-4.5557,-4.5886,-4.5681,-4.461,-4.3859,-4.4007,0.0,0.0,0.0,-4.0368,-3.9586,-4.008,-4.0771,-4.1208,-4.1354,-4.3316,-4.4877,-4.5755,-4.6682,-4.7292,-4.789,-4.6815,-4.5763,-4.4865,-4.3372,-4.1569,-3.9382,-3.7699,-3.5316,-3.2343,-3.1715,-2.997,-2.745,-2.7027,-2.62,-2.5006,-2.0513,-1.8603,-1.8339,-1.4191,-1.2684,-1.2942,-1.2793,-1.2569,-1.1812,-0.7893,-0.6095,-0.5119,-3.75,-3.6719,-3.6172,-3.6035,-3.7324,-4.0713,-4.7555,-4.9207,-4.959,-4.959,-4.7682,-4.6467,-4.6968,-4.901,-5.0721,-5.1493,-5.3281,-5.4452,-5.448,-5.5076,-5.492,-5.3818,-5.3019,-5.2781,-5.3107,-5.2164,-5.1741,-5.1741,-4.9548,-4.8477,-4.8379,-4.6973,-4.6289,-4.6289,-4.6289,-4.6289,-4.6288,-4.6019,-4.5885,-4.5819,-4.494,-4.4288,-4.3646,-4.2361,-4.1508,-4.0908,-4.0368,-4.0104,-4.0087,-4.0087,-3.9581,-3.8925,-3.8884,-3.8384,-3.7801,-3.7809,-3.823,-3.8553,-3.7911,-3.8246,-3.9018,-3.9709,-4.103,-4.255,-4.4044,-4.4986,-4.5807,-4.6468,-4.6683,-4.6447,-4.556,-4.5302,-4.4691,-4.3067,0.0,0.0,-4.152,-4.1294,-4.1249,-4.1279,-4.1876,-4.2503,-4.3021,-4.4355,-4.5867,-4.7534,-4.88,-4.9542,-4.9603,-4.8917,-4.6915,-4.3482,-4.2726,-4.0404,-3.6318,-3.7394,-3.6125,-3.2787,-3.101,-2.9298,-2.7659,-2.6071,-2.5348,-2.5132,-2.0591,-1.8694,-1.8404,-1.4245,-1.2684,-1.2942,-1.2793,-1.1543,-0.9577,-0.7382,-0.5108,-0.2975,-3.7461,-3.6601,-3.6016,-3.6016,-3.6562,-3.9887,-4.8281,-4.959,-4.959,-4.959,-4.9496,-4.9408,-4.9724,-5.097,-5.2027,-5.2639,-5.3822,-5.4791,-5.5229,-5.5524,-5.5447,-5.4996,-5.4206,-5.3859,-5.3993,-5.2626,-5.1664,-5.1164,-4.9279,-4.8153,-4.7669,-4.6661,-4.6211,-4.6289,-4.6289,-4.6289,-4.6288,-4.6009,-4.5911,-4.5819,-4.4952,-4.4256,-4.3547,-4.2296,-4.1438,-4.0828,-4.0285,-4.0087,-4.0154,-4.0474,-4.0384,-4.022,-4.0595,-4.0508,-4.0254,-4.0318,-4.0213,-4.0199,-4.0414,-4.0419,-4.0389,-4.0692,-4.1886,-4.3271,-4.4335,-4.5542,-4.6455,-4.6714,-4.7167,-4.7182,-4.6253,-4.5239,-4.4321,-4.351,0.0,-4.1926,-4.2,-4.1983,-4.2132,-4.2551,-4.318,-4.3658,-4.3928,-4.5155,-4.6371,-4.7395,-4.8304,-4.8709,-4.8237,-4.631,-4.405,-4.127,-4.2207,-4.0881,-3.6809,-3.6611,-3.5187,-3.2652,-3.24,-3.097,-2.8431,-2.7653,-2.5965,-2.3446,-2.0145,-1.8067,-1.676,-1.4013,-1.2854,-1.2782,-1.1348,-1.0259,-0.9235,-0.5697,-0.377,-0.2811,-3.7402,-3.6601,-3.6016,-3.6016,-3.6465,-3.9741,-4.8256,-4.9012,-4.8812,-4.9515,-5.0133,-5.0476,-5.0555,-5.1863,-5.2663,-5.2572,-5.3788,-5.4911,-5.5667,-5.6015,-5.5986,-5.5492,-5.5209,-5.4946,-5.468,-5.3102,-5.2049,-5.1471,-4.9644,-4.8359,-4.7594,-4.6882,-4.6484,-4.6289,-4.6289,-4.6289,-4.6289,-4.6005,-4.5916,-4.5799,-4.4963,-4.4241,-4.3542,-4.23,-4.142,-4.0849,-4.0303,-4.0206,-4.0458,-4.1093,-4.1415,-4.17,-4.2326,-4.237,-4.2195,-4.2193,-4.1724,-4.146,-4.2277,-4.2176,-4.1868,-4.1886,-4.2636,-4.3733,-4.4993,-4.6078,-4.6915,-4.7373,-4.7866,-4.7892,-4.6641,-4.5496,-4.451,-4.3784,-4.2712,-4.2222,-4.288,-4.297,-4.3051,-4.3323,-4.3714,-4.3985,-4.3741,-4.4588,-4.5464,-4.631,-4.7521,-4.8155,-4.7799,-4.5511,-4.3393,-4.1485,-4.2356,-4.1601,-3.914,-3.8531,-3.6515,-3.3336,-3.4408,-3.3116,-2.9683,-2.8973,-2.678,-2.3365,-2.0339,-1.7813,-1.5847,-1.367,-1.2915,-1.2782,-1.039,-0.9133,-0.8097,-0.4395,-0.263,-0.1996,-3.7226,-3.6601,-3.6035,-3.6016,-3.7441,-4.1205,-4.8453,-4.7707,-4.7104,-4.9289,-4.9186,-4.8958,-4.9303,-5.1339,-5.2068,-5.0525,-5.2977,-5.4903,-5.5687,-5.6734,-5.671,-5.5055,-5.5861,-5.5907,-5.5133,-5.3851,-5.3203,-5.3203,-5.0913,-4.9356,-4.8508,-4.7891,-4.7148,-4.6289,-4.6289,-4.6289,-4.6289,-4.6016,-4.591,-4.5834,-4.4953,-4.4263,-4.3584,-4.2296,-4.1429,-4.0832,-4.0273,-4.0459,-4.105,-4.1903,-4.26,-4.315,-4.397,-4.3648,-4.3044,-4.303,-4.2579,-4.2311,-4.3081,-4.3333,-4.3394,-4.3391,-4.3423,-4.4027,-4.6289,-4.6819,-4.7178,-4.8658,-4.9018,-4.8456,-4.6534,-4.6176,-4.553,-4.3615,-4.325,-4.3489,-4.4146,-4.4236,-4.4033,-4.3488,-4.3372,-4.319,-4.2537,-4.2527,-4.3023,-4.4235,-4.6821,-4.8454,-4.8913,-4.751,-4.6031,-4.4644,-4.3187,-4.2567,-4.297,-4.3469,-4.08,-3.5137,-3.6816,-3.5425,-3.1399,-2.9698,-2.7841,-2.5604,-2.1179,-1.8097,-1.6029,-1.3634,-1.2827,-1.2782,-1.039,-0.8167,-0.5997,-0.3942,-0.1831,0.0,-3.6465,-3.8771,-3.9735,-3.6502,-4.1721,-4.6478,-4.7134,-4.6728,-4.6552,-4.7205,-4.8179,-4.9258,-5.0455,-5.0423,-5.0893,-5.2469,-5.3315,-5.4372,-5.5603,-5.655,-5.6793,-5.6293,-5.6285,-5.6186,-5.5968,-5.4756,-5.3818,-5.3203,-5.1433,-4.9864,-4.849,-4.7791,-4.705,-4.6289,-4.6289,-4.6289,-4.6289,-4.6094,-4.5988,-4.5834,-4.4991,-4.4268,-4.3569,-4.2271,-4.1704,-4.1528,-4.1528,-4.1945,-4.2556,-4.3817,-4.4317,-4.4606,-4.5171,-4.5253,-4.4943,-4.453,-4.397,-4.3579,-4.3905,-4.3686,-4.3418,-4.3403,-4.3837,-4.4715,-4.6418,-4.6819,-4.704,-4.7854,-4.8042,-4.7463,-4.5556,-4.4527,-4.368,-4.2831,-4.1995,-4.1679,-4.2273,-4.2386,-4.2266,-4.2077,-4.2496,-4.2842,-4.305,-4.3491,-4.4456,-4.6109,-4.6801,-4.7271,-4.7374,-4.642,-4.5842,-4.5799,-4.5668,-4.5871,-4.639,-4.3138,-4.025,-3.8007,-3.8541,-3.6794,-3.3296,-3.1498,-2.8822,-2.5159,-2.1122,-1.8229,-1.6215,-1.4033,-1.301,-1.2628,-0.8866,-0.6938,-0.5835,-0.2302,-0.05,0.0,-3.6152,-3.8904,-4.1441,-4.1374,-4.5503,-4.8485,-4.7154,-4.6577,-4.6301,-4.6301,-4.774,-4.9414,-5.0971,-5.0743,-5.0882,-5.2299,-5.3045,-5.4106,-5.561,-5.645,-5.6878,-5.6804,-5.663,-5.6398,-5.6072,-5.5054,-5.4241,-5.3703,-5.2184,-5.0797,-4.9479,-4.8837,-4.7905,-4.6797,-4.6797,-4.6601,-4.6289,-4.6172,-4.6015,-4.5836,-4.5013,-4.4459,-4.392,-4.2654,-4.2358,-4.2599,-4.2542,-4.305,-4.4,-4.5178,-4.5951,-4.6382,-4.6358,-4.6397,-4.6241,-4.565,-4.5004,-4.4553,-4.4744,-4.4328,-4.3878,-4.3878,-4.4485,-4.5343,-4.653,-4.6753,-4.6845,-4.7458,-4.7309,-4.6429,-4.4447,-4.3698,-4.2976,-4.191,-4.1318,-4.1231,-4.1838,-4.1948,-4.1846,-4.1625,-4.21,-4.2393,-4.2153,-4.295,-4.4483,-4.6783,-4.6705,-4.6898,-4.7679,-4.6908,-4.6602,-4.6928,-4.7255,-4.7581,-4.7908,-4.401,-4.1572,-4.0339,-4.0511,-3.8295,-3.3965,-3.2363,-2.9317,-2.5212,-2.1309,-1.8409,-1.6316,-1.4099,-1.3037,-1.2628,-0.8215,-0.6448,-0.5835,-0.1481,0.0,0.0,-3.6172,-3.8017,-4.17,-4.7961,-4.8459,-4.7933,-4.7883,-4.7075,-4.6541,-4.6541,-4.7906,-4.9546,-5.0795,-5.1528,-5.1754,-5.122,-5.2573,-5.4106,-5.561,-5.6386,-5.6822,-5.6822,-5.6817,-5.6497,-5.5701,-5.497,-5.4511,-5.4395,-5.3051,-5.1896,-5.086,-5.0403,-4.9255,-4.7572,-4.7578,-4.7109,-4.6289,-4.6133,-4.6016,-4.5811,-4.5029,-4.4702,-4.4559,-4.3316,-4.3319,-4.4025,-4.3462,-4.4163,-4.5399,-4.6207,-4.7311,-4.8157,-4.7341,-4.7119,-4.7011,-4.636,-4.5682,-4.523,-4.5388,-4.5004,-4.4587,-4.471,-4.523,-4.5977,-4.6669,-4.6683,-4.6737,-4.7391,-4.6846,-4.5583,-4.3603,-4.3448,-4.304,-4.1146,-4.1105,-4.1497,-4.2125,-4.2207,-4.2072,-4.1518,-4.1944,-4.1827,-4.0807,-4.1781,-4.3704,-4.6567,-4.6499,-4.7103,-4.897,-4.8294,-4.7933,-4.7983,-4.7983,-4.7858,-4.7708,-4.5586,-4.3752,-4.2051,-4.2037,-3.9114,-3.3729,-3.2154,-2.9442,-2.5758,-2.1689,-1.877,-1.6622,-1.4048,-1.2983,-1.2642,-0.8327,-0.6421,-0.5845,-0.1811,-0.0167,0.0,-3.6055,-3.9298,-4.2741,-4.4795,-4.6949,-4.8184,-4.7606,-4.8195,-4.8532,-4.8094,-4.9454,-5.0187,-4.9434,-5.0544,-5.2219,-5.4448,-5.3923,-5.4106,-5.561,-5.5861,-5.6233,-5.6785,-5.6503,-5.6145,-5.573,-5.5542,-5.478,-5.3472,-5.328,-5.2095,-5.0072,-4.9932,-4.9012,-4.743,-4.7346,-4.6875,-4.6133,-4.6016,-4.5937,-4.5811,-4.5029,-4.5039,-4.5369,-4.409,-4.4419,-4.5477,-4.5551,-4.6064,-4.6795,-4.7606,-4.8047,-4.8187,-4.7535,-4.7339,-4.7097,-4.6006,-4.558,-4.5354,-4.4936,-4.471,-4.4744,-4.5354,-4.6032,-4.6624,-4.6736,-4.7004,-4.7257,-4.731,-4.6957,-4.6253,-4.5041,-4.34,-4.2139,-4.2122,-4.0648,-3.962,-4.0184,-4.0286,-4.0389,-4.0641,-4.0819,-4.1322,-4.2308,-4.3865,-4.5011,-4.5715,-4.6162,-4.6648,-4.7542,-4.773,-4.8109,-4.856,-4.8586,-4.7902,-4.6544,-4.5247,-4.3752,-4.192,-3.8716,-3.5879,-3.3175,-3.0469,-2.8717,-2.7525,-2.2259,-1.9582,-1.8913,-1.4807,-1.3125,-1.2943,-1.0045,-0.7956,-0.6073,-0.3462,-0.1332,0.0,-3.6094,-3.9242,-4.2271,-4.3242,-4.5682,-4.7506,-4.7631,-4.834,-4.9194,-5.0184,-5.0934,-5.1309,-5.0962,-5.1128,-5.2095,-5.4455,-5.3957,-5.4011,-5.5084,-5.5511,-5.5721,-5.5702,-5.6034,-5.577,-5.4801,-5.5189,-5.5101,-5.4395,-5.3741,-5.2761,-5.1523,-5.0748,-4.977,-4.8546,-4.8448,-4.8037,-4.7323,-4.7213,-4.7126,-4.7058,-4.6241,-4.6086,-4.6249,-4.526,-4.5516,-4.6504,-4.6617,-4.7095,-4.7752,-4.8157,-4.8306,-4.8184,-4.7599,-4.7404,-4.7157,-4.5883,-4.5507,-4.5446,-4.5207,-4.5117,-4.5264,-4.6067,-4.7073,-4.7793,-4.7373,-4.7297,-4.7299,-4.7236,-4.6594,-4.5707,-4.4659,-4.3659,-4.2873,-4.2629,-4.1705,-4.0979,-4.0617,-4.0772,-4.0875,-4.0581,-4.0978,-4.1957,-4.3589,-4.4819,-4.5598,-4.5849,-4.6401,-4.6828,-4.7129,-4.7631,-4.8033,-4.836,-4.836,-4.7552,-4.5811,-4.3211,-4.111,-3.9411,-3.6884,-3.3853,-3.0501,-2.9051,-2.7891,-2.6875,-2.3052,-2.0878,-1.9563,-1.6137,-1.4091,-1.2896,-1.0545,-0.8284,-0.6211,-0.395,-0.1837,0.0,-3.6367,-3.9094,-4.1826,-4.2703,-4.496,-4.7029,-4.7933,-4.8703,-4.9891,-5.1815,-5.2339,-5.2761,-5.3441,-5.2368,-5.2167,-5.3651,-5.3585,-5.3815,-5.4537,-5.5256,-5.5418,-5.4733,-5.5631,-5.5429,-5.4055,-5.4585,-5.5047,-5.5385,-5.4161,-5.351,-5.3358,-5.1939,-5.0787,-4.999,-4.9798,-4.9335,-4.8651,-4.8499,-4.8451,-4.8412,-4.7543,-4.718,-4.7132,-4.6396,-4.6617,-4.7316,-4.7313,-4.7721,-4.8306,-4.8306,-4.8306,-4.8148,-4.7446,-4.7226,-4.6991,-4.5746,-4.5446,-4.5558,-4.5705,-4.5784,-4.609,-4.6953,-4.8096,-4.8861,-4.8296,-4.7837,-4.751,-4.731,-4.6388,-4.5382,-4.4384,-4.4442,-4.4253,-4.3314,-4.336,-4.3122,-4.2084,-4.2392,-4.2413,-4.1414,-4.2296,-4.3473,-4.4618,-4.5296,-4.5824,-4.6276,-4.6728,-4.7029,-4.7129,-4.7531,-4.7807,-4.7908,-4.7558,-4.6581,-4.4877,-4.0541,-3.7449,-3.5486,-3.4557,-3.1844,-2.752,-2.7688,-2.6956,-2.5391,-2.3672,-2.1811,-1.9725,-1.7423,-1.5038,-1.2869,-1.1022,-0.8756,-0.6032,-0.3628,-0.1678,0.0,-3.707,-4.0045,-4.2725,-4.3287,-4.6108,-4.8485,-4.8636,-5.0525,-5.1866,-5.1709,-5.3473,-5.4815,-5.495,-5.3866,-5.3609,-5.4601,-5.3991,-5.3813,-5.4574,-5.5296,-5.565,-5.5527,-5.5597,-5.5417,-5.4838,-5.4293,-5.3979,-5.4036,-5.4258,-5.4028,-5.3356,-5.23,-5.1413,-5.0702,-4.9836,-4.9125,-4.8523,-4.8259,-4.828,-4.8413,-4.7401,-4.7425,-4.7939,-4.7205,-4.7426,-4.8122,-4.8124,-4.8234,-4.8306,-4.8306,-4.8306,-4.8075,-4.689,-4.6552,-4.6285,-4.5077,-4.5173,-4.5705,-4.5694,-4.618,-4.702,-4.8368,-4.8855,-4.905,-4.9425,-4.9202,-4.8701,-4.7791,-4.7311,-4.6954,-4.6837,-4.5961,-4.5183,-4.5092,-4.42,-4.3409,-4.3313,-4.3836,-4.4288,-4.4638,-4.5529,-4.5866,-4.5414,-4.5874,-4.6225,-4.6301,-4.6376,-4.6627,-4.7104,-4.7205,-4.7431,-4.7883,-4.6036,-4.4229,-4.2532,-3.8082,-3.4067,-3.0734,-2.8991,-2.7891,-2.752,-2.615,-2.5567,-2.5378,-2.3478,-2.1656,-1.9725,-1.7423,-1.5178,-1.3315,-1.2734,-1.0156,-0.6174,-0.2011,-0.0337,0.0,-3.7266,-4.0024,-4.259,-4.3377,-4.6084,-4.841,-4.8711,-5.095,-5.2287,-5.1735,-5.3994,-5.5932,-5.6466,-5.5668,-5.5042,-5.4907,-5.4059,-5.3651,-5.3969,-5.4661,-5.5085,-5.5027,-5.541,-5.555,-5.5337,-5.5196,-5.4936,-5.4499,-5.423,-5.393,-5.3605,-5.2933,-5.2222,-5.1414,-5.101,-5.0471,-4.9951,-4.9741,-4.9766,-4.9874,-4.892,-4.8679,-4.886,-4.8087,-4.7976,-4.8306,-4.8306,-4.8306,-4.8306,-4.8306,-4.8097,-4.7723,-4.7204,-4.6821,-4.6447,-4.5954,-4.6041,-4.6438,-4.6826,-4.7461,-4.826,-4.9384,-5.0236,-5.0618,-4.9705,-4.9691,-4.9474,-4.8022,-4.7532,-4.7309,-4.7309,-4.6844,-4.6462,-4.6462,-4.5958,-4.5533,-4.5202,-4.5581,-4.5874,-4.5651,-4.5532,-4.5362,-4.497,-4.5522,-4.5723,-4.5397,-4.5673,-4.5949,-4.62,-4.6502,-4.6265,-4.5573,-4.4583,-4.2349,-3.8479,-3.5371,-3.1957,-2.8538,-2.6386,-2.5524,-2.5693,-2.531,-2.5144,-2.5291,-2.4637,-2.308,-2.1118,-1.8798,-1.6747,-1.4738,-1.3577,-1.0399,-0.6202,-0.1681,0.0,0.0]}]]